[[{"header":{"parameterUnit":"m.s-1","parameterCategory":1,"la1":30.6,"la2":29.2853,"lo1":-89.7004,"lo2":-87.6739,"dy":0.0162,"dx":0.0183,"nx":112,"ny":82,"refTime":"2023-04-11T18:00:00:Z","depth":0,"parameterNumber":2,"parameterNumberName":"U-component_of_WINDS"},"data":[0.0,0.0,0.0,0.0,0.0,0.0,0.0,0.0,0.0,0.0,0.0,0.0,0.0,0.0,0.0,0.0,0.0,0.0,0.0,0.0,0.0,0.0,0.0,0.0,0.0,0.0,0.0,0.0,0.0,0.0,0.0,0.0,0.0,0.0,0.0,0.0,0.0,0.0,0.0,0.0,0.0,0.0,0.0,0.0,0.0,0.0,0.0,0.0,0.0,0.0,0.0,0.0,0.0,0.0,0.0,0.0,0.0,0.0,0.0,0.0,0.0,0.0,0.0,0.0,0.0,0.0,0.0,0.0,0.0,0.0,0.0,0.0,0.0,0.0,0.0,0.0,0.0,0.0,0.0,0.0,0.0,0.0,0.0,0.0,0.0,0.0,0.0,0.0,0.0,0.0,2.4663,2.6101,2.9166,3.1581,3.3021,3.0461,2.7923,2.5785,0.0,0.0,0.0,0.0,0.0,0.0,0.0,0.0,0.0,0.0,0.0,0.0,0.0,0.0,0.0,0.0,0.0,0.0,0.0,0.0,0.0,0.0,0.0,0.0,0.0,0.0,0.0,0.0,0.0,0.0,0.0,0.0,0.0,0.0,0.0,0.0,0.0,0.0,0.0,0.0,0.0,0.0,0.0,0.0,0.0,0.0,0.0,0.0,0.0,0.0,0.0,0.0,0.0,0.0,0.0,0.0,0.0,0.0,0.0,0.0,0.0,0.0,0.0,0.0,0.0,0.0,0.0,0.0,0.0,0.0,0.0,0.0,0.0,0.0,0.0,0.0,0.0,0.0,0.0,0.0,0.0,0.0,0.0,0.0,0.0,0.0,0.0,0.0,0.0,0.0,0.0,0.0,0.0,0.0,0.0,0.0,0.0,0.0,0.0,0.0,0.0,0.0,0.0,0.0,2.5783,3.0632,3.2732,3.3664,3.3541,3.0156,2.7428,2.6333,0.0,0.0,0.0,0.0,0.0,0.0,0.0,0.0,0.0,0.0,0.0,0.0,0.0,0.0,0.0,0.0,0.0,0.0,0.0,0.0,0.0,0.0,0.0,0.0,0.0,0.0,0.0,0.0,0.0,0.0,0.0,0.0,0.0,0.0,0.0,0.0,0.0,0.0,0.0,0.0,0.0,0.0,0.0,0.0,0.0,0.0,0.0,0.0,0.0,0.0,0.0,0.0,0.0,0.0,0.0,0.0,0.0,0.0,0.0,0.0,0.0,0.0,0.0,0.0,0.0,0.0,0.0,0.0,0.0,0.0,0.0,0.0,0.0,0.0,0.0,0.0,0.0,0.0,0.0,0.0,0.0,0.0,0.0,0.0,0.0,0.0,0.0,0.0,0.0,0.0,0.0,0.0,0.0,0.0,0.0,0.0,0.0,0.0,0.0,0.0,0.0,0.0,0.0,2.6248,2.9472,3.4906,3.4932,3.4998,3.5526,3.0864,2.7428,2.6226,2.5598,0.0,0.0,0.0,0.0,0.0,0.0,0.0,0.0,0.0,0.0,0.0,0.0,0.0,0.0,0.0,0.0,0.0,0.0,0.0,0.0,0.0,0.0,0.0,0.0,0.0,0.0,0.0,0.0,0.0,0.0,0.0,0.0,0.0,0.0,0.0,0.0,0.0,0.0,0.0,0.0,0.0,0.0,0.0,0.0,0.0,0.0,0.0,0.0,0.0,0.0,0.0,0.0,0.0,0.0,0.0,0.0,0.0,0.0,0.0,0.0,0.0,0.0,0.0,0.0,0.0,0.0,0.0,0.0,0.0,0.0,0.0,0.0,0.0,0.0,0.0,0.0,0.0,0.0,0.0,0.0,0.0,0.0,0.0,0.0,0.0,0.0,0.0,0.0,0.0,0.0,0.0,0.0,0.0,0.0,0.0,0.0,0.0,0.0,0.0,0.0,0.0,0.0,2.9037,3.215,3.5763,3.5239,3.4876,3.5399,3.0749,2.7348,2.6226,2.5344,0.0,0.0,0.0,0.0,0.0,0.0,0.0,0.0,0.0,0.0,0.0,0.0,0.0,0.0,0.0,0.0,0.0,0.0,0.0,0.0,0.0,0.0,0.0,0.0,0.0,0.0,0.0,0.0,0.0,0.0,0.0,0.0,0.0,0.0,0.0,0.0,0.0,0.0,0.0,0.0,0.0,0.0,0.0,0.0,0.0,0.0,0.0,0.0,0.0,0.0,0.0,0.0,0.0,0.0,0.0,0.0,0.0,0.0,0.0,0.0,0.0,0.0,0.0,0.0,0.0,0.0,0.0,0.0,0.0,0.0,0.0,0.0,0.0,0.0,0.0,0.0,0.0,0.0,0.0,0.0,0.0,0.0,0.0,0.0,0.0,0.0,0.0,0.0,0.0,0.0,0.0,0.0,0.0,0.0,0.0,0.0,0.0,0.0,0.0,0.0,0.0,0.0,2.9152,3.1194,3.0506,3.2424,3.2646,3.0233,2.8077,2.6867,2.6774,2.5184,0.0,0.0,0.0,0.0,0.0,0.0,0.0,0.0,0.0,0.0,0.0,0.0,0.0,0.0,0.0,0.0,0.0,0.0,0.0,0.0,0.0,0.0,0.0,0.0,0.0,0.0,0.0,0.0,0.0,0.0,0.0,0.0,0.0,0.0,0.0,0.0,0.0,0.0,0.0,0.0,0.0,0.0,0.0,0.0,0.0,0.0,0.0,0.0,0.0,0.0,0.0,0.0,0.0,0.0,0.0,0.0,0.0,0.0,0.0,0.0,0.0,0.0,0.0,0.0,0.0,0.0,0.0,0.0,0.0,0.0,0.0,0.0,0.0,0.0,0.0,0.0,0.0,0.0,0.0,0.0,0.0,0.0,0.0,0.0,0.0,0.0,0.0,0.0,0.0,0.0,0.0,0.0,0.0,0.0,0.0,0.0,0.0,0.0,0.0,0.0,0.0,0.0,2.9727,3.2244,3.2851,3.3575,3.3293,3.1917,2.8827,2.7014,2.6827,0.0,0.0,0.0,0.0,0.0,0.0,0.0,0.0,0.0,0.0,0.0,0.0,0.0,0.0,0.0,0.0,0.0,0.0,0.0,0.0,0.0,0.0,0.0,0.0,0.0,0.0,0.0,0.0,0.0,0.0,0.0,0.0,0.0,0.0,0.0,0.0,0.0,0.0,0.0,0.0,0.0,0.0,0.0,0.0,0.0,0.0,0.0,0.0,0.0,0.0,0.0,0.0,0.0,0.0,0.0,0.0,0.0,0.0,0.0,0.0,0.0,0.0,0.0,0.0,0.0,0.0,0.0,0.0,0.0,0.0,0.0,0.0,0.0,0.0,0.0,0.0,0.0,0.0,0.0,0.0,0.0,0.0,0.0,0.0,0.0,0.0,0.0,0.0,0.0,0.0,0.0,0.0,0.0,0.0,0.0,0.0,0.0,0.0,0.0,0.0,0.0,0.0,2.6867,2.9452,3.1713,0.0,3.2742,3.2192,3.1743,2.8689,2.6787,2.6947,0.0,0.0,0.0,0.0,0.0,0.0,0.0,0.0,0.0,0.0,0.0,0.0,0.0,0.0,0.0,0.0,0.0,0.0,0.0,0.0,0.0,0.0,0.0,0.0,0.0,0.0,0.0,0.0,0.0,0.0,0.0,0.0,0.0,0.0,0.0,0.0,0.0,0.0,0.0,0.0,0.0,0.0,0.0,0.0,0.0,0.0,0.0,0.0,0.0,0.0,0.0,0.0,0.0,0.0,0.0,0.0,0.0,0.0,0.0,0.0,0.0,0.0,0.0,0.0,0.0,0.0,0.0,0.0,0.0,0.0,0.0,0.0,0.0,0.0,0.0,0.0,0.0,0.0,0.0,0.0,0.0,0.0,0.0,0.0,0.0,0.0,0.0,0.0,0.0,0.0,0.0,0.0,0.0,0.0,0.0,0.0,0.0,0.0,0.0,0.0,0.0,0.0,2.668,2.7869,2.8951,2.9833,2.9392,2.9045,2.9045,2.6881,2.6026,0.0,0.0,0.0,0.0,0.0,0.0,0.0,0.0,0.0,0.0,0.0,0.0,0.0,0.0,0.0,0.0,0.0,0.0,0.0,0.0,0.0,0.0,0.0,0.0,0.0,0.0,0.0,0.0,0.0,0.0,0.0,0.0,0.0,0.0,0.0,0.0,0.0,0.0,0.0,0.0,0.0,0.0,0.0,0.0,0.0,0.0,0.0,0.0,0.0,0.0,0.0,0.0,0.0,0.0,0.0,0.0,0.0,0.0,0.0,0.0,0.0,0.0,0.0,0.0,0.0,0.0,0.0,0.0,0.0,0.0,0.0,0.0,0.0,0.0,0.0,0.0,0.0,0.0,0.0,0.0,0.0,0.0,0.0,0.0,0.0,0.0,0.0,0.0,0.0,0.0,0.0,0.0,0.0,0.0,0.0,0.0,0.0,0.0,0.0,0.0,0.0,0.0,0.0,2.6961,2.8177,2.9245,3.014,2.9887,2.9486,2.9072,2.7442,2.676,2.7522,0.0,0.0,0.0,0.0,0.0,0.0,0.0,0.0,0.0,0.0,0.0,0.0,0.0,0.0,0.0,0.0,0.0,0.0,0.0,0.0,0.0,0.0,0.0,0.0,0.0,0.0,0.0,0.0,0.0,0.0,0.0,0.0,0.0,0.0,0.0,0.0,0.0,0.0,0.0,0.0,0.0,0.0,0.0,0.0,0.0,0.0,0.0,0.0,0.0,0.0,0.0,0.0,0.0,0.0,0.0,0.0,0.0,0.0,0.0,0.0,0.0,0.0,0.0,0.0,0.0,0.0,0.0,0.0,0.0,0.0,0.0,0.0,0.0,0.0,0.0,0.0,0.0,0.0,0.0,0.0,0.0,0.0,0.0,0.0,0.0,0.0,0.0,0.0,0.0,0.0,0.0,0.0,0.0,0.0,0.0,0.0,0.0,0.0,0.0,0.0,0.0,0.0,2.7268,2.8484,2.9472,3.0114,3.002,2.9673,2.9085,2.7682,2.6921,2.7161,0.0,0.0,0.0,0.0,0.0,0.0,0.0,0.0,0.0,0.0,0.0,0.0,0.0,0.0,0.0,0.0,0.0,0.0,0.0,0.0,0.0,0.0,0.0,0.0,0.0,0.0,0.0,0.0,0.0,0.0,0.0,0.0,0.0,0.0,0.0,0.0,0.0,0.0,0.0,0.0,0.0,0.0,0.0,0.0,0.0,0.0,0.0,0.0,0.0,0.0,0.0,0.0,0.0,0.0,0.0,0.0,0.0,0.0,0.0,0.0,0.0,0.0,0.0,0.0,0.0,0.0,0.0,0.0,0.0,0.0,0.0,0.0,0.0,0.0,0.0,0.0,0.0,0.0,0.0,0.0,0.0,0.0,0.0,0.0,0.0,0.0,0.0,0.0,0.0,0.0,0.0,0.0,0.0,0.0,0.0,0.0,0.0,0.0,0.0,0.0,0.0,0.0,2.7629,2.8778,2.9619,2.9967,2.9993,2.9753,2.9125,2.7789,2.6854,2.6533,0.0,0.0,0.0,0.0,0.0,0.0,0.0,0.0,0.0,0.0,0.0,0.0,0.0,0.0,0.0,0.0,0.0,0.0,0.0,0.0,0.0,0.0,0.0,0.0,0.0,0.0,0.0,0.0,0.0,0.0,0.0,0.0,0.0,0.0,0.0,0.0,0.0,0.0,0.0,0.0,0.0,0.0,0.0,0.0,0.0,0.0,0.0,0.0,0.0,0.0,0.0,0.0,0.0,0.0,0.0,0.0,0.0,0.0,0.0,0.0,2.7789,0.0,0.0,0.0,0.0,0.0,0.0,0.0,0.0,0.0,0.0,0.0,0.0,0.0,0.0,0.0,0.0,0.0,0.0,0.0,0.0,0.0,0.0,0.0,0.0,0.0,0.0,0.0,0.0,0.0,0.0,0.0,0.0,0.0,0.0,0.0,0.0,0.0,0.0,0.0,0.0,0.0,2.823,2.9045,2.9766,3.0528,3.0608,3.0274,2.9459,2.8671,2.7989,2.7455,2.6653,0.0,0.0,0.0,0.0,0.0,0.0,0.0,0.0,0.0,0.0,0.0,0.0,0.0,0.0,0.0,0.0,0.0,0.0,0.0,0.0,0.0,0.0,0.0,0.0,0.0,0.0,0.0,0.0,0.0,0.0,0.0,0.0,0.0,0.0,0.0,0.0,0.0,0.0,0.0,0.0,0.0,0.0,0.0,0.0,0.0,0.0,0.0,0.0,0.0,0.0,0.0,0.0,0.0,0.0,0.0,0.0,0.0,0.0,0.0,0.0,2.6542,0.0,0.0,0.0,0.0,0.0,0.0,0.0,0.0,0.0,0.0,0.0,0.0,0.0,0.0,0.0,0.0,0.0,0.0,0.0,0.0,0.0,0.0,0.0,0.0,0.0,0.0,0.0,0.0,0.0,0.0,0.0,0.0,0.0,0.0,0.0,0.0,0.0,0.0,0.0,0.0,2.8644,2.9325,2.998,3.0715,3.0915,3.0648,2.9766,2.9152,2.8377,2.7348,2.7121,0.0,0.0,0.0,0.0,0.0,0.0,0.0,0.0,0.0,0.0,0.0,0.0,0.0,0.0,0.0,0.0,0.0,0.0,0.0,0.0,0.0,0.0,0.0,0.0,0.0,0.0,0.0,0.0,0.0,0.0,0.0,0.0,0.0,0.0,0.0,0.0,0.0,0.0,0.0,0.0,0.0,0.0,0.0,0.0,0.0,0.0,0.0,0.0,0.0,0.0,0.0,0.0,0.0,3.2955,3.3219,3.362,3.3329,3.1889,2.9694,2.8163,2.6073,2.3696,2.3903,0.0,0.0,0.0,0.0,0.0,0.0,0.0,0.0,0.0,0.0,0.0,0.0,0.0,0.0,0.0,0.0,0.0,0.0,0.0,0.0,0.0,0.0,0.0,0.0,2.9526,2.9005,0.0,0.0,0.0,0.0,0.0,0.0,0.0,0.0,0.0,0.0,0.0,0.0,2.9045,2.97,3.0314,3.0955,3.1236,3.1022,3.014,2.9526,2.8604,2.7215,2.7495,2.7375,0.0,0.0,0.0,0.0,0.0,0.0,0.0,0.0,0.0,0.0,0.0,0.0,0.0,0.0,0.0,0.0,0.0,0.0,0.0,0.0,0.0,0.0,0.0,0.0,0.0,0.0,0.0,0.0,0.0,0.0,0.0,0.0,2.9182,2.9421,0.0,0.0,0.0,0.0,0.0,0.0,0.0,0.0,0.0,0.0,0.0,0.0,0.0,3.3163,3.3542,3.4082,3.4167,3.4154,3.3787,3.2803,3.1798,3.1257,3.0455,2.9006,2.798,0.0,2.4086,2.4281,0.0,0.0,0.0,0.0,0.0,0.0,0.0,0.0,0.0,0.0,0.0,0.0,0.0,0.0,0.0,0.0,0.0,0.0,0.0,0.0,0.0,0.0,2.7484,3.0096,3.0595,3.0515,0.0,2.9299,2.8257,2.7642,2.7148,0.0,0.0,0.0,0.0,0.0,0.0,0.0,2.9686,3.0314,3.0996,3.1837,3.1957,3.1637,3.0755,3.014,2.9392,2.843,2.7949,2.7642,2.7535,2.7522,0.0,0.0,0.0,0.0,0.0,0.0,0.0,0.0,0.0,0.0,0.0,0.0,0.0,0.0,0.0,0.0,0.0,0.0,0.0,0.0,0.0,0.0,0.0,0.0,0.0,0.0,0.0,0.0,0.0,2.9234,2.9692,2.9249,2.9544,2.9778,0.0,0.0,0.0,0.0,0.0,0.0,0.0,0.0,0.0,3.3457,3.4111,3.4691,3.5212,3.5809,3.6265,3.6385,3.6306,3.5683,3.4289,3.3888,3.242,3.0329,2.971,2.8302,2.6331,2.5087,2.377,2.2574,0.0,0.0,0.0,0.0,2.2845,2.3181,2.358,2.372,0.0,2.4086,0.0,0.0,0.0,0.0,0.0,0.0,0.0,0.0,0.0,0.0,2.9405,3.1614,3.2278,3.2438,3.2091,3.1263,3.0154,0.0,2.8377,2.8257,2.8056,0.0,0.0,0.0,0.0,2.9112,2.982,3.0434,3.1129,3.2011,3.1957,3.1704,3.1316,3.0595,2.9793,2.8911,2.8444,2.8056,2.7709,2.7856,2.7486,0.0,0.0,0.0,0.0,0.0,0.0,0.0,0.0,0.0,0.0,0.0,0.0,0.0,0.0,0.0,0.0,0.0,0.0,0.0,0.0,0.0,0.0,0.0,0.0,0.0,0.0,0.0,0.0,2.9719,3.0236,2.9159,3.002,3.037,0.0,0.0,0.0,0.0,0.0,0.0,3.2749,3.3407,3.4241,3.5295,3.5939,3.6583,3.7226,3.7885,3.8485,3.8845,3.8638,3.7735,3.648,3.5624,3.3838,3.1373,3.0947,2.9888,2.8393,2.6369,2.4822,2.3641,2.3592,2.339,2.3094,2.3806,2.4052,2.4463,2.5055,2.526,2.5281,2.5399,2.513,2.471,2.4527,0.0,0.0,0.0,0.0,2.5698,2.7681,2.9351,3.1006,3.2833,3.3678,3.4015,3.3627,3.308,3.2064,0.0,2.9659,2.9539,2.9032,0.0,0.0,0.0,0.0,2.9673,3.0181,3.0835,3.1517,3.2251,3.2131,3.1944,3.1797,3.0969,3.0154,2.9419,2.8898,2.8404,2.7949,2.7551,2.6418,2.4691,0.0,0.0,0.0,0.0,0.0,0.0,0.0,0.0,0.0,0.0,0.0,0.0,0.0,0.0,0.0,0.0,0.0,0.0,0.0,0.0,0.0,0.0,0.0,0.0,0.0,0.0,0.0,0.0,0.0,3.0033,3.0641,0.0,0.0,0.0,0.0,3.212,3.3334,3.4461,3.5397,3.6056,3.6992,3.828,3.8953,3.9612,4.0255,4.0914,4.1173,4.0816,3.9002,3.7332,3.5979,3.4111,3.2501,3.1095,3.1095,3.0686,2.99,2.8199,2.7079,2.6401,2.5566,2.567,2.5858,2.5493,2.5702,2.6142,2.6401,2.6498,2.6573,2.7025,2.6853,2.6336,2.5658,2.5593,0.0,0.0,2.5949,2.6743,2.8201,2.9888,3.1549,3.3374,3.4254,3.479,3.503,3.4629,3.3601,0.0,3.0688,3.0221,2.99,0.0,2.9646,2.9098,2.998,3.0808,3.1116,3.1917,3.2585,3.2893,3.2919,3.2692,3.2131,3.1276,3.0635,3.0314,2.9232,2.8591,2.8564,2.6202,2.4861,2.4691,2.2417,0.0,0.0,0.0,0.0,0.0,0.0,0.0,0.0,0.0,0.0,0.0,0.0,0.0,0.0,0.0,0.0,0.0,0.0,0.0,0.0,0.0,0.0,0.0,0.0,0.0,0.0,0.0,0.0,3.3439,3.3686,0.0,3.2734,3.3363,3.3978,3.4417,3.5836,3.7022,3.7782,3.8631,3.8854,3.8608,3.9224,3.9036,3.8317,3.8718,3.8725,3.8817,3.8127,3.6865,3.5466,3.4581,3.3394,3.1892,3.172,3.1429,3.0998,3.0255,2.905,2.7704,2.7258,2.7076,2.7176,2.7279,2.7397,2.7682,2.822,2.8307,2.8188,2.8199,2.7984,2.7618,2.7058,2.695,2.7025,2.7101,2.7413,2.8066,2.9686,3.1386,3.3029,3.441,3.5297,3.5912,3.6019,3.5431,3.467,3.3921,3.2692,3.1557,3.0875,3.0608,3.0474,3.0448,3.0969,3.1396,3.1503,3.2118,3.2652,3.2946,3.2812,3.2612,3.2412,3.1583,3.0782,3.0114,2.9325,2.8008,2.624,2.5263,2.3298,2.0356,1.9368,1.8192,0.0,0.0,0.0,0.0,0.0,0.0,0.0,0.0,0.0,0.0,0.0,0.0,0.0,0.0,0.0,0.0,0.0,0.0,0.0,0.0,0.0,0.0,0.0,0.0,0.0,3.2798,3.3679,3.5265,3.5832,3.5924,3.5397,3.5939,3.6539,3.708,3.8412,3.9267,3.9241,3.9864,3.991,3.8432,3.8897,3.8821,3.7658,3.786,3.7961,3.7961,3.7464,3.659,3.5533,3.4633,3.3651,3.2495,3.2344,3.2086,3.1774,3.1634,3.0772,2.9502,2.8963,2.8673,2.864,2.8963,2.9136,2.9276,2.9825,2.9825,2.9534,2.9448,2.9103,2.8673,2.8436,2.836,2.8393,2.8565,2.8899,2.9542,3.0687,3.2295,3.4001,3.4668,3.5896,3.6647,3.6647,3.6046,3.5431,3.5231,3.4002,3.2746,3.1957,3.157,3.145,3.1637,3.1837,3.2038,3.2238,3.2599,3.2906,3.3106,3.2959,3.2759,3.2559,3.2011,3.1209,3.014,2.8869,2.7059,2.4843,2.3336,2.1104,1.7949,1.6904,1.5858,1.4441,0.0,0.0,0.0,0.0,0.0,0.0,0.0,0.0,0.0,0.0,0.0,0.0,0.0,0.0,0.0,0.0,0.0,0.0,0.0,0.0,0.0,0.0,0.0,3.1373,3.3363,3.4914,3.5295,3.7022,3.8061,3.7753,3.8309,3.9085,4.0051,4.1002,4.0888,3.9631,3.9998,3.9628,3.8227,3.853,3.8795,3.9073,3.9073,3.9073,3.9073,3.7061,3.6343,3.608,3.4095,3.3238,3.3001,3.3001,3.2721,3.229,3.229,3.215,3.1827,3.0654,3.0331,3.0535,3.0535,3.0686,3.0912,3.1138,3.0912,3.0568,3.0794,3.0245,2.9534,2.976,2.9825,2.9792,2.9825,3.0309,3.0848,3.088,3.2732,3.4595,3.4595,3.58,3.6967,3.6967,3.65,3.5899,3.5338,3.4509,3.3721,3.3106,3.2772,3.2585,3.2572,3.2572,0.0,3.3334,3.3414,3.3414,3.3427,3.3427,3.32,3.2625,3.2545,3.1917,3.0461,2.7838,2.5865,2.494,2.0533,1.8149,1.8149,1.5665,1.4462,1.4326,0.0,0.0,0.0,0.0,0.0,0.0,0.0,0.0,0.0,0.0,0.0,0.0,0.0,0.0,0.0,0.0,0.0,0.0,0.0,0.0,0.0,3.2749,3.42,3.5511,3.6231,3.7576,4.0286,4.0795,4.0885,4.1046,4.166,4.2231,4.2743,4.2048,4.1629,4.1532,4.0246,3.8669,3.6833,3.6917,3.6226,3.5061,3.4831,3.4831,3.4831,3.4492,3.4414,3.4591,3.4087,3.3809,3.3722,3.355,3.3292,3.3001,3.2861,3.2829,3.2829,3.1827,3.1451,3.1515,3.1515,3.1569,3.1623,3.1687,3.1623,3.1537,3.1601,3.1311,3.0977,3.1031,3.0826,3.0622,3.0966,3.0709,3.0259,3.0764,3.2511,3.4182,3.4371,3.5886,3.7555,3.7555,3.6794,3.6019,3.5859,3.5124,3.4336,3.3734,3.3574,3.344,3.3213,3.3173,0.0,3.3387,3.3414,3.3494,3.3734,3.3761,3.3601,3.3227,3.0992,2.9041,2.8087,2.5001,2.2332,2.0215,1.8836,1.7435,1.5636,1.5174,1.4875,0.0,0.0,0.0,0.0,0.0,0.0,0.0,0.0,0.0,0.0,0.0,0.0,0.0,0.0,0.0,0.0,0.0,0.0,0.0,0.0,0.0,0.0,3.4885,3.6829,3.8751,3.881,3.9743,4.2486,4.2884,4.3109,4.3563,4.3201,4.3124,4.358,4.197,4.0749,4.0155,3.8899,3.7408,3.5367,3.548,3.4781,3.3755,3.3862,3.3916,3.3916,3.4153,3.4293,3.4347,3.4433,3.4325,3.4035,3.3895,3.3636,3.3313,3.3173,3.3206,0.0,0.0,0.0,0.0,0.0,3.2204,3.2204,3.2204,3.214,3.2086,3.2172,3.1967,3.172,3.1806,3.1655,3.1483,3.1774,3.1478,3.1184,3.1587,3.3036,3.4821,3.4761,3.6546,3.7969,3.7849,3.7195,3.6513,3.6139,3.5658,0.0,3.4376,3.4055,3.3868,3.3801,3.3574,3.3454,3.3587,3.3494,3.348,3.3668,3.3694,3.3574,3.3267,3.0342,0.0,0.0,0.0,1.9896,1.715,1.7073,0.0,0.0,0.0,1.5228,1.5181,0.0,0.0,0.0,1.4957,1.5045,0.0,0.0,0.0,0.0,0.0,0.0,0.0,0.0,0.0,0.0,0.0,0.0,0.0,0.0,0.0,0.0,3.6992,3.9231,4.1485,4.1646,4.1909,4.3036,4.3987,4.4535,4.519,4.3288,4.2278,4.2859,4.0825,3.8754,3.7224,3.6943,0.0,0.0,0.0,3.4465,3.4465,3.4449,3.4556,3.4556,3.478,3.4748,3.4577,3.4769,3.4513,3.3622,3.3622,3.3368,3.2965,3.2912,3.2859,3.2774,3.2624,3.2635,3.2947,3.2721,3.2635,3.2603,3.2603,0.0,0.0,3.2549,3.2312,3.2,3.2237,3.2258,3.2237,3.229,3.2398,3.229,3.2333,3.3717,3.5274,3.5297,3.6564,3.7954,3.7689,3.7317,3.7048,3.6233,3.6046,3.5765,3.495,3.4349,3.4055,3.4242,3.3814,3.3547,3.3801,3.3587,3.3427,3.3467,0.0,0.0,3.3106,3.0378,2.8113,2.7152,2.2211,1.8261,1.5642,1.5506,1.5499,1.5635,1.5642,1.5513,1.5255,1.5255,1.5343,1.5513,1.5615,1.5601,0.0,0.0,0.0,0.0,0.0,0.0,0.0,0.0,0.0,0.0,0.0,0.0,0.0,0.0,0.0,3.7244,3.948,4.1572,4.3841,4.4558,4.485,4.4806,4.4959,4.4875,4.4217,4.2913,4.1909,4.1196,3.8895,3.7473,3.7221,3.5998,3.4879,3.4605,3.4322,3.4428,3.495,3.4104,3.368,3.4499,0.0,0.0,3.3411,3.2911,3.2492,3.2203,3.1679,3.1266,3.0985,3.0645,3.0393,3.0228,3.2236,3.3066,3.298,3.2915,3.2775,3.2603,3.2603,3.257,3.2549,3.257,3.243,3.2237,3.2463,3.229,0.0,3.243,3.2045,3.115,3.1029,3.1756,3.2421,3.2107,3.4062,3.5911,3.5835,3.622,3.654,3.6153,3.5885,3.5591,3.5177,3.483,3.4456,3.4028,3.3868,3.3721,3.3534,3.3454,3.3507,3.3761,3.3801,3.3774,3.3721,2.8953,2.565,2.5103,1.9547,1.6243,1.5642,1.5608,1.5608,1.5642,1.5642,1.5669,1.5723,1.5723,1.5866,1.613,1.5913,1.5859,0.0,0.0,0.0,0.0,0.0,0.0,0.0,0.0,0.0,0.0,0.0,3.0821,3.1389,0.0,3.7037,3.9495,4.1529,4.3431,4.5055,4.5246,4.544,4.5283,4.4642,4.3833,4.3111,4.0907,3.9239,3.8962,3.6733,3.5607,3.5607,3.4572,3.4209,3.4209,3.3762,3.3845,3.4386,3.3757,3.3626,3.3626,3.3727,3.3108,3.2354,3.2461,3.1993,3.1336,3.0798,3.0665,3.0439,3.024,3.0089,2.9994,3.1457,3.1665,3.126,3.1159,3.0967,3.0765,3.1537,3.1693,3.1599,3.2365,3.2517,3.2452,3.2074,3.1958,3.1584,3.1288,3.071,3.0073,2.9796,3.0351,3.0853,3.0721,3.1634,3.3184,3.4571,3.4688,3.5151,3.6175,3.6046,3.5765,3.5458,3.5177,3.483,3.4389,3.4202,3.4042,3.3881,3.3868,3.3298,3.1981,3.1868,3.1166,2.9695,2.5532,2.2314,2.0619,1.7709,1.6008,1.6076,1.6015,1.6008,1.6076,1.6083,1.6117,1.6185,1.6185,1.6266,1.6415,1.6334,1.63,0.0,0.0,0.0,0.0,0.0,0.0,0.0,3.0024,3.0138,2.8874,3.1156,3.3354,3.394,3.7287,4.0285,4.1529,4.3343,4.4739,4.5318,4.5121,4.4623,4.3734,4.3333,4.2306,4.125,3.8325,3.6236,3.642,3.483,3.3703,3.3683,3.3503,3.3677,3.3677,3.3443,3.3473,3.3758,3.3703,3.3248,3.2682,3.3376,3.2701,3.0983,3.1667,3.144,3.0154,3.0154,3.0025,2.986,2.9878,2.986,2.9786,2.9786,2.9464,2.8958,2.9198,2.9191,2.8983,3.024,3.0383,3.0494,3.1495,3.1995,3.1734,3.1194,3.1184,3.0914,2.9615,2.9115,2.8865,2.8095,2.8445,2.8798,2.8779,2.9145,3.0128,3.2343,3.2412,3.2662,3.4479,3.4566,3.4274,3.3994,3.4154,3.4505,3.4817,3.4563,3.4169,3.3485,3.3472,3.2401,2.9446,2.9054,2.7884,2.4904,2.2257,1.9742,1.6776,1.6429,1.6402,1.6517,1.6415,1.6402,1.6517,1.6524,1.6524,1.6524,1.6524,1.6537,1.6571,1.6693,1.668,3.261,3.1676,3.1559,3.1388,3.0913,3.0297,0.0,2.9389,2.9214,3.0316,3.2138,3.4196,3.6849,3.9309,4.1894,4.4031,4.5084,4.5125,4.3995,4.3768,4.2752,3.9741,4.0515,4.0478,3.8247,3.636,3.5027,3.3675,3.3396,3.3029,3.2853,3.3643,3.3919,3.3919,3.3258,3.3356,3.4192,3.3021,3.2564,3.2272,3.1549,3.0895,3.0008,2.9298,2.8915,2.8585,2.8019,2.7633,2.7484,2.7633,2.7508,2.7218,2.7218,2.7094,2.7098,2.8934,2.9541,2.9191,2.9201,2.9182,2.9408,2.9418,2.9418,2.9399,2.9199,2.9142,2.9094,2.8903,2.7826,2.6832,2.6087,2.5055,2.4227,2.4098,2.4983,2.6098,2.6823,2.7971,2.8605,2.8543,2.853,2.829,2.806,3.0047,3.2332,3.4412,3.4736,3.3759,3.095,3.0498,2.9446,2.6493,2.6062,2.4911,2.2004,2.1234,1.9593,1.6927,1.6578,1.6503,1.6524,1.6503,1.6503,1.6524,1.6524,1.6524,1.6524,1.6524,1.6592,1.6727,1.6741,1.6741,3.4193,3.3776,3.3465,3.3535,3.4158,3.4147,3.154,3.2366,3.3237,3.1782,3.4906,3.7962,3.8995,4.0769,4.2813,4.4972,4.3664,4.2735,4.3532,4.179,3.9656,3.7122,3.6947,3.6859,3.5803,3.4455,3.3342,3.2788,3.2779,3.2759,3.2654,3.2924,3.2944,3.2944,3.274,3.2497,3.2488,3.2036,3.1214,3.0354,3.0274,2.9629,2.8396,2.8594,2.822,2.7832,2.756,2.7231,2.7167,2.7248,2.7183,2.7037,2.6931,2.6785,2.6574,2.6387,2.6265,2.5942,2.5673,2.5525,2.5619,2.6382,2.663,2.6604,2.6151,2.5854,2.5795,2.4616,2.3803,2.2777,2.2286,2.1273,2.0732,2.1356,2.1625,2.2344,2.4966,2.5579,2.6155,2.7668,2.7626,2.7416,2.7175,2.8091,2.8978,3.0072,3.1533,3.194,3.0752,2.9158,2.7042,2.3915,2.2096,2.0468,1.9235,1.8798,1.8252,1.7005,1.687,1.6788,1.6788,1.6788,1.6788,1.6788,1.6788,1.6788,1.6788,1.6788,1.6822,1.6883,1.6883,1.6931,3.4551,3.4785,3.4827,3.5003,3.62,3.6648,3.3646,3.5099,3.6651,3.4789,3.7808,4.0811,4.0798,4.228,4.3609,4.4361,4.2682,4.1335,4.1689,3.9338,3.676,3.4699,3.3768,3.3436,3.3645,3.2721,3.2291,3.2366,3.2366,3.2366,3.2366,3.2366,3.2366,3.2366,3.2366,3.2083,3.1214,3.1214,3.0363,2.8949,2.9527,2.8873,2.7613,2.818,2.8097,2.7418,2.7418,2.7418,2.7418,2.7418,2.7402,2.7337,2.7207,2.7012,2.6518,2.4336,2.3701,2.3613,2.3068,2.2608,2.2652,2.367,2.3899,2.3837,2.2897,2.2559,2.2237,2.1068,2.0004,1.9248,1.8746,1.7975,1.7685,1.9038,1.8924,1.9502,2.2842,2.307,2.3285,2.5346,2.5305,2.5095,2.5158,2.5423,2.5952,2.5952,2.7402,2.8663,2.8663,2.6196,2.3621,2.1285,1.917,1.7704,1.7555,1.7405,1.7297,1.7256,1.7161,1.71,1.71,1.71,1.708,1.7039,1.7039,1.7019,1.6978,1.6978,1.6998,1.7039,1.7039,1.7093,3.3006,3.3578,3.4096,3.4564,3.535,3.5773,3.5679,3.6168,3.7358,3.959,4.0465,4.1177,4.2052,4.4002,4.4804,4.1572,4.2469,4.2221,3.7918,3.6432,3.4668,3.1971,3.1072,3.0921,3.1119,3.1686,3.214,3.2338,3.2366,3.2366,3.2366,3.2366,3.2366,3.2366,3.2366,3.2083,3.1214,3.1214,3.0363,2.8949,2.8949,2.8672,2.78,2.78,2.7784,2.7784,2.7784,2.7784,2.7784,2.7784,2.7694,2.7548,2.7524,2.7313,2.6719,2.3634,2.3235,2.3517,2.2187,2.155,2.1408,2.1408,2.1306,2.1157,2.0234,2.0077,1.9683,1.8777,1.7732,1.6717,1.6717,1.5689,1.4873,1.6659,1.7096,1.753,1.9481,1.966,1.9447,1.9427,1.92,1.8987,1.8987,2.1362,2.303,2.303,2.2861,2.2751,2.2751,2.0312,1.8534,1.8534,1.8165,1.8023,1.786,1.7717,1.7568,1.7419,1.7412,1.7405,1.7405,1.7405,1.7338,1.7188,1.7182,1.7121,1.6978,1.6978,1.7053,1.7182,1.7182,1.7188,3.2807,3.4662,3.6637,3.7869,3.8926,3.975,3.9207,3.9366,3.9733,3.9228,3.9254,3.928,3.9398,3.9304,3.9157,3.9477,3.7776,3.65,3.6496,3.4626,3.2716,3.1072,3.1119,3.1062,3.0741,3.1138,3.161,3.2111,3.2291,3.2414,3.2565,3.1985,3.1709,3.1709,3.1296,3.0363,2.9803,2.9803,2.9225,2.8085,2.8085,2.8102,2.78,2.78,2.78,2.78,2.78,2.78,2.78,2.78,2.7759,2.7694,2.7589,2.6831,2.5484,2.3412,2.2007,2.085,1.8857,1.7875,1.7174,1.7174,1.7092,1.6962,1.6586,1.6474,1.6345,1.5977,1.5183,1.4415,1.4415,1.3651,1.3354,1.4745,1.565,1.6812,1.812,1.8914,1.9481,1.9379,1.9271,1.9169,1.9081,1.9939,2.0372,2.0372,2.1772,2.1961,2.0385,1.9205,1.8498,1.8606,1.8477,1.8287,1.8036,1.788,1.7717,1.7582,1.7473,1.7419,1.7419,1.7324,1.7243,1.7195,1.71,1.7026,1.6978,1.6978,1.7053,1.7195,1.7195,1.7304,3.3534,3.5592,3.8257,4.0285,4.1733,4.244,4.1034,4.1122,4.1007,3.8842,3.8177,3.7542,3.689,3.6277,3.6225,3.6488,3.4624,3.376,3.5098,3.2991,3.1412,3.0968,3.1015,3.0968,3.0647,3.0845,3.1289,3.1988,3.2234,3.2461,3.2659,3.2162,3.193,3.193,3.122,3.0289,2.9438,2.9067,2.8739,2.78,2.78,2.78,2.78,2.78,2.78,2.78,2.78,2.78,2.78,2.78,2.78,2.7776,2.6747,2.572,2.4711,2.2315,2.0418,1.8788,1.7025,1.605,1.5364,1.5053,1.4967,1.4867,1.4505,1.4392,1.404,1.3718,1.3443,1.3181,1.3181,1.2675,1.2641,1.4032,1.5179,1.632,1.7429,1.8742,1.9556,1.9447,1.9379,1.9325,1.9217,1.9203,1.9203,1.9203,2.0481,2.075,1.9125,1.883,1.8816,1.8905,1.8776,1.8599,1.8355,1.8199,1.8023,1.7826,1.7717,1.7629,1.7582,1.7433,1.7331,1.7277,1.7127,1.7032,1.6978,1.7032,1.7127,1.7277,1.7331,1.6805,3.4665,3.6766,3.8598,4.134,4.3211,4.3547,4.1546,4.1167,4.0898,3.8571,3.7262,3.6162,3.4285,3.53,3.5461,3.253,3.3372,3.3873,3.3151,3.1809,3.0939,3.1119,3.0817,3.0637,3.0817,3.0845,3.1195,3.2036,3.2262,3.2461,3.2688,3.2905,3.3009,3.3009,3.2114,3.1255,3.0658,2.9609,2.8561,2.7824,2.7824,2.78,2.78,2.78,2.78,2.78,2.78,2.78,2.78,2.78,2.78,2.7507,2.5035,2.4583,2.4438,2.0641,1.8475,1.7416,1.6757,1.6377,1.6,1.5081,1.4977,1.4612,1.3984,1.3615,1.3272,1.277,1.2507,1.2507,1.2507,1.2507,1.2729,1.3815,1.5189,1.6331,1.7453,1.8671,1.9447,1.9447,1.9325,1.9217,1.9217,1.9217,1.9217,1.9217,1.9217,1.9217,1.9217,1.9217,1.9217,1.9217,1.9081,1.8938,1.8782,1.862,1.8389,1.8111,1.8091,1.8023,1.786,1.7717,1.7575,1.7426,1.727,1.7121,1.6978,1.7121,1.727,1.7203,1.7358,1.587,3.5128,3.7689,4.0494,4.3323,4.3338,4.2515,4.2215,3.9356,3.6601,3.5605,3.2837,3.061,2.9977,3.0299,3.042,3.03,3.1432,3.2392,3.2721,3.2411,3.2036,3.1639,3.161,3.1268,3.0467,3.1268,3.1718,3.1829,3.1774,3.2171,3.3113,3.2153,3.1622,3.1479,3.0456,2.9788,2.8917,2.8578,2.8463,2.8011,2.8011,2.793,2.78,2.78,2.78,2.78,2.78,2.78,2.78,2.78,2.78,2.7507,2.5035,2.3459,2.2168,1.9507,1.7367,1.6051,1.5122,1.4471,1.384,1.3472,1.337,1.3294,1.3008,1.2887,1.2779,1.258,1.256,1.2507,1.2507,1.2547,1.2572,1.2975,1.4598,1.6217,1.6435,1.8151,1.961,1.961,1.9576,1.9535,1.9535,1.9535,1.9535,1.9535,1.9535,1.9501,1.9393,1.9379,1.9379,1.9379,1.9237,1.904,1.8782,1.8531,1.8287,1.8111,1.7989,1.7901,1.786,1.7717,1.7575,1.7426,1.727,1.7121,1.6978,1.7121,1.6188,1.415,1.4266,1.2822,3.6003,3.8349,4.0899,4.4123,4.3747,4.1943,4.0442,3.7104,3.3923,3.1919,2.9422,2.7639,2.7725,2.7513,2.8046,2.9466,3.0453,3.1266,3.2452,3.2535,3.2338,3.2159,3.1961,3.1688,3.1558,3.1763,3.2134,3.2737,3.2515,3.2524,3.3538,3.2582,3.2043,3.1945,3.0639,2.9618,2.8572,2.8507,2.8377,2.8182,2.8125,2.8019,2.793,2.7841,2.78,2.78,0.0,2.78,2.78,2.78,2.78,2.7482,2.4111,2.2254,2.1316,1.7763,1.6243,1.5567,1.4588,1.3953,1.3621,1.2952,1.2874,1.2821,1.278,1.2699,1.2633,1.2674,1.2654,1.2625,1.2625,1.2654,1.2674,1.258,1.4477,1.6115,1.5403,1.7613,1.9732,1.9678,1.9712,1.9752,1.9752,1.98,1.9854,1.9854,1.9854,1.982,1.9732,1.961,1.9535,1.9535,1.9393,1.9203,1.8972,1.8742,1.8498,1.8213,1.8111,1.8002,1.786,1.7717,1.7609,1.7521,1.7372,1.7256,1.7175,1.6018,1.4599,1.3134,1.1919,0.9783,3.7228,3.9086,4.084,4.4367,4.3755,4.1275,3.7529,3.4631,3.1936,2.8223,2.6681,2.6196,2.667,2.646,2.7052,2.9331,2.9707,3.05,3.2343,3.2287,3.2338,3.2716,3.2227,3.205,3.2804,3.2561,3.251,3.3647,3.3357,3.3301,3.3629,3.2974,3.2783,3.2765,3.1225,2.9862,2.8929,2.8758,2.8563,2.8377,2.823,2.8125,2.8076,2.7906,2.7824,2.78,2.78,2.7824,2.7841,2.78,2.7824,2.7237,2.261,2.1072,2.1022,1.6322,1.4845,1.5346,1.4345,1.4265,1.3944,1.3229,1.2907,1.2895,1.2813,1.278,1.2772,1.278,1.278,1.2772,1.2772,1.2772,1.2748,1.2674,1.4327,1.5746,1.4826,1.7304,1.9635,1.9746,1.982,1.9908,1.9908,2.001,2.0098,2.0098,2.0098,2.0098,2.0098,1.9854,1.9698,1.9698,1.9535,1.9359,1.9217,1.9061,1.8776,1.8355,1.8301,1.8158,1.788,1.7738,1.767,1.765,1.7521,1.7224,1.6766,1.4271,1.2787,1.1905,0.9569,0.6706,4.0601,4.2065,4.2668,4.5191,4.2586,3.924,3.6961,3.288,2.8901,2.6764,2.5572,2.5195,2.5679,2.6155,2.7074,2.8885,3.0062,3.1237,3.2078,3.2612,3.3085,3.316,3.3482,3.3413,3.286,3.3304,3.3835,3.3494,3.3448,3.3366,3.3274,3.2108,3.1317,3.1163,3.0094,2.9319,2.9099,2.9059,2.8888,2.8563,2.8523,2.8352,2.8076,2.8036,2.7954,2.78,2.78,0.0,2.8019,2.7865,2.7889,2.7708,2.3341,2.1444,2.0195,1.6115,1.4291,1.3596,1.3575,1.3466,1.3316,1.2939,1.2907,1.2907,1.2886,1.2833,1.2792,1.2866,1.2833,1.2772,1.2772,1.2772,1.2772,1.2748,1.3912,1.4836,1.4686,1.6745,1.8699,1.9809,2.0051,2.0064,2.0064,2.0085,2.0098,2.0098,2.0098,2.0098,2.0098,1.9942,1.9841,1.9841,1.959,1.9359,1.9217,1.8959,1.8654,1.8335,1.8199,1.8057,1.786,1.7846,1.7772,1.765,1.7623,1.6225,1.3712,1.3398,1.0583,0.574,0.5346,0.3583,4.1804,4.2859,4.3691,4.5567,4.2297,3.8082,3.587,3.1332,2.6875,2.4969,2.4312,2.4258,2.4861,2.5535,2.6447,2.7576,2.936,3.0622,3.1372,3.2384,3.3351,3.3491,3.3591,3.3517,3.3619,3.3722,3.3917,3.4242,3.3936,3.3539,3.3348,3.2083,3.0916,3.0442,3.0046,2.9562,2.9286,2.9181,2.901,2.8758,2.8653,2.8523,2.8352,2.8165,2.8036,2.7954,2.7954,0.0,2.7954,2.8036,2.7436,2.6472,2.2858,2.0715,1.9168,1.5599,1.4085,1.3987,1.3562,1.3458,1.3634,1.2952,1.2907,1.2907,1.2907,1.2874,1.2854,1.2895,1.2874,1.2846,1.2846,1.2846,1.2846,1.2846,1.334,1.4306,1.6166,1.7107,1.8005,1.9674,2.0173,2.0227,2.0227,2.0275,2.0329,2.0329,2.0329,2.0329,2.0329,2.0139,1.9963,1.9875,1.9678,1.9481,1.9345,1.9115,1.8871,1.8565,1.8335,1.8145,1.7989,1.7901,1.7164,1.5527,1.5307,1.3953,1.0807,0.9307,0.7112,0.4227,0.2904,0.1346,4.3054,4.404,4.4572,4.5991,4.194,3.7193,3.4763,2.9939,2.5539,2.3634,2.3332,2.3601,2.4269,2.5119,2.5902,2.667,2.8307,2.9813,3.0505,3.209,3.3317,3.3642,3.3545,3.3814,3.4578,3.4037,3.4204,3.4828,3.3968,3.3324,3.3207,3.2079,3.0832,3.0074,3.0033,2.9822,2.9416,2.927,2.9099,2.8888,2.8734,2.8653,2.8588,2.8271,2.8125,2.8076,2.8076,2.7995,0.0,2.8165,2.7235,2.5264,2.235,2.0222,1.8079,1.5075,1.4148,1.4356,1.3575,1.3479,1.3966,1.3275,1.2939,1.2907,1.2907,1.2907,1.2907,1.2907,1.2907,1.2907,1.2907,1.2895,1.2874,1.2874,1.2948,1.3969,1.7416,1.7225,1.7241,1.9793,2.0295,2.0383,2.0383,2.0471,2.0539,2.0539,2.0539,2.0539,2.0539,2.0315,2.0085,1.9942,1.9766,1.959,1.9447,1.9291,1.9081,1.8782,1.8477,1.8247,1.8091,1.7268,1.585,1.3389,1.2728,1.0937,0.8042,0.5603,0.4259,0.3583,0.1124,0.0,4.6078,4.6442,4.6325,4.5977,4.1458,3.6614,3.4176,2.9391,2.5044,2.3138,2.3095,2.3548,2.4054,2.5141,2.6084,2.6408,2.7752,2.8951,2.9914,3.11,3.2366,3.351,3.4323,3.4795,3.4823,3.5003,3.48,3.4212,3.2846,3.2068,3.2247,3.1155,3.0439,3.0439,3.0285,2.9944,2.9416,2.9392,2.9229,2.8888,2.8864,2.8783,2.8612,2.8393,2.823,2.8076,2.8076,2.8076,0.0,2.8076,2.7219,2.5418,2.2978,2.0454,1.7967,1.5688,1.4161,1.3454,1.3421,1.3307,1.3172,1.3148,1.3033,1.2907,1.2907,1.2907,1.2907,1.2907,1.2907,1.2907,1.2907,1.2846,1.278,1.278,1.2854,1.3663,1.6319,1.688,1.7649,2.0084,2.0505,2.0526,2.0526,2.0539,2.0539,2.0539,2.0539,2.0539,2.0539,2.0397,2.0241,2.0098,1.9834,1.959,1.9447,1.9291,1.9081,1.8782,1.8477,1.8247,1.8091,1.5249,1.3616,1.3389,1.071,0.7819,0.4923,0.4736,0.3159,0.0449,0.0226,0.0,4.5699,4.6738,4.6849,4.4738,4.0655,3.6343,3.2798,2.8403,2.4678,2.3203,2.3052,2.3289,2.3623,2.4234,2.4615,2.4861,2.5995,2.7193,2.8064,2.953,3.1219,3.2744,3.3557,3.4152,3.4805,3.4725,3.4023,3.3646,3.2587,3.2035,3.2009,3.09,3.0439,3.0334,3.0163,2.9839,2.9416,2.9311,2.9116,2.8888,2.8888,2.8848,2.8783,2.8588,2.8458,2.8401,2.8401,2.7746,0.0,2.688,2.5407,2.2975,2.1076,1.8887,1.6731,1.4893,1.3917,1.3507,1.3401,1.3315,1.3233,1.3127,1.3042,1.298,1.2927,1.2907,1.2907,1.2907,1.2907,1.2907,1.2907,1.2846,1.278,1.2846,1.2919,1.3732,1.6104,1.6962,1.7768,2.0137,2.0539,2.0539,2.0539,2.0539,2.0539,2.0539,2.0539,2.0539,2.0539,2.0417,2.0309,2.0241,1.9963,1.9732,1.959,1.9345,1.9149,1.9027,1.8654,1.7459,1.5485,1.4231,1.1893,0.8045,0.693,0.4709,0.1807,0.1813,0.1137,0.0,0.0,0.0,4.4923,4.6387,4.6566,4.3664,3.9853,3.5655,3.1602,2.7509,2.428,2.3171,2.3052,2.3026,2.3009,2.3483,2.3632,2.3481,2.4615,2.5919,2.6777,2.8217,2.9855,3.1773,3.2262,3.2933,3.3926,3.3743,3.3714,3.3556,3.2811,3.2187,3.2009,3.09,3.0375,3.0139,3.0074,2.9798,2.9335,2.927,2.9116,2.8888,2.8823,2.8848,2.8888,2.8628,2.8563,2.8612,2.8612,2.7628,0.0,2.6124,2.4021,2.0655,1.9315,1.7737,1.5601,1.4302,1.3621,1.3515,1.3389,1.3327,1.3287,1.316,1.3086,1.3033,1.2968,1.2927,1.2907,1.2907,1.2907,1.2907,1.2907,1.2846,1.2792,1.2886,1.296,1.3741,1.6104,1.6709,1.778,2.0137,2.0539,2.0539,2.0539,2.0539,2.0539,2.0539,2.0539,2.0539,2.0539,2.0451,2.0383,2.0329,2.0098,1.9888,1.9732,1.9447,1.9257,1.9203,1.7872,1.6193,1.3963,1.1829,0.882,0.4493,0.3604,0.2039,0.0,0.0,0.0,0.0,0.0,0.0,4.4119,4.5538,4.561,4.3233,3.9105,3.4823,3.0998,2.6999,2.3849,2.2891,2.3063,2.3041,2.2148,2.3056,2.3616,2.2516,2.3846,2.5409,2.6252,2.7348,2.8473,2.9749,3.0448,3.1138,3.1988,3.2878,3.3877,3.447,3.3119,3.2187,3.2009,3.09,3.031,2.9968,3.0115,2.9887,2.914,2.9335,2.9229,2.8888,2.8693,2.8718,2.8864,2.8507,2.8442,2.8612,2.8612,0.0,0.0,2.6005,2.3578,1.9937,1.8815,1.6933,1.4836,1.3896,1.3527,1.3442,1.3442,1.338,1.3307,1.3307,1.3189,1.3042,1.3042,1.298,1.2907,1.2907,1.2907,1.2907,1.2907,1.2846,1.2792,1.2886,1.2907,1.3654,1.6094,1.6907,1.7666,2.0117,2.0539,2.0539,2.0539,2.0539,2.0539,2.0539,2.0539,2.0539,2.0539,2.0539,2.0485,2.0349,2.0187,2.0031,1.9888,1.961,1.9359,1.9217,1.608,1.3955,1.3746,0.7787,0.4572,0.4532,0.1602,0.0,0.0,0.0,0.0,0.0,0.0,0.0,3.9729,4.1411,4.1675,3.7635,3.5219,3.2553,2.8186,2.5604,2.3507,2.2174,2.1988,2.1954,2.1571,2.183,2.2402,2.3275,2.3798,2.4296,2.4946,2.8099,3.0618,3.1908,3.4023,3.4558,3.2117,3.2362,3.2492,3.217,3.1619,3.1195,3.09,3.0826,3.031,2.9968,2.9887,2.9627,2.914,2.9205,2.9116,2.8888,2.8823,2.8823,2.8888,2.8758,2.8734,2.8799,2.7608,0.0,0.0,2.3114,2.099,1.8294,1.7402,1.6415,1.5505,1.4204,1.3515,1.3442,1.3442,1.3421,1.3389,1.3327,1.3266,1.3213,1.3148,1.3021,1.2907,1.2907,1.2907,1.2907,1.2907,1.2846,1.2792,1.2886,1.2418,1.2927,1.6104,1.644,1.6978,1.9874,2.0539,2.0539,2.0539,2.0539,2.0539,2.0539,2.0539,2.0539,2.0539,2.0539,2.0526,2.0471,2.0241,2.0031,1.9888,1.961,1.8439,1.6209,1.4849,1.2302,0.7688,0.5591,0.3708,0.1374,0.046,0.0,0.0,0.0,0.0,0.0,0.0,0.0,3.6763,3.8675,3.8769,3.4437,3.2673,3.0913,2.6438,2.4245,2.2653,2.1751,2.1283,2.1077,2.0856,2.1036,2.1726,2.2736,2.3209,2.3956,2.5317,2.8467,3.1353,3.2848,3.5154,3.5213,3.1932,3.2251,3.2213,3.152,3.1553,3.142,3.0504,3.0415,3.018,2.9757,2.9692,2.9506,2.914,2.914,2.9059,2.8888,2.8823,2.8823,2.8888,2.8823,2.8495,2.7896,0.0,0.0,0.0,2.0703,1.9157,1.6764,1.5903,1.5491,1.5156,1.3908,1.3548,1.3495,1.3495,1.3495,1.3474,1.3389,1.3336,1.3287,1.3201,1.3095,1.3001,1.3001,1.3001,1.3001,1.3001,1.2939,1.2886,1.2948,1.2707,1.3187,1.6104,1.6414,1.6924,1.9861,2.0539,2.0539,2.0539,2.0539,2.0539,2.0539,2.0539,2.0539,2.0539,2.0539,2.0539,2.0539,2.0329,2.0119,1.9976,1.8447,1.6807,1.4562,1.2082,0.8867,0.4956,0.3552,0.1888,0.0,0.0,0.0,0.0,0.0,0.0,0.0,0.0,0.0,0.0,3.6905,3.675,3.312,3.1458,2.9695,2.5572,2.3091,0.0,2.1189,2.0783,2.0365,1.9825,2.0686,2.1423,2.1486,2.2562,2.4381,2.6493,2.9095,3.1237,3.2504,3.398,3.4085,3.1519,3.2921,3.321,3.1992,3.2639,3.2553,3.0464,3.031,2.9993,2.9473,2.9587,2.9481,2.9116,2.914,2.9059,2.8888,2.8718,2.8718,2.8888,2.8415,2.7429,0.0,0.0,0.0,0.0,1.8821,1.7264,1.5119,1.4924,1.4229,1.3601,1.3581,1.3568,1.3581,1.3568,1.3568,1.356,1.3474,1.3389,1.3295,1.3213,1.318,1.3168,1.3168,1.3168,1.3168,1.3168,1.3107,1.3054,1.3054,1.2988,1.3417,1.5852,1.6345,1.7048,1.9874,2.0312,2.0319,2.0539,2.0539,2.0539,2.0539,2.0539,2.0539,2.0539,2.0539,2.0539,2.0539,2.0417,2.0275,1.9876,1.6608,1.4446,1.4099,0.8271,0.4837,0.4291,0.1441,0.0,0.0,0.0,0.0,0.0,0.0,0.0,0.0,0.0,0.0,3.0399,0.0,3.277,2.9312,2.8207,2.7194,0.0,2.2162,2.1253,2.0157,1.9752,1.9479,1.9488,2.0028,2.0747,2.2051,2.2838,2.401,2.5841,3.0453,3.3722,3.3692,3.5604,3.565,3.1794,3.2666,3.333,3.2018,3.2333,3.156,3.0293,3.0245,2.9797,2.8903,2.8675,2.8701,2.8953,2.9075,2.9059,2.8888,2.8848,2.8848,2.888,2.643,2.5157,0.0,0.0,0.0,1.7344,1.5858,1.4642,1.3384,1.3781,1.4025,1.3756,1.3548,1.3515,1.3568,1.3495,1.3474,1.3474,1.3454,1.3434,1.3409,1.3389,1.3287,1.3168,1.3168,1.3168,1.3168,1.3168,1.316,1.314,1.314,1.2352,1.2067,1.4049,1.3797,1.4013,1.7592,1.8284,1.8742,2.0332,2.0539,2.0539,2.0539,2.0539,2.0539,2.0539,2.0539,2.0539,2.0539,2.0417,1.929,1.6463,1.5487,1.3825,1.1023,0.7108,0.3669,0.1213,0.0486,0.0,0.0,0.0,0.0,0.0,0.0,0.0,0.0,0.0,0.0,2.7772,2.9322,2.9968,2.672,2.5786,2.5086,2.251,2.1124,2.0276,1.9673,1.9222,1.8906,1.9358,1.9798,2.0584,2.1791,2.3096,2.5336,2.886,3.2806,3.4944,3.4095,3.6171,3.6154,3.2008,3.3242,3.3689,3.2648,3.2467,3.1663,3.0228,2.9838,2.9045,2.7869,2.777,2.7882,2.7935,2.7857,2.7771,2.7693,2.7693,2.7099,2.6185,2.4302,2.2707,0.0,0.0,0.0,1.462,1.3463,1.2834,1.2174,1.2662,1.2632,1.2625,1.2527,1.252,1.2546,1.3028,1.3231,1.3442,1.3442,1.3442,1.3442,1.3442,1.3368,1.3295,1.3295,1.3295,1.3295,1.3295,1.3266,1.3233,1.3233,1.2409,1.2104,1.3604,1.3074,1.3275,1.6896,1.7598,1.8302,2.0071,2.0539,2.0539,2.0539,2.0539,2.0539,2.0539,2.0539,2.0539,2.0539,1.8925,1.7304,1.542,1.2287,0.9713,0.7661,0.444,0.1969,0.0,0.0,0.0,0.0,0.0,0.0,0.0,0.0,0.0,0.0,0.0,0.0,2.6066,2.75,2.7891,2.5251,2.4201,2.3354,2.1679,2.0133,1.9323,1.956,1.9024,1.8655,1.9384,2.0159,2.0636,2.1265,2.3769,2.7186,3.197,3.4187,3.4788,3.3778,3.5635,3.5634,3.2432,3.3485,3.3843,3.2858,3.2562,3.1434,2.9862,2.9108,2.7953,2.6745,2.6841,2.6819,2.6664,2.6683,2.6229,2.5938,2.5902,2.4683,2.2278,2.1874,1.9663,1.6291,0.0,0.0,1.2522,1.1654,1.1317,1.125,1.125,1.1217,1.1164,1.1494,1.1514,1.1514,1.2002,1.2723,1.3159,1.3163,1.3163,1.3163,1.3442,1.3442,1.3442,1.3442,1.3442,1.3442,1.3442,1.3389,1.3327,1.3051,1.244,1.2097,1.3107,1.2819,1.3275,1.6677,1.7382,1.8078,2.009,2.0539,2.0539,2.0539,2.0539,2.0278,1.9776,1.977,1.9509,1.8988,1.6429,1.4305,1.3622,0.8309,0.477,0.4241,0.1487,0.0,0.0,0.0,0.0,0.0,0.0,0.0,0.0,0.0,0.0,0.0,0.0,0.0,2.4826,2.5908,2.6847,2.4648,2.3686,2.3053,2.1349,2.0176,1.9578,1.9952,1.9314,1.9026,2.0141,2.0664,2.1293,2.2276,2.5231,2.7793,2.8884,3.1577,3.2881,3.1364,3.3499,3.4519,3.3226,3.3359,3.2934,3.1846,3.0547,2.921,2.7827,2.7804,2.7091,2.6281,2.6166,2.5741,2.468,2.6135,2.5792,2.3663,2.3537,2.229,1.9876,1.6871,1.5877,1.5406,0.0,1.0607,1.0785,0.9906,0.9584,0.9528,1.0387,1.0668,1.0646,1.1114,1.1398,1.1436,1.1286,1.1508,1.177,1.2325,1.2604,1.2608,1.3163,1.3442,1.3442,1.3442,1.3442,1.3442,1.3442,1.3434,1.3143,1.2589,1.2013,1.1174,1.0882,1.0043,1.0789,1.4522,1.5252,1.644,1.9861,2.0539,2.0539,2.0539,2.0539,1.9509,1.6689,1.6168,1.5143,1.2059,1.1296,1.0005,0.6924,0.5577,0.3778,0.1008,0.0249,0.0,0.0,0.0,0.0,0.0,0.0,0.0,0.0,0.0,0.0,0.0,0.0,0.0,2.3961,2.3855,2.3381,2.2839,2.3655,2.4221,2.2848,2.2131,2.1389,2.1112,2.0658,2.0426,2.0499,2.1357,2.286,2.543,2.6922,2.8277,2.9579,3.1004,3.1759,3.1364,3.3295,3.4009,3.2398,3.2644,3.2156,3.0832,2.9496,2.8483,2.7488,2.7084,2.6353,2.528,2.5204,2.4804,2.4351,2.3729,2.2767,2.1791,2.173,1.9604,1.5994,1.4442,1.3164,1.2161,0.0,0.9708,0.9912,0.933,0.9292,0.9237,0.9528,0.9793,0.9759,0.9985,1.0549,1.0852,1.0742,1.0958,1.1208,1.1491,1.177,1.1763,1.2042,1.2604,1.2887,1.2887,1.3159,1.3442,1.3442,1.3442,1.3163,1.2604,1.177,1.0925,1.0369,0.9536,1.0281,1.4035,1.4757,1.5944,1.9874,2.0539,2.0539,2.0539,2.0539,1.9248,1.5924,1.5403,1.4117,1.0787,0.874,0.6929,0.5117,0.3308,0.1767,0.0,0.0,0.0,0.0,0.0,0.0,0.0,0.0,0.0,0.0,0.0,0.0,0.0,0.0,0.0,2.3093,2.2447,2.1479,2.18,2.3221,2.433,2.3764,2.3354,2.2767,2.2422,2.2412,2.2278,2.129,2.2491,2.4433,2.754,2.7972,2.8436,3.028,3.0648,3.0475,3.0886,3.2232,3.2536,3.1189,3.1282,3.0999,2.9456,2.8406,2.7414,2.6791,2.604,2.5267,2.4507,2.3901,2.3525,2.3388,2.0966,1.9704,1.9604,1.8978,1.6553,1.2342,1.2279,1.1325,0.9488,0.9439,0.9384,0.9327,0.9327,0.9286,0.9215,0.9229,0.9196,0.9134,0.9134,0.9405,0.9953,0.9908,1.0129,1.0645,1.0925,1.0925,1.0925,1.1208,1.1487,1.1763,1.2325,1.2608,1.288,1.3442,1.3442,1.3163,1.2325,1.1473,1.0908,1.0089,0.9518,0.9994,1.3523,1.4508,1.5954,1.9138,1.9528,1.9255,1.9255,1.8739,1.6933,1.3354,1.3094,1.1555,0.8224,0.5401,0.385,0.3824,0.1528,0.0,0.0,0.0,0.0,0.0,0.0,0.0,0.0,0.0,0.0,0.0,0.0,0.0,0.0,0.0,0.0,2.1525,2.2631,2.3486,2.2997,2.191,2.1481,2.244,2.2359,2.2051,2.3247,2.3937,2.3926,2.2812,2.3786,2.5184,2.6701,2.8057,2.8746,2.8061,2.9028,2.9432,2.7913,2.8929,2.9521,2.9751,2.8402,2.7571,2.7563,2.604,2.5106,2.5106,2.4962,2.4514,2.4365,2.2227,2.0948,2.0825,1.8421,1.7215,1.7215,1.4713,1.2251,0.9815,0.9815,0.9778,0.9425,0.942,0.9384,0.9327,0.9327,0.9259,0.9166,0.9215,0.9166,0.9068,0.9068,0.9036,0.8987,0.8978,0.9253,0.9253,1.0089,1.0089,1.0372,1.0925,1.0645,1.0652,1.2042,1.1763,1.177,1.3159,1.3442,1.3159,1.1491,1.1157,1.0848,0.9239,0.8929,0.9402,1.1702,1.3481,1.5454,1.7461,1.6772,1.5663,1.5663,1.3094,0.9762,0.6174,0.5915,0.4631,0.1032,0.0516,0.0257,0.0255,0.0254,0.0,0.0,0.0,0.0,0.0,0.0,0.0,0.0,0.0,0.0,0.0,0.0,0.0,0.0,0.0,0.0,2.0836,2.2039,2.3115,2.2407,2.2845,2.3658,2.4939,2.5106,2.4967,2.513,2.5508,2.544,2.4585,2.5538,2.6403,2.6322,2.6959,2.7364,2.7326,2.7923,2.8486,2.8238,2.8905,2.8889,2.8168,2.7435,2.6892,2.5564,2.5037,2.4758,2.465,2.4507,2.3795,2.2227,2.122,1.9921,1.8297,1.5908,1.4658,1.455,1.3733,1.1943,0.951,0.951,0.9474,0.942,0.942,0.9384,0.9327,0.9286,0.9224,0.9147,0.909,0.9068,0.9055,0.9022,0.9014,0.9022,0.8987,0.8973,0.8973,0.9253,0.8973,0.869,0.8973,0.897,0.8965,1.0372,1.0928,1.1491,1.3159,1.3159,1.2585,1.1424,1.0839,1.0274,0.9188,0.8622,0.8293,0.898,0.9975,1.0925,1.1708,1.1862,1.2319,1.2319,1.1036,0.899,0.5664,0.5147,0.3862,0.0258,0.0,0.0,0.0,0.0,0.0,0.0,0.0,0.0,0.0,0.0,0.0,0.0,0.0,0.0,0.0,0.0,0.0,0.0,0.0,0.0,2.0643,2.1223,2.207,2.2409,2.3158,2.4436,2.6275,2.6614,2.62,2.5949,2.5632,2.5777,2.5676,2.606,2.6372,2.623,2.6446,2.6674,2.6719,2.7201,2.7412,2.7003,2.7342,2.7305,2.6215,2.608,2.5819,2.4494,2.4596,2.4582,2.444,2.4277,2.2978,2.052,1.9831,1.7958,1.5805,1.3134,1.1882,1.1759,1.1837,1.0961,0.9455,0.9455,0.9433,0.939,0.939,0.9371,0.9322,0.9265,0.9196,0.9112,0.9014,0.9,0.9027,0.8987,0.9,0.9027,0.8987,0.897,0.869,0.869,0.8135,0.7573,0.7573,0.729,0.7286,0.897,0.981,1.0925,1.2042,1.2325,1.2024,1.1109,1.0265,0.9699,0.8306,0.7483,0.663,0.5984,0.6213,0.6949,0.7053,0.7508,0.8243,0.8483,0.7708,0.6174,0.3862,0.3605,0.2575,0.0257,0.0,0.0,0.0,0.0,0.0,0.0,0.0,0.0,0.0,0.0,0.0,0.0,0.0,0.0,0.0,0.0,0.0,0.0,0.0,0.0,2.0776,2.0423,2.0779,2.3108,2.2867,2.2803,2.5918,2.5666,2.4985,2.5281,2.4458,2.4129,2.5636,2.5221,2.5033,2.6173,2.6817,2.6986,2.6329,2.644,2.5913,2.3932,2.3944,2.4121,2.4121,2.4263,2.4351,2.4351,2.4351,2.4277,2.4121,2.3978,2.2642,2.0133,1.7774,1.5415,1.3055,1.0696,0.9474,0.942,0.9357,0.9327,0.9327,0.9327,0.9327,0.9327,0.9327,0.9327,0.9322,0.9259,0.9166,0.9055,0.8992,0.8973,0.8973,0.8973,0.8973,0.8973,0.8973,0.841,0.7853,0.7853,0.729,0.673,0.673,0.6168,0.5891,0.7286,0.8408,0.9244,0.981,1.1208,1.1745,1.0284,0.9988,0.9414,0.7149,0.5519,0.3865,0.245,0.2712,0.3498,0.4746,0.3915,0.3371,0.4893,0.2062,0.0,0.0,0.0,0.0,0.0,0.0,0.0,0.0,0.0,0.0,0.0,0.0,0.0,0.0,0.0,0.0,0.0,0.0,0.0,0.0,0.0,0.0,0.0,0.0,0.0,2.0308,2.1383,2.2566,2.2857,2.3779,2.4798,2.5592,2.5526,2.5518,2.6186,2.6756,2.6805,2.5346,2.608,2.6339,2.5428,2.4804,2.485,2.5408,2.4809,2.415,2.4368,2.3987,2.3802,2.3802,2.3944,2.3978,2.389,2.3978,2.3965,2.3822,2.229,2.0174,1.7774,1.5415,1.3029,1.0623,0.9736,0.939,0.9292,0.9273,0.9265,0.9265,0.9224,0.9202,0.9202,0.9202,0.9202,0.9202,0.9139,0.9068,0.9,0.8978,0.869,0.8135,0.8135,0.7853,0.729,0.729,0.729,0.701,0.701,0.701,0.6728,0.6172,0.5891,0.5611,0.5606,0.5888,0.6444,0.5602,0.6158,0.6978,0.8285,0.6857,0.5193,0.4365,0.2457,0.0273,-0.1368,-0.1357,-0.1343,-0.1593,-0.105,-0.026,0.1291,0.0774,0.0,0.0,0.0,0.0,0.0,0.0,0.0,0.0,0.0,0.0,0.0,0.0,0.0,0.0,0.0,0.0,0.0,0.0,0.0,0.0,0.0,0.0,0.0,0.0,0.0,2.0371,2.1585,2.2984,2.3391,2.4089,2.487,2.5284,2.5395,2.5432,2.5742,2.6669,2.6695,2.5033,2.5734,2.6243,2.5248,2.4269,2.4051,2.4532,2.4182,2.3779,2.4001,2.3877,2.368,2.368,2.3754,2.3768,2.368,2.37,2.336,2.2339,2.0816,1.8427,1.5176,1.3726,1.1671,0.9314,0.9314,0.9278,0.9202,0.918,0.9166,0.9166,0.9161,0.9153,0.9153,0.9153,0.9139,0.9112,0.9076,0.9027,0.8973,0.8973,0.869,0.8135,0.729,0.6728,0.6168,0.5326,0.4764,0.4484,0.4484,0.4204,0.3923,0.3646,0.3365,0.3365,0.2804,0.3362,0.392,0.2512,0.2509,0.3615,0.4955,0.3838,0.2187,0.1356,-0.0815,-0.2725,-0.4358,-0.488,-0.5388,-0.5335,-0.3967,-0.262,-0.1038,-0.0259,0.0,0.0,0.0,0.0,0.0,0.0,0.0,0.0,0.0,0.0,0.0,0.0,0.0,0.0,0.0,0.0,0.0,0.0,0.0,0.0,0.0,0.0,0.0,0.0,0.0,2.0856,2.1253,2.2402,2.4509,2.4084,2.3492,2.4789,2.5204,2.4999,2.481,2.4922,2.5127,2.5054,2.5042,2.5232,2.5322,2.4767,2.4507,2.4128,2.4025,2.3946,2.3368,2.3524,2.3612,2.3612,2.3612,2.3592,2.3592,2.3463,2.2159,2.0005,1.9316,1.7208,1.2842,1.2269,1.1426,0.9153,0.9153,0.9153,0.9147,0.909,0.9063,0.9055,0.9112,0.9139,0.9139,0.9139,0.9104,0.9055,0.9055,0.9019,0.869,0.869,0.841,0.8128,0.5888,0.5045,0.4764,0.2802,0.1681,0.1121,0.1121,0.0561,0.0,0.0,0.0,0.0,-0.028,0.084,0.1677,0.0,0.0,0.0553,0.055,0.0551,0.0,-0.2159,-0.3529,-0.5185,-0.6477,-0.7571,-0.7844,-0.6682,-0.5063,-0.3444,-0.209,-0.0776,0.0,0.0,0.0,0.0,0.0,0.0,0.0,0.0,0.0,0.0,0.0,0.0,0.0,0.0,0.0,0.0,0.0,0.0,0.0,0.0,0.0,0.0,0.0,0.0,0.0,2.1064,2.1615,2.2535,2.4288,2.4854,2.511,2.5181,2.5339,2.5567,2.5384,2.5924,2.5867,2.5157,2.5646,2.6395,2.614,2.5857,2.5594,2.5825,2.4777,2.4018,2.3932,2.3307,2.3029,2.3151,2.3049,2.2974,2.2974,2.1804,2.0624,1.9446,1.6578,1.428,1.2557,1.0859,0.9721,0.9153,0.9153,0.9134,0.0,0.9068,0.9036,0.8992,0.9006,0.9014,0.9014,0.9014,0.9006,0.8992,0.8992,0.786,0.6448,0.6448,0.4764,0.2804,0.2243,0.1682,0.1121,0.0561,0.028,0.028,0.028,0.0561,0.0841,0.028,0.028,0.0561,-0.1121,-0.1117,-0.0835,-0.3074,-0.333,-0.3577,-0.4671,-0.4379,-0.4082,-0.4583,-0.6203,-0.7571,-0.7324,-0.6759,-0.5928,-0.5105,-0.3208,-0.1588,-0.0519,-0.0256,0.0,0.0,0.0,0.0,0.0,0.0,0.0,0.0,0.0,0.0,0.0,0.0,0.0,0.0,0.0,0.0,0.0,0.0,0.0,0.0,0.0,0.0,0.0,0.0,0.0,2.102,2.1863,2.2807,2.42,2.5084,2.5205,2.5315,2.5615,2.5802,2.5778,2.6078,2.6289,2.5567,2.61,2.6582,2.594,2.5881,2.5832,2.5446,2.4622,2.3854,2.4004,2.3397,2.2818,2.2886,2.2832,2.2489,2.1925,2.0734,1.9003,1.6737,1.4435,1.2441,1.1034,0.9631,0.9068,0.9068,0.9068,0.9049,0.9022,0.9022,0.9,0.8973,0.8973,0.8973,0.8973,0.8973,0.8973,0.8973,0.8973,0.7566,0.5606,0.5584,0.3914,0.1401,0.0559,-0.0279,-0.0561,-0.1682,-0.2243,-0.2243,-0.2243,-0.1963,-0.1682,-0.1963,-0.1963,-0.1681,-0.3073,-0.307,-0.3065,-0.4428,-0.5251,-0.5791,-0.6846,-0.6814,-0.6515,-0.6738,-0.7804,-0.8621,-0.8114,-0.6742,-0.5379,-0.5379,-0.3746,-0.2117,-0.026,-0.0514,-0.0763,0.0,0.0,0.0,0.0,0.0,0.0,0.0,0.0,0.0,0.0,0.0,0.0,0.0,0.0,0.0,0.0,0.0,0.0,0.0,0.0,0.0,0.0,0.0,0.0,2.1225,2.2379,2.3457,2.4299,2.4779,2.5225,2.5355,2.5656,2.5891,2.5891,2.6078,2.6249,2.6208,2.6379,2.6228,2.5653,2.5794,2.5692,2.4993,2.4453,2.3955,2.3854,2.3272,2.2998,2.2744,2.2696,2.2095,2.0404,1.9425,1.7125,1.3495,1.2585,1.0885,0.8938,0.8943,0.8943,0.8943,0.8951,0.8951,0.8943,0.8943,0.8943,0.8943,0.8943,0.8943,0.8957,0.8957,0.8951,0.8943,0.8943,0.7543,0.5305,0.5275,0.3611,0.1116,-0.0832,-0.1669,-0.196,-0.392,-0.4484,-0.4488,-0.4488,-0.4488,-0.4488,-0.4488,-0.4484,-0.4477,-0.4456,-0.4456,-0.4728,-0.5204,-0.6037,-0.6609,-0.7359,-0.7614,-0.7876,-0.8374,-0.8621,-0.8613,-0.8076,-0.6187,-0.484,-0.511,-0.4542,-0.3174,-0.0522,-0.1293,-0.179,-0.0252,0.0,0.0,0.0,0.0,0.0,0.0,0.0,0.0,0.0,0.0,0.0,0.0,0.0,0.0,0.0,0.0,0.0,0.0,0.0,0.0,0.0,0.0,0.0,2.2904,2.4548,2.5661,2.4528,2.4706,2.538,2.5396,2.5567,2.5721,2.5721,2.6103,2.6379,2.6233,2.6484,2.6655,2.6501,2.6349,2.6195,2.5669,2.5393,2.4895,2.3955,2.357,2.3264,2.2574,2.2357,2.137,1.9162,1.7668,1.54,1.239,1.1014,0.9915,0.8812,0.8812,0.8812,0.8812,0.8867,0.8867,0.8812,0.8812,0.8812,0.8812,0.8812,0.8845,0.8894,0.8894,0.8859,0.8812,0.8812,0.716,0.4403,0.33,0.0825,-0.1929,-0.3305,-0.3871,-0.3892,-0.417,-0.4466,-0.4488,-0.4488,-0.4488,-0.4488,-0.4488,-0.447,-0.4452,-0.4473,-0.4428,-0.4383,-0.4421,-0.5471,-0.6493,-0.6526,-0.7614,-0.8698,-0.8692,-0.8649,-0.8076,-0.6187,-0.3498,-0.1346,0.0,-0.1331,-0.1839,-0.0259,-0.1277,-0.1763,-0.0248,0.0,0.0,0.0,0.0,0.0,0.0,0.0,0.0,0.0,0.0,0.0,0.0,0.0,0.0,0.0,0.0,0.0,0.0,0.0,0.0,0.0,0.0,0.0,2.1966,2.3639,2.4917,2.4011,2.4292,2.4844,2.5063,2.525,2.5404,2.551,2.5786,2.5997,2.5932,2.6119,2.6249,2.6184,2.6403,2.6582,2.6044,2.5567,2.4835,2.408,2.3406,2.2503,2.231,2.2113,2.0882,1.7871,1.6458,1.4243,1.0973,0.9884,0.9065,0.879,0.8755,0.8755,0.879,0.8782,0.8782,0.879,0.8755,0.8741,0.8741,0.8706,0.8741,0.8831,0.8278,0.8265,0.797,0.6868,0.4943,0.247,0.1094,-0.1095,-0.3571,-0.4109,-0.4392,-0.4417,-0.4417,-0.4428,-0.4441,-0.4456,-0.4463,-0.4466,-0.4484,-0.4466,-0.4441,-0.4439,-0.441,-0.4379,-0.4368,-0.544,-0.6503,-0.6526,-0.7598,-0.8392,-0.7064,-0.678,-0.5947,-0.2421,-0.1345,-0.0808,0.0269,-0.1606,-0.2911,-0.1552,-0.2566,-0.2535,-0.0248,0.0,0.0,0.0,0.0,0.0,0.0,0.0,0.0,0.0,0.0,0.0,0.0,0.0,0.0,0.0,0.0,0.0,0.0,0.0,0.0,0.0,0.0,0.0,2.088,2.2371,2.395,2.3897,2.4011,2.4401,2.5257,2.5354,2.5144,2.5355,2.551,2.5615,2.568,2.5851,2.5997,2.5997,2.6273,2.646,2.6204,2.5489,2.4477,2.4188,2.2961,2.2318,2.2059,2.1916,2.02,1.6392,1.5553,1.3634,0.9838,0.9014,0.8741,0.872,0.8679,0.867,0.8698,0.8657,0.8665,0.872,0.8665,0.863,0.863,0.8048,0.7804,0.7888,0.7913,0.7645,0.7087,0.5449,0.3268,0.1089,-0.0542,-0.2171,-0.382,-0.4347,-0.4361,-0.439,-0.439,-0.4392,-0.4403,-0.4424,-0.4432,-0.4435,-0.4459,-0.4446,-0.4417,-0.4403,-0.439,-0.4369,-0.433,-0.5413,-0.6513,-0.6515,-0.7579,-0.8101,-0.5962,-0.4609,-0.2976,-0.0538,-0.0538,-0.0808,-0.1077,-0.3229,-0.4538,-0.3124,-0.362,-0.3578,-0.0997,-0.0248,0.0,0.0,0.0,0.0,0.0,0.0,0.0,0.0,0.0,0.0,0.0,0.0,0.0,0.0,0.0,0.0,0.0,0.0,0.0,0.0,0.0,0.0,2.0503,2.1759,2.3718,2.4552,2.3997,2.3887,2.6421,2.5863,2.4974,2.5339,2.5404,2.5461,2.5632,2.5956,2.6184,2.6184,2.6338,2.6204,2.5668,2.5388,2.4843,2.3487,2.3078,2.2701,2.1903,2.176,1.9793,1.5721,1.51,1.3179,0.8893,0.8621,0.86,0.8537,0.8537,0.851,0.8455,0.8447,0.8474,0.8537,0.8474,0.8447,0.8447,0.6331,0.5542,0.5548,0.7767,0.7248,0.5331,0.5331,0.373,0.1066,-0.0533,-0.16,-0.2404,-0.3764,-0.433,-0.4358,-0.4358,-0.4376,-0.4401,-0.4401,-0.4403,-0.4403,-0.4403,-0.4383,-0.4365,-0.4392,-0.4358,-0.432,-0.4345,-0.5413,-0.6466,-0.6466,-0.7579,-0.8134,-0.5928,-0.2152,0.0,-0.2421,-0.1346,-0.0808,-0.3498,-0.5379,-0.6156,-0.5275,-0.4684,-0.4103,-0.303,-0.1245,0.0,0.0,0.0,0.0,0.0,0.0,0.0,0.0,0.0,0.0,0.0,0.0,0.0,0.0,0.0,0.0,0.0,0.0,0.0,0.0,0.0,0.0,2.0268,2.1111,2.2214,2.1978,2.311,2.4198,2.4027,2.5076,2.5851,2.4877,2.4892,2.5144,2.5445,2.5697,2.5867,2.5867,2.6013,2.6119,2.5859,2.5038,2.4285,2.3856,2.256,2.1913,2.174,2.0723,1.8712,1.5252,1.4088,1.1927,0.8761,0.8496,0.8488,0.8469,0.8425,0.8398,0.8376,0.8412,0.8183,0.7674,0.8141,0.7328,0.5754,0.5469,0.4416,0.3379,0.42,0.3703,0.2394,0.1059,0.0,-0.1065,-0.2384,-0.3184,-0.3464,-0.4011,-0.4298,-0.4327,-0.4327,-0.4334,-0.4345,-0.4365,-0.4372,-0.4376,-0.4392,-0.4379,-0.4358,-0.4369,-0.4341,-0.4313,-0.4323,-0.5396,-0.6731,-0.7536,-0.6203,-0.4316,-0.3498,0.0,0.2424,0.0,-0.0269,-0.1077,-0.4307,-0.5917,-0.6142,-0.4957,-0.44,-0.3581,-0.1498,-0.0496,0.0,0.0,0.0,0.0,0.0,0.0,0.0,0.0,0.0,0.0,0.0,0.0,0.0,0.0,0.0,0.0,0.0,0.0,0.0,0.0,0.0,0.0,1.9261,1.9751,2.0527,2.0764,2.1804,2.2867,2.3052,2.4119,2.492,2.4172,2.4397,2.4803,2.5169,2.538,2.5526,2.5656,2.5721,2.5778,2.5569,2.4461,2.3672,2.351,2.2244,2.1333,2.1441,1.9942,1.7711,1.5073,1.3175,0.0,0.8433,0.8433,0.8425,0.8406,0.8344,0.8314,0.8314,0.8349,0.8107,0.759,0.729,0.6231,0.4412,0.3617,0.2319,0.1032,0.0259,0.0261,0.0264,-0.1055,-0.2114,-0.2919,-0.3961,-0.4233,-0.4249,-0.4249,-0.4267,-0.4296,-0.4296,-0.4302,-0.4309,-0.432,-0.433,-0.4341,-0.4352,-0.4347,-0.4341,-0.4341,-0.4323,-0.4309,-0.4309,-0.5388,-0.6731,-0.8345,-0.5919,-0.3229,-0.3229,0.0269,0.2693,0.0538,-0.1076,-0.269,-0.5919,-0.6996,-0.7219,-0.6557,-0.5451,-0.4099,-0.2511,-0.0994,0.0,0.0,0.0,0.0,0.0,0.0,0.0,0.0,0.0,0.0,0.0,0.0,0.0,0.0,0.0,0.0,0.0,0.0,0.0,0.0,0.0,-0.0496,0.0,0.0,0.0,2.1099,2.0509,2.0401,2.3805,2.3292,2.2407,2.3293,2.3934,2.4421,2.4787,2.4998,2.5225,2.5591,2.551,2.5192,2.4578,2.3929,2.3038,2.2245,2.1603,2.1001,2.1001,1.9161,1.7059,1.4962,1.2875,1.0517,0.8425,0.8425,0.8398,0.8341,0.8278,0.8251,0.8251,0.8251,0.8251,0.8251,0.6188,0.5156,0.4898,0.0774,-0.1032,-0.1289,-0.3098,-0.3109,-0.1303,-0.1051,-0.2372,-0.4218,-0.4215,-0.4218,-0.4218,-0.4218,-0.4236,-0.4264,-0.4264,-0.4281,-0.4302,-0.4274,-0.4285,-0.4302,-0.4271,-0.4285,-0.4309,-0.4309,-0.4309,-0.4309,-0.4309,-0.5384,-0.6996,-0.8337,-0.6989,-0.5374,-0.5374,-0.215,0.0269,-0.1883,-0.4034,-0.6187,-0.8345,-0.9148,-0.995,-1.0483,-0.7614,-0.5667,-0.6437,-0.2762,0.0,0.0,0.0,0.0,0.0,0.0,0.0,0.0,0.0,0.0,0.0,0.0,0.0,0.0,0.0,0.0,0.0,0.0,0.0,0.0,0.0,-0.199,1.7127,0.0,0.0,0.0,0.0,0.0,2.0465,2.2126,2.3435,2.2604,2.3187,2.3934,2.4551,2.4616,2.4722,2.5209,2.525,2.5225,2.5023,2.4354,2.351,2.2861,2.2226,2.1395,2.0987,1.855,1.6415,0.0,1.2215,0.983,0.8245,0.8202,0.821,0.8273,0.8224,0.821,0.8251,0.8251,0.7218,0.5156,0.5156,0.3353,0.0,-0.0774,-0.1805,-0.3356,-0.3873,-0.3876,-0.3367,-0.3373,-0.3657,-0.4215,-0.4173,-0.418,-0.4215,-0.4193,-0.4204,-0.4233,-0.4257,-0.4253,-0.4247,-0.426,-0.4253,-0.4242,-0.4233,-0.4253,-0.4278,-0.4278,-0.4292,-0.4307,-0.4817,-0.6123,-0.7159,-0.7691,-0.6362,-0.5301,-0.5301,-0.424,-0.3715,-0.4267,-0.4805,-0.6142,-0.8284,-0.9081,-0.9312,-0.8425,-0.6763,-0.5125,-0.4037,-0.1742,0.0,0.0,0.0,0.0,0.0,0.0,0.0,0.0,0.0,0.0,0.0,0.0,0.0,0.0,0.0,0.0,0.0,0.0,0.0,0.0,0.0,-0.3262,1.6284,1.6309,1.6169,1.6584,0.0,0.0,1.9671,2.0794,2.1978,2.2647,2.3231,2.3808,2.3909,2.4394,2.4721,2.4365,2.4527,2.4698,2.4998,2.411,2.3236,2.2763,2.1967,2.1172,2.0634,1.7575,1.5495,1.4367,1.1284,0.896,0.8134,0.8098,0.8104,0.8175,0.8147,0.8147,0.8183,0.8183,0.6913,0.4621,0.4106,0.2056,-0.1549,-0.2063,-0.2839,-0.4131,-0.4131,-0.4131,-0.4131,-0.4131,-0.4159,-0.4197,-0.4177,-0.418,-0.4197,-0.418,-0.4184,-0.4202,-0.4218,-0.4222,-0.4218,-0.4226,-0.4222,-0.4215,-0.4204,-0.4229,-0.4264,-0.4264,-0.4278,-0.4552,-0.5601,-0.6362,-0.7117,-0.7646,-0.7117,-0.6589,-0.6589,-0.6589,-0.6331,-0.5296,-0.6097,-0.6894,-0.8223,-0.9279,-0.9789,-0.8948,-0.78,-0.6684,-0.5872,-0.4037,-0.2253,-0.1502,-0.126,-0.1009,0.0,0.0,0.0,0.0,0.0,0.0,0.0,0.0,0.0,0.0,0.0,0.0,0.0,0.0,0.0,0.0,-0.1505,-0.5043,1.5215,1.5487,1.5789,1.6067,1.6182,0.0,1.9587,1.9419,1.942,2.2175,2.3427,2.3488,2.2604,2.3785,2.4597,2.3458,2.3528,2.395,2.4681,2.362,2.2709,2.2316,2.1427,2.0642,2.0119,1.6787,1.455,1.4346,1.0641,0.8126,0.8076,0.8063,0.8063,0.8076,0.8068,0.8068,0.8076,0.8076,0.6835,0.4845,0.2806,0.0769,-0.1289,-0.3356,-0.4131,-0.4131,-0.4131,-0.4131,-0.4131,-0.4131,-0.4148,-0.4177,-0.4202,-0.4193,-0.4173,-0.417,-0.417,-0.417,-0.4173,-0.4187,-0.4204,-0.418,-0.4191,-0.4204,-0.418,-0.4211,-0.426,-0.4264,-0.4264,-0.4794,-0.5851,-0.6346,-0.6843,-0.7892,-0.8412,-0.8412,-0.8412,-0.8412,-0.7884,-0.5778,-0.7101,-0.8425,-0.842,-0.973,-1.0544,-1.0876,-0.9914,-0.9578,-0.9698,-0.7741,-0.5609,-0.3317,-0.3082,-0.2308,-0.0253,0.0,0.0,0.0,0.0,0.0,0.0,0.0,-0.0245,-0.0483,-0.0972,-0.0976,-0.0976,-0.0246,-0.0248,-0.0499,-0.3765,-0.7063,1.6018,1.535,1.5341,1.5779,1.5817,0.0,1.7103,1.7725,1.845,1.9404,2.0356,2.1135,2.1319,2.1743,2.2121,2.1526,2.1851,2.2751,2.4105,2.393,2.3409,2.2378,2.1903,2.1405,2.0105,1.7398,1.565,1.4837,1.1037,0.854,0.8076,0.7987,0.7978,0.8076,0.8027,0.8027,0.8076,0.757,0.5825,0.255,0.153,-0.0512,-0.3615,-0.3873,-0.4131,-0.4131,-0.4131,-0.4131,-0.4131,-0.4131,-0.4148,-0.4173,-0.4155,-0.4159,-0.417,-0.4148,-0.4137,-0.4142,-0.4166,-0.4162,-0.4152,-0.4166,-0.4162,-0.4152,-0.417,-0.4197,-0.4233,-0.4257,-0.4797,-0.5052,-0.5256,-0.6278,-0.7048,-0.7266,-0.7767,-0.8286,-0.8286,-0.8286,-0.8273,-0.7716,-0.8033,-0.8618,-0.9142,-0.9921,-1.0709,-1.1245,-1.0108,-0.9537,-0.9569,-0.7695,-0.5609,-0.3317,-0.3082,-0.2308,-0.0253,0.0,0.0,0.0,0.0,0.0,0.0,0.0,-0.1217,-0.3851,-0.6298,-0.7782,-0.7782,-0.2457,-0.1481,-0.3949,-0.4753,-0.83,0.0,0.0,0.0,1.5695,0.0,0.0,0.0,1.7304,1.752,1.9419,2.0105,2.0503,2.0553,2.1204,2.1498,2.0491,2.0716,2.1362,2.2197,2.225,2.2121,2.1457,2.1218,2.0689,1.9895,1.7772,1.5571,1.3263,1.0448,0.8683,0.7943,0.7908,0.7908,0.7938,0.7943,0.746,0.6484,0.6239,0.4012,0.0507,0.0,-0.1531,-0.4131,-0.4131,-0.4131,-0.4131,-0.4131,-0.4131,-0.4131,-0.4131,-0.4137,-0.4152,-0.4152,-0.4152,-0.4152,-0.4152,-0.4142,-0.4135,-0.4148,-0.4135,-0.411,-0.4124,-0.4121,-0.411,-0.4124,-0.4159,-0.4204,-0.4249,-0.4509,-0.5002,-0.5489,-0.6241,-0.6993,-0.7488,-0.7993,-0.8251,-0.8251,-0.8251,-0.8237,-0.8183,-0.8475,-0.8763,-0.924,-0.9995,-1.0787,-1.1389,-1.1073,-1.1076,-1.2015,-1.1215,-1.0158,-0.8881,-0.706,-0.5204,-0.308,-0.1016,0.0,0.0,0.0,0.0,0.0,0.0,-0.1452,-0.4812,-0.7963,-0.9676,-0.972,-0.6371,-0.567,-0.7419,-0.9213,-1.1783,0.0,0.0,0.0,0.0,0.0,1.5821,0.0,0.0,0.0,1.9319,1.9915,1.9914,1.937,2.0235,2.062,1.9167,1.9461,0.0,0.0,1.954,0.0,2.063,2.0185,1.9908,1.9535,1.78,1.4929,1.0887,0.9358,0.857,0.779,0.7831,0.7845,0.7804,0.7853,0.7145,0.5428,0.4934,0.298,-0.0503,-0.1007,-0.2282,-0.4113,-0.4121,-0.4121,-0.4124,-0.4128,-0.4131,-0.4131,-0.4131,-0.4131,-0.4135,-0.4155,-0.4152,-0.4135,-0.4155,-0.4152,-0.4131,-0.4131,-0.411,-0.4086,-0.4086,-0.409,-0.4097,-0.4099,-0.4137,-0.4191,-0.4236,-0.4215,-0.4441,-0.5731,-0.6225,-0.6459,-0.7741,-0.8251,-0.8251,-0.8251,-0.8251,-0.8232,-0.8161,-0.8659,-0.9399,-0.9342,-1.0339,-1.1142,-1.1551,-1.2039,-1.289,-1.4542,-1.5151,-1.4929,-1.4196,-1.0915,-0.7912,-0.5726,-0.204,0.0,0.0,0.0,0.0,0.0,-0.1196,-0.336,-0.6727,-0.9847,-1.1559,-1.1645,-1.1739,-1.133,-1.091,-1.3649,-1.5497,0.0,0.0,0.0,0.0,1.5791,0.0,1.5799,0.0,1.632,1.6386,0.0,1.7131,1.7019,0.0,0.0,1.635,1.6897,1.7255,1.6752,1.625,1.7059,1.9882,2.0039,1.9789,1.9061,1.6334,1.3044,0.919,0.8698,0.8454,0.772,0.7728,0.7755,0.7804,0.7809,0.7839,0.7648,0.5181,0.322,0.1498,-0.0749,-0.276,-0.405,-0.4079,-0.409,-0.4093,-0.4121,-0.4131,-0.4131,-0.4131,-0.4131,-0.4131,-0.4135,-0.4135,-0.4131,-0.4135,-0.4135,-0.4131,-0.4131,-0.411,-0.4086,-0.4086,-0.4103,-0.4131,-0.4155,-0.4187,-0.4208,-0.4191,-0.4197,-0.4464,-0.5183,-0.5707,-0.6501,-0.7235,-0.7733,-0.8251,-0.8251,-0.8251,-0.8215,-0.8112,-0.909,-0.9843,-1.0088,-1.0587,-1.1375,-1.1979,-1.2813,-1.3705,-1.471,-1.5435,-1.5548,-1.4205,-1.0863,-0.7866,-0.5726,-0.2285,0.0,0.0,0.0,0.0,0.0,-0.5413,-0.994,-1.32,-1.6323,-1.8065,-1.8211,-1.8606,-1.6959,-1.4261,-1.4616,-1.6647,0.0,0.0,0.0,0.0,0.0,0.0,1.6077,0.0,1.5391,0.0,0.0,0.0,0.0,0.0,0.0,0.0,1.5218,1.4969,0.0,0.0,1.4927,1.8198,0.0,0.0,1.8192,1.5659,1.3006,1.1159,0.9475,0.8361,0.7616,0.7679,0.7728,0.7747,0.7782,0.6849,0.4437,0.3452,0.1238,-0.1498,-0.2745,-0.3511,-0.4041,-0.4072,-0.4086,-0.4086,-0.4117,-0.4131,-0.4131,-0.4131,-0.4131,-0.4131,-0.4131,-0.4131,-0.4131,-0.4131,-0.4131,-0.4131,-0.4131,-0.4099,-0.4058,-0.4058,-0.4068,-0.409,-0.4152,-0.417,-0.4169,-0.4173,-0.417,-0.4423,-0.4911,-0.5688,-0.6476,-0.697,-0.7733,-0.8251,-0.8251,-0.8251,-0.8232,-0.8147,-0.9106,-1.0071,-1.053,-1.1479,-1.2233,-1.2639,-1.3493,-1.4671,-1.6251,-1.7076,-1.7836,-1.8699,-1.5378,-1.2273,-0.9157,-0.5392,-0.2256,-0.0243,0.0,-0.0712,-0.2588,-0.7038,-1.0868,-1.4388,-1.7525,-1.9325,-1.9569,-1.9624,-1.8927,-1.769,-1.7739,-1.8555,1.6357,0.0,0.0,0.0,0.0,0.0,0.0,0.0,0.0,0.0,0.0,0.0,0.0,0.0,0.0,1.317,0.0,1.277,1.2165,1.2063,1.2947,1.5867,0.0,0.0,0.0,1.3701,1.2048,1.0991,0.9206,0.7952,0.7488,0.7586,0.7657,0.7692,0.7747,0.6099,0.2702,0.2217,0.0247,-0.3235,-0.3732,-0.3994,-0.4016,-0.4048,-0.4065,-0.4075,-0.4106,-0.4124,-0.4131,-0.4131,-0.4131,-0.4131,-0.4131,-0.4131,-0.4131,-0.4131,-0.4131,-0.4131,-0.4131,-0.4097,-0.4054,-0.4054,-0.4054,-0.4065,-0.4137,-0.4148,-0.4135,-0.4155,-0.4148,-0.4131,-0.4644,-0.5419,-0.6448,-0.6706,-0.7733,-0.8251,-0.8251,-0.8237,-0.821,-0.841,-0.9352,-1.0287,-1.0977,-1.2158,-1.2908,-1.3322,-1.4243,-1.5731,-1.7609,-1.8778,-1.9886,-2.1658,-1.8851,-1.5115,-1.1565,-0.7761,-0.4034,-0.0242,-0.0713,-0.2588,-0.5869,-0.8908,-1.2258,-1.5773,-1.7982,-1.9325,-1.959,-1.9644,-1.9664,-1.9664,-1.9664,-1.9732,0.0,0.0,0.0,1.4678,0.0,0.0,0.0,0.0,1.3679,0.0,0.0,0.0,0.0,0.0,0.0,0.0,0.0,0.0,0.0,0.9852,1.075,1.2916,1.2594,0.0,0.0,0.9804,0.9021,0.7219,0.7071,0.7183,0.7357,0.742,0.751,0.763,0.7684,0.6777,0.4633,0.2949,0.0986,-0.1234,-0.2961,-0.3953,-0.3953,-0.3985,-0.4012,-0.4043,-0.4075,-0.4103,-0.4131,-0.4131,-0.4131,-0.4131,-0.4131,-0.4131,-0.4131,-0.4131,-0.4131,-0.4131,-0.4131,-0.411,-0.4086,-0.4086,-0.4086,-0.409,-0.4124,-0.4131,-0.4131,-0.4131,-0.4131,-0.4131,-0.4131,-0.5161,-0.619,-0.619,-0.7218,-0.8251,-0.8251,-0.821,-0.841,-0.8844,-0.9533,-1.0476,-1.1711,-1.2452,-1.3227,-1.3845,-1.5648,-1.6977,-1.8008,-1.9724,-2.1115,-2.2093,-1.8828,-1.5301,-1.1565,-0.7721,-0.4009,-0.0242,-0.2847,-0.5869,-0.9142,-1.2191,-1.5526,-1.8751,-1.9128,-1.9271,-1.9434,-1.959,-1.9664,-1.9664,-1.9664,-1.9732,0.0,0.0,1.9443,1.5681,0.0,0.0,0.0,0.0,0.0,0.0,0.0,0.0,0.0,0.0,0.0,0.0,0.0,0.0,0.0,0.7472,0.7681,0.8445,1.0037,1.0862,0.0,0.0,0.9496,0.7325,0.7268,0.682,0.6164,0.492,0.4814,0.5712,0.4558,0.2909,0.0983,0.0246,-0.0987,-0.2961,-0.3703,-0.3949,-0.3949,-0.3981,-0.4012,-0.4041,-0.4072,-0.4103,-0.4131,-0.4131,-0.4131,-0.4131,-0.4131,-0.4131,-0.4131,-0.4131,-0.4131,-0.4128,-0.4106,-0.4093,-0.4086,-0.4086,-0.4086,-0.4093,-0.4121,-0.4131,-0.4131,-0.4131,-0.4131,-0.4131,-0.4131,-0.5161,-0.619,-0.619,-0.7218,-0.8245,-0.8202,-0.8183,-0.8401,-0.9096,-1.0071,-1.1056,-1.2549,-1.4105,-1.5169,-1.5461,-1.6717,-1.7772,-1.934,-2.0273,-2.1128,-2.2093,-2.1005,-1.7976,-1.1839,-0.5544,-0.1466,0.0,-0.2847,-0.6103,-0.9379,-1.2416,-1.5766,-1.8986,-1.904,-1.9183,-1.9434,-1.9481,-1.9556,-1.9664,-1.9752,-1.982,1.4411,1.6939,0.0,1.522,1.6904,0.0,1.4806,0.0,0.0,0.0,0.0,0.0,0.0,0.0,0.0,0.0,0.0,0.0,0.0,0.5987,0.5924,0.5692,0.7599,0.8952,0.8596,0.848,0.7378,0.5651,0.5568,0.5322,0.4672,0.0,0.3147,0.3977,0.2624,0.0969,-0.0983,-0.0985,-0.1974,-0.3949,-0.3949,-0.3949,-0.3949,-0.397,-0.4003,-0.4041,-0.4061,-0.4093,-0.4131,-0.4131,-0.4131,-0.4131,-0.4131,-0.4131,-0.4131,-0.4131,-0.4131,-0.4128,-0.411,-0.4103,-0.4103,-0.4103,-0.4103,-0.4106,-0.4124,-0.4124,-0.4121,-0.4152,-0.4131,-0.4106,-0.4137,-0.5153,-0.6141,-0.6141,-0.7168,-0.8183,-0.8139,-0.8117,-0.8351,-0.9588,-1.0566,-1.1823,-1.3901,-1.5513,-1.6601,-1.6607,-1.7838,-1.8894,-2.0276,-2.0874,-2.1413,-2.216,-2.2551,-1.9762,-1.2105,-0.4487,0.0,0.0,-0.403,-0.7275,-0.9379,-1.3596,-1.6754,-1.9149,-1.9094,-1.9237,-1.959,-1.9535,-1.9569,-1.9664,-1.9752,-1.9854]},{"header":{"parameterUnit":"m.s-1","parameterCategory":1,"la1":30.6,"la2":29.2853,"lo1":-89.7004,"lo2":-87.6739,"dy":0.0162,"dx":0.0183,"nx":112,"ny":82,"refTime":"2023-04-11T18:00:00:Z","depth":0,"parameterNumber":3,"parameterNumberName":"V-component_of_WINDS"},"data":[0.0,0.0,0.0,0.0,0.0,0.0,0.0,0.0,0.0,0.0,0.0,0.0,0.0,0.0,0.0,0.0,0.0,0.0,0.0,0.0,0.0,0.0,0.0,0.0,0.0,0.0,0.0,0.0,0.0,0.0,0.0,0.0,0.0,0.0,0.0,0.0,0.0,0.0,0.0,0.0,0.0,0.0,0.0,0.0,0.0,0.0,0.0,0.0,0.0,0.0,0.0,0.0,0.0,0.0,0.0,0.0,0.0,0.0,0.0,0.0,0.0,0.0,0.0,0.0,0.0,0.0,0.0,0.0,0.0,0.0,0.0,0.0,0.0,0.0,0.0,0.0,0.0,0.0,0.0,0.0,0.0,0.0,0.0,0.0,0.0,0.0,0.0,0.0,0.0,0.0,6.7303,6.9811,7.8007,8.2272,7.9721,7.9354,7.6717,7.0844,0.0,0.0,0.0,0.0,0.0,0.0,0.0,0.0,0.0,0.0,0.0,0.0,0.0,0.0,0.0,0.0,0.0,0.0,0.0,0.0,0.0,0.0,0.0,0.0,0.0,0.0,0.0,0.0,0.0,0.0,0.0,0.0,0.0,0.0,0.0,0.0,0.0,0.0,0.0,0.0,0.0,0.0,0.0,0.0,0.0,0.0,0.0,0.0,0.0,0.0,0.0,0.0,0.0,0.0,0.0,0.0,0.0,0.0,0.0,0.0,0.0,0.0,0.0,0.0,0.0,0.0,0.0,0.0,0.0,0.0,0.0,0.0,0.0,0.0,0.0,0.0,0.0,0.0,0.0,0.0,0.0,0.0,0.0,0.0,0.0,0.0,0.0,0.0,0.0,0.0,0.0,0.0,0.0,0.0,0.0,0.0,0.0,0.0,0.0,0.0,0.0,0.0,0.0,0.0,6.8053,7.4875,8.0008,8.2286,8.0478,7.8049,7.5359,7.2349,0.0,0.0,0.0,0.0,0.0,0.0,0.0,0.0,0.0,0.0,0.0,0.0,0.0,0.0,0.0,0.0,0.0,0.0,0.0,0.0,0.0,0.0,0.0,0.0,0.0,0.0,0.0,0.0,0.0,0.0,0.0,0.0,0.0,0.0,0.0,0.0,0.0,0.0,0.0,0.0,0.0,0.0,0.0,0.0,0.0,0.0,0.0,0.0,0.0,0.0,0.0,0.0,0.0,0.0,0.0,0.0,0.0,0.0,0.0,0.0,0.0,0.0,0.0,0.0,0.0,0.0,0.0,0.0,0.0,0.0,0.0,0.0,0.0,0.0,0.0,0.0,0.0,0.0,0.0,0.0,0.0,0.0,0.0,0.0,0.0,0.0,0.0,0.0,0.0,0.0,0.0,0.0,0.0,0.0,0.0,0.0,0.0,0.0,0.0,0.0,0.0,0.0,0.0,6.8377,7.1593,7.8401,8.1798,8.245,7.9792,7.7855,7.5359,7.2055,7.033,0.0,0.0,0.0,0.0,0.0,0.0,0.0,0.0,0.0,0.0,0.0,0.0,0.0,0.0,0.0,0.0,0.0,0.0,0.0,0.0,0.0,0.0,0.0,0.0,0.0,0.0,0.0,0.0,0.0,0.0,0.0,0.0,0.0,0.0,0.0,0.0,0.0,0.0,0.0,0.0,0.0,0.0,0.0,0.0,0.0,0.0,0.0,0.0,0.0,0.0,0.0,0.0,0.0,0.0,0.0,0.0,0.0,0.0,0.0,0.0,0.0,0.0,0.0,0.0,0.0,0.0,0.0,0.0,0.0,0.0,0.0,0.0,0.0,0.0,0.0,0.0,0.0,0.0,0.0,0.0,0.0,0.0,0.0,0.0,0.0,0.0,0.0,0.0,0.0,0.0,0.0,0.0,0.0,0.0,0.0,0.0,0.0,0.0,0.0,0.0,0.0,0.0,7.2781,7.4831,8.0798,8.2517,8.2162,7.9507,7.7565,7.5139,7.2055,6.9633,0.0,0.0,0.0,0.0,0.0,0.0,0.0,0.0,0.0,0.0,0.0,0.0,0.0,0.0,0.0,0.0,0.0,0.0,0.0,0.0,0.0,0.0,0.0,0.0,0.0,0.0,0.0,0.0,0.0,0.0,0.0,0.0,0.0,0.0,0.0,0.0,0.0,0.0,0.0,0.0,0.0,0.0,0.0,0.0,0.0,0.0,0.0,0.0,0.0,0.0,0.0,0.0,0.0,0.0,0.0,0.0,0.0,0.0,0.0,0.0,0.0,0.0,0.0,0.0,0.0,0.0,0.0,0.0,0.0,0.0,0.0,0.0,0.0,0.0,0.0,0.0,0.0,0.0,0.0,0.0,0.0,0.0,0.0,0.0,0.0,0.0,0.0,0.0,0.0,0.0,0.0,0.0,0.0,0.0,0.0,0.0,0.0,0.0,0.0,0.0,0.0,0.0,7.3071,7.6248,8.1593,8.1271,8.0802,8.0861,7.6619,7.3817,7.356,6.9192,0.0,0.0,0.0,0.0,0.0,0.0,0.0,0.0,0.0,0.0,0.0,0.0,0.0,0.0,0.0,0.0,0.0,0.0,0.0,0.0,0.0,0.0,0.0,0.0,0.0,0.0,0.0,0.0,0.0,0.0,0.0,0.0,0.0,0.0,0.0,0.0,0.0,0.0,0.0,0.0,0.0,0.0,0.0,0.0,0.0,0.0,0.0,0.0,0.0,0.0,0.0,0.0,0.0,0.0,0.0,0.0,0.0,0.0,0.0,0.0,0.0,0.0,0.0,0.0,0.0,0.0,0.0,0.0,0.0,0.0,0.0,0.0,0.0,0.0,0.0,0.0,0.0,0.0,0.0,0.0,0.0,0.0,0.0,0.0,0.0,0.0,0.0,0.0,0.0,0.0,0.0,0.0,0.0,0.0,0.0,0.0,0.0,0.0,0.0,0.0,0.0,0.0,7.4986,7.7844,8.2866,8.2069,8.0876,8.0001,7.6591,7.4221,7.3707,0.0,0.0,0.0,0.0,0.0,0.0,0.0,0.0,0.0,0.0,0.0,0.0,0.0,0.0,0.0,0.0,0.0,0.0,0.0,0.0,0.0,0.0,0.0,0.0,0.0,0.0,0.0,0.0,0.0,0.0,0.0,0.0,0.0,0.0,0.0,0.0,0.0,0.0,0.0,0.0,0.0,0.0,0.0,0.0,0.0,0.0,0.0,0.0,0.0,0.0,0.0,0.0,0.0,0.0,0.0,0.0,0.0,0.0,0.0,0.0,0.0,0.0,0.0,0.0,0.0,0.0,0.0,0.0,0.0,0.0,0.0,0.0,0.0,0.0,0.0,0.0,0.0,0.0,0.0,0.0,0.0,0.0,0.0,0.0,0.0,0.0,0.0,0.0,0.0,0.0,0.0,0.0,0.0,0.0,0.0,0.0,0.0,0.0,0.0,0.0,0.0,0.0,7.3817,7.6227,7.8988,0.0,8.2069,8.069,7.9565,7.5724,7.3597,7.4037,0.0,0.0,0.0,0.0,0.0,0.0,0.0,0.0,0.0,0.0,0.0,0.0,0.0,0.0,0.0,0.0,0.0,0.0,0.0,0.0,0.0,0.0,0.0,0.0,0.0,0.0,0.0,0.0,0.0,0.0,0.0,0.0,0.0,0.0,0.0,0.0,0.0,0.0,0.0,0.0,0.0,0.0,0.0,0.0,0.0,0.0,0.0,0.0,0.0,0.0,0.0,0.0,0.0,0.0,0.0,0.0,0.0,0.0,0.0,0.0,0.0,0.0,0.0,0.0,0.0,0.0,0.0,0.0,0.0,0.0,0.0,0.0,0.0,0.0,0.0,0.0,0.0,0.0,0.0,0.0,0.0,0.0,0.0,0.0,0.0,0.0,0.0,0.0,0.0,0.0,0.0,0.0,0.0,0.0,0.0,0.0,0.0,0.0,0.0,0.0,0.0,0.0,7.3303,7.657,7.9543,8.1966,8.0755,7.98,7.98,7.3854,7.1505,0.0,0.0,0.0,0.0,0.0,0.0,0.0,0.0,0.0,0.0,0.0,0.0,0.0,0.0,0.0,0.0,0.0,0.0,0.0,0.0,0.0,0.0,0.0,0.0,0.0,0.0,0.0,0.0,0.0,0.0,0.0,0.0,0.0,0.0,0.0,0.0,0.0,0.0,0.0,0.0,0.0,0.0,0.0,0.0,0.0,0.0,0.0,0.0,0.0,0.0,0.0,0.0,0.0,0.0,0.0,0.0,0.0,0.0,0.0,0.0,0.0,0.0,0.0,0.0,0.0,0.0,0.0,0.0,0.0,0.0,0.0,0.0,0.0,0.0,0.0,0.0,0.0,0.0,0.0,0.0,0.0,0.0,0.0,0.0,0.0,0.0,0.0,0.0,0.0,0.0,0.0,0.0,0.0,0.0,0.0,0.0,0.0,0.0,0.0,0.0,0.0,0.0,0.0,7.4074,7.7414,8.0351,8.281,8.2113,8.1012,7.9874,7.5395,7.3523,7.5616,0.0,0.0,0.0,0.0,0.0,0.0,0.0,0.0,0.0,0.0,0.0,0.0,0.0,0.0,0.0,0.0,0.0,0.0,0.0,0.0,0.0,0.0,0.0,0.0,0.0,0.0,0.0,0.0,0.0,0.0,0.0,0.0,0.0,0.0,0.0,0.0,0.0,0.0,0.0,0.0,0.0,0.0,0.0,0.0,0.0,0.0,0.0,0.0,0.0,0.0,0.0,0.0,0.0,0.0,0.0,0.0,0.0,0.0,0.0,0.0,0.0,0.0,0.0,0.0,0.0,0.0,0.0,0.0,0.0,0.0,0.0,0.0,0.0,0.0,0.0,0.0,0.0,0.0,0.0,0.0,0.0,0.0,0.0,0.0,0.0,0.0,0.0,0.0,0.0,0.0,0.0,0.0,0.0,0.0,0.0,0.0,0.0,0.0,0.0,0.0,0.0,0.0,7.4918,7.8259,8.0975,8.2737,8.248,8.1525,7.991,7.6056,7.3964,7.4625,0.0,0.0,0.0,0.0,0.0,0.0,0.0,0.0,0.0,0.0,0.0,0.0,0.0,0.0,0.0,0.0,0.0,0.0,0.0,0.0,0.0,0.0,0.0,0.0,0.0,0.0,0.0,0.0,0.0,0.0,0.0,0.0,0.0,0.0,0.0,0.0,0.0,0.0,0.0,0.0,0.0,0.0,0.0,0.0,0.0,0.0,0.0,0.0,0.0,0.0,0.0,0.0,0.0,0.0,0.0,0.0,0.0,0.0,0.0,0.0,0.0,0.0,0.0,0.0,0.0,0.0,0.0,0.0,0.0,0.0,0.0,0.0,0.0,0.0,0.0,0.0,0.0,0.0,0.0,0.0,0.0,0.0,0.0,0.0,0.0,0.0,0.0,0.0,0.0,0.0,0.0,0.0,0.0,0.0,0.0,0.0,0.0,0.0,0.0,0.0,0.0,0.0,7.5909,7.9066,8.1379,8.2333,8.2406,8.1746,8.0021,7.635,7.378,7.2899,0.0,0.0,0.0,0.0,0.0,0.0,0.0,0.0,0.0,0.0,0.0,0.0,0.0,0.0,0.0,0.0,0.0,0.0,0.0,0.0,0.0,0.0,0.0,0.0,0.0,0.0,0.0,0.0,0.0,0.0,0.0,0.0,0.0,0.0,0.0,0.0,0.0,0.0,0.0,0.0,0.0,0.0,0.0,0.0,0.0,0.0,0.0,0.0,0.0,0.0,0.0,0.0,0.0,0.0,0.0,0.0,0.0,0.0,0.0,0.0,6.7089,0.0,0.0,0.0,0.0,0.0,0.0,0.0,0.0,0.0,0.0,0.0,0.0,0.0,0.0,0.0,0.0,0.0,0.0,0.0,0.0,0.0,0.0,0.0,0.0,0.0,0.0,0.0,0.0,0.0,0.0,0.0,0.0,0.0,0.0,0.0,0.0,0.0,0.0,0.0,0.0,0.0,7.7561,7.98,8.1782,8.3875,8.4095,8.3177,8.0938,7.8772,7.69,7.5432,7.323,0.0,0.0,0.0,0.0,0.0,0.0,0.0,0.0,0.0,0.0,0.0,0.0,0.0,0.0,0.0,0.0,0.0,0.0,0.0,0.0,0.0,0.0,0.0,0.0,0.0,0.0,0.0,0.0,0.0,0.0,0.0,0.0,0.0,0.0,0.0,0.0,0.0,0.0,0.0,0.0,0.0,0.0,0.0,0.0,0.0,0.0,0.0,0.0,0.0,0.0,0.0,0.0,0.0,0.0,0.0,0.0,0.0,0.0,0.0,0.0,6.9143,0.0,0.0,0.0,0.0,0.0,0.0,0.0,0.0,0.0,0.0,0.0,0.0,0.0,0.0,0.0,0.0,0.0,0.0,0.0,0.0,0.0,0.0,0.0,0.0,0.0,0.0,0.0,0.0,0.0,0.0,0.0,0.0,0.0,0.0,0.0,0.0,0.0,0.0,0.0,0.0,7.8699,8.0571,8.237,8.4389,8.4939,8.4205,8.1782,8.0094,7.7965,7.5139,7.4515,0.0,0.0,0.0,0.0,0.0,0.0,0.0,0.0,0.0,0.0,0.0,0.0,0.0,0.0,0.0,0.0,0.0,0.0,0.0,0.0,0.0,0.0,0.0,0.0,0.0,0.0,0.0,0.0,0.0,0.0,0.0,0.0,0.0,0.0,0.0,0.0,0.0,0.0,0.0,0.0,0.0,0.0,0.0,0.0,0.0,0.0,0.0,0.0,0.0,0.0,0.0,0.0,0.0,7.9071,8.0695,8.2178,8.3012,8.3074,8.2141,7.7378,7.4143,7.2392,7.3023,0.0,0.0,0.0,0.0,0.0,0.0,0.0,0.0,0.0,0.0,0.0,0.0,0.0,0.0,0.0,0.0,0.0,0.0,0.0,0.0,0.0,0.0,0.0,0.0,8.1122,7.969,0.0,0.0,0.0,0.0,0.0,0.0,0.0,0.0,0.0,0.0,0.0,0.0,7.98,8.1599,8.3287,8.5049,8.582,8.5233,8.281,8.1122,7.8589,7.4771,7.5542,7.5212,0.0,0.0,0.0,0.0,0.0,0.0,0.0,0.0,0.0,0.0,0.0,0.0,0.0,0.0,0.0,0.0,0.0,0.0,0.0,0.0,0.0,0.0,0.0,0.0,0.0,0.0,0.0,0.0,0.0,0.0,0.0,0.0,6.2939,6.3818,0.0,0.0,0.0,0.0,0.0,0.0,0.0,0.0,0.0,0.0,0.0,0.0,0.0,7.8603,7.9503,8.1776,8.3515,8.4533,8.5773,8.7156,8.8566,8.8883,8.9078,8.9273,8.874,0.0,7.8783,7.8805,0.0,0.0,0.0,0.0,0.0,0.0,0.0,0.0,0.0,0.0,0.0,0.0,0.0,0.0,0.0,0.0,0.0,0.0,0.0,0.0,0.0,0.0,8.2742,8.3823,8.4058,8.3838,0.0,8.0498,7.7635,7.5946,7.4588,0.0,0.0,0.0,0.0,0.0,0.0,0.0,8.1562,8.3287,8.5159,8.7472,8.7802,8.6921,8.4499,8.281,8.0755,7.8112,7.679,7.5946,7.5652,7.5616,0.0,0.0,0.0,0.0,0.0,0.0,0.0,0.0,0.0,0.0,0.0,0.0,0.0,0.0,0.0,0.0,0.0,0.0,0.0,0.0,0.0,0.0,0.0,0.0,0.0,0.0,0.0,0.0,0.0,6.5276,6.7082,6.6082,6.8766,7.0152,0.0,0.0,0.0,0.0,0.0,0.0,0.0,0.0,0.0,8.1273,8.2863,8.4271,8.5536,8.7528,8.9199,9.0625,9.1581,9.2957,9.4852,9.5037,9.5507,9.6191,9.6425,9.4036,8.961,8.5375,8.2219,8.0042,0.0,0.0,0.0,0.0,8.033,8.0843,8.2233,8.2721,0.0,8.3998,0.0,0.0,0.0,0.0,0.0,0.0,0.0,0.0,0.0,0.0,8.8525,8.8051,8.8683,8.9124,8.8169,8.5894,8.2847,0.0,7.7965,7.7635,7.7084,0.0,0.0,0.0,0.0,7.9984,8.1929,8.3618,8.5527,8.7949,8.7802,8.7105,8.604,8.4058,8.1856,7.9433,7.8148,7.7084,7.613,7.6533,7.7082,0.0,0.0,0.0,0.0,0.0,0.0,0.0,0.0,0.0,0.0,0.0,0.0,0.0,0.0,0.0,0.0,0.0,0.0,0.0,0.0,0.0,0.0,0.0,0.0,0.0,0.0,0.0,0.0,6.8349,6.9956,6.7868,7.1153,7.287,0.0,0.0,0.0,0.0,0.0,0.0,8.1056,8.2686,8.475,8.7358,8.8951,9.0545,9.2139,9.3768,9.5253,9.6751,9.7464,9.8947,10.0913,10.1301,10.187,10.2616,10.2826,10.1715,9.9017,9.1958,8.7281,8.453,8.3651,8.2936,8.2573,8.3712,8.4576,8.5312,8.7377,8.809,8.8166,8.8579,8.764,8.6175,8.5537,0.0,0.0,0.0,0.0,8.8167,8.8465,9.1009,9.3344,9.2717,9.3162,9.3455,9.2391,9.0886,8.8096,0.0,8.1489,8.1158,7.9764,0.0,0.0,0.0,0.0,8.1525,8.292,8.4719,8.6591,8.861,8.828,8.7766,8.7362,8.5086,8.2847,8.0828,7.9396,7.8038,7.679,7.7266,7.7826,7.8309,0.0,0.0,0.0,0.0,0.0,0.0,0.0,0.0,0.0,0.0,0.0,0.0,0.0,0.0,0.0,0.0,0.0,0.0,0.0,0.0,0.0,0.0,0.0,0.0,0.0,0.0,0.0,0.0,0.0,6.8255,7.3519,0.0,0.0,0.0,0.0,7.9499,8.2505,8.5293,8.7611,8.9241,9.1559,9.4746,9.6412,9.8042,9.9636,10.1266,10.2551,10.3618,10.4314,10.5421,10.6756,10.7368,10.7988,10.8442,10.8442,10.7015,10.4274,9.8341,9.4436,9.2071,9.1414,9.1019,9.0926,9.1151,9.1132,9.1169,9.2071,9.2409,9.2671,9.4248,9.3648,9.1845,8.948,8.9254,0.0,0.0,9.0494,9.2501,9.2965,9.4077,9.5675,9.7616,9.6731,9.5584,9.6245,9.5144,9.2317,0.0,8.4315,8.303,8.215,0.0,8.1452,7.9947,8.237,8.4646,8.549,8.7692,8.9528,9.0372,9.0445,8.9821,8.828,8.593,8.4168,8.3287,8.0314,7.8552,7.8479,7.8311,7.8255,7.8309,7.8827,0.0,0.0,0.0,0.0,0.0,0.0,0.0,0.0,0.0,0.0,0.0,0.0,0.0,0.0,0.0,0.0,0.0,0.0,0.0,0.0,0.0,0.0,0.0,0.0,0.0,0.0,0.0,0.0,7.5548,8.0332,0.0,8.102,8.2577,8.4098,8.5185,8.8698,9.1632,9.3515,9.5616,9.8009,10.0578,10.2183,10.3717,10.5275,10.6376,10.7121,10.7379,10.7667,10.8601,10.9969,10.9677,11.0085,11.1221,11.062,10.9606,10.8104,10.5513,10.1308,9.6614,9.5848,9.5209,9.4774,9.5923,9.6336,9.6539,9.8416,9.8717,9.8304,9.8341,9.759,9.6314,9.4361,9.3986,9.4248,9.4511,9.56,9.7079,9.8637,9.9544,10.0163,10.0647,9.9677,9.8668,9.8961,9.7346,9.5254,9.3198,8.9821,8.6701,8.4829,8.4095,8.3728,8.3654,8.5086,8.6261,8.6554,8.8243,8.9711,9.0519,9.0152,8.9601,8.905,8.6775,8.4572,8.2737,8.0571,7.9093,7.8422,7.8332,7.8653,7.9425,7.9149,7.9588,0.0,0.0,0.0,0.0,0.0,0.0,0.0,0.0,0.0,0.0,0.0,0.0,0.0,0.0,0.0,0.0,0.0,0.0,0.0,0.0,0.0,0.0,0.0,0.0,0.0,7.7739,8.1308,8.2081,8.6505,8.8915,8.7611,8.8951,9.0436,9.1776,9.5072,9.7802,9.962,10.1851,10.397,10.6313,10.7599,10.8871,11.0146,11.0738,11.1034,11.1034,11.1161,11.1781,11.2695,11.2402,11.27,11.3323,11.2798,11.1897,11.0808,11.032,10.7316,10.2885,10.1007,9.9994,9.9881,10.1007,10.1608,10.2096,10.4011,10.4011,10.2997,10.2697,10.1495,9.9994,9.9167,9.8905,9.9017,9.9618,10.0782,10.2182,10.3597,10.4007,10.3873,10.3612,10.2075,10.0686,10.0686,9.9035,9.7346,9.6795,9.3418,8.9968,8.7802,8.6738,8.6407,8.6921,8.7472,8.8023,8.8573,8.9564,9.0408,9.0959,9.0555,9.0005,8.9454,8.7949,8.5747,8.281,8.1524,8.0289,7.8793,7.9416,8.0159,8.0964,8.039,8.0643,8.19,0.0,0.0,0.0,0.0,0.0,0.0,0.0,0.0,0.0,0.0,0.0,0.0,0.0,0.0,0.0,0.0,0.0,0.0,0.0,0.0,0.0,0.0,0.0,7.7651,8.2577,8.6416,8.7358,9.1632,9.4203,9.3443,9.4819,9.6738,9.9129,10.1483,10.3799,10.5997,10.7695,10.9619,11.181,11.2697,11.3473,11.4286,11.4286,11.4286,11.4286,11.4914,11.5265,11.5307,11.6032,11.5914,11.5088,11.5088,11.4112,11.261,11.261,11.2122,11.0995,10.6903,10.5776,10.649,10.649,10.7015,10.7804,10.8592,10.7804,10.6602,10.7391,10.5476,10.2997,10.3786,10.4011,10.3899,10.4011,10.5701,10.7578,10.7691,10.7061,10.6474,10.6474,10.397,10.1567,10.1567,10.0283,9.8631,9.7089,9.4813,9.2648,9.0959,9.0041,8.9528,8.9491,8.9491,0.0,9.1583,9.1803,9.1803,9.184,9.184,9.1216,8.9638,8.9417,8.7692,8.3691,8.32,8.2034,7.9705,8.1596,8.272,8.272,8.251,8.2016,8.1246,0.0,0.0,0.0,0.0,0.0,0.0,0.0,0.0,0.0,0.0,0.0,0.0,0.0,0.0,0.0,0.0,0.0,0.0,0.0,0.0,0.0,8.1056,8.3079,8.2655,8.6932,9.1279,9.4336,9.8487,10.1193,10.1592,10.3113,10.4525,10.5793,10.8127,10.9878,11.1083,11.2095,11.3103,11.4207,11.4467,11.4893,11.558,11.5731,11.5731,11.5731,11.6444,11.7119,11.7718,11.7905,11.7904,11.7604,11.7003,11.6102,11.5088,11.46,11.4488,11.4488,11.0995,10.9681,10.9907,10.9907,11.0094,11.0282,11.0507,11.0282,10.9982,11.0207,10.9193,10.8029,10.8217,10.7503,10.679,10.7991,10.7984,10.8192,10.9998,10.8882,10.7591,10.8187,10.5716,10.3182,10.3182,10.109,9.8961,9.8521,9.6502,9.4336,9.2684,9.2244,9.1877,9.1253,9.1143,0.0,9.173,9.1803,9.2024,9.2684,9.2758,9.2317,9.1289,9.0009,8.807,8.5176,8.373,8.2621,8.1837,8.2406,8.2913,8.3351,8.3912,8.4362,0.0,0.0,0.0,0.0,0.0,0.0,0.0,0.0,0.0,0.0,0.0,0.0,0.0,0.0,0.0,0.0,0.0,0.0,0.0,0.0,0.0,0.0,8.6344,9.0023,9.1847,9.4277,9.7145,10.0701,10.4174,10.6698,10.7821,10.8975,11.0181,11.1345,11.3004,11.428,11.4987,11.5418,11.5992,11.6589,11.6963,11.7418,11.7717,11.8092,11.828,11.828,11.9106,11.9594,11.9782,12.0082,11.9707,11.8693,11.8205,11.7304,11.6177,11.5689,11.5802,0.0,0.0,0.0,0.0,0.0,11.231,11.231,11.231,11.2084,11.1897,11.2197,11.1484,11.062,11.092,11.0395,10.9794,11.0808,11.0689,11.0569,11.1998,11.0642,10.8781,10.9415,10.6894,10.432,10.399,10.2191,10.0319,9.9292,9.797,0.0,9.4446,9.3565,9.3051,9.2868,9.2244,9.1913,9.2281,9.2024,9.1987,9.2501,9.2574,9.2244,9.14,9.0683,0.0,0.0,0.0,8.5328,8.5245,8.4862,0.0,0.0,0.0,8.6363,8.6094,0.0,0.0,0.0,8.4824,8.5324,0.0,0.0,0.0,0.0,0.0,0.0,0.0,0.0,0.0,0.0,0.0,0.0,0.0,0.0,0.0,0.0,9.1559,9.7101,10.2678,10.3077,10.3728,10.6517,10.8871,11.0925,11.2556,11.351,11.4598,11.6174,11.6904,11.7525,11.8059,11.8066,0.0,0.0,0.0,12.0195,12.0195,12.1134,12.151,12.151,12.2299,12.2186,12.1585,12.2261,12.1359,11.9216,11.9216,11.8314,11.6885,11.6697,11.6509,11.6209,11.3774,11.3812,11.4901,11.4112,11.3812,11.3699,11.3699,0.0,0.0,11.3511,11.2685,11.1596,11.2422,11.2497,11.2422,11.261,11.2986,11.3544,11.3695,11.2028,11.0195,11.0269,10.7713,10.4991,10.4256,10.3227,10.1788,9.9548,9.9035,9.8264,9.6025,9.4373,9.3565,9.4079,9.2905,9.217,9.2868,9.2281,9.184,9.195,0.0,0.0,9.0959,9.1454,9.054,8.7444,8.8264,8.8766,8.8709,8.794,8.7902,8.8671,8.8709,8.7979,8.6517,8.6517,8.7017,8.7979,8.8556,8.8479,0.0,0.0,0.0,0.0,0.0,0.0,0.0,0.0,0.0,0.0,0.0,0.0,0.0,0.0,0.0,9.2763,9.7716,10.2895,10.8509,11.0284,11.1008,11.09,11.269,11.4656,11.6709,11.7902,11.9174,12.0496,12.0602,12.0683,12.0802,12.056,12.0645,12.0683,12.1698,12.2074,12.1885,12.2976,12.3538,12.3352,0.0,0.0,12.3611,12.3907,12.3411,12.2316,12.2493,12.1994,12.0897,11.9573,11.8589,11.7945,11.6238,11.5314,11.5013,11.4788,11.43,11.3699,11.3699,11.3586,11.3511,11.3586,11.3098,11.2422,11.3211,11.261,0.0,11.3098,11.268,11.2323,11.3814,11.2599,11.1231,11.1972,10.8858,10.579,10.5568,10.2996,10.0393,9.9328,9.8594,9.7787,9.6649,9.5694,9.4666,9.3492,9.3051,9.2648,9.2134,9.1913,9.206,9.2758,9.2868,9.2794,9.2648,9.2529,9.1715,8.9759,8.9092,8.872,8.8709,8.8517,8.8517,8.8709,8.8709,8.8863,8.9171,8.9171,8.9979,9.1479,9.0248,8.994,0.0,0.0,0.0,0.0,0.0,0.0,0.0,0.0,0.0,0.0,0.0,8.2434,8.4515,0.0,9.4023,9.7752,10.2787,10.7495,11.1515,11.4132,11.5357,11.4957,11.6296,11.8021,12.0073,12.1378,12.2583,12.3573,12.401,12.4175,12.4175,12.3616,12.3352,12.3352,12.3839,12.4141,12.3992,12.4893,12.5495,12.5495,12.5872,12.5753,12.5103,12.5519,12.4832,12.3387,12.3523,12.2992,12.2083,12.1287,12.068,12.0301,11.9483,11.8175,11.6665,11.6288,11.5571,11.4817,11.4688,11.428,11.3942,11.3807,11.3399,11.3173,11.3727,11.3314,11.2932,11.3784,11.3618,11.3222,11.4184,11.327,11.2202,11.2684,11.032,10.7699,10.6399,10.4428,10.2086,10.0068,9.9035,9.8264,9.7419,9.6649,9.5694,9.4483,9.3969,9.3529,9.3088,9.3051,9.3381,9.4212,9.3879,9.3826,9.4179,9.3652,9.2945,9.2055,9.1107,9.0787,9.1171,9.0825,9.0787,9.1171,9.121,9.1402,9.1787,9.1787,9.2249,9.3095,9.2633,9.2441,0.0,0.0,0.0,0.0,0.0,0.0,0.0,7.8727,8.1146,8.2681,8.56,8.8618,9.0777,9.5267,9.9708,10.2787,10.7278,11.1432,11.4313,11.6781,11.856,11.9348,11.9869,12.1146,12.3282,12.4385,12.5336,12.5973,12.6665,12.6889,12.6814,12.6134,12.5683,12.5683,12.5907,12.6021,12.5985,12.6889,12.7413,12.7519,12.7904,12.7595,12.6616,12.701,12.61,12.4405,12.4405,12.3874,12.319,12.3266,12.319,12.2887,12.2887,12.1558,11.947,11.8205,11.708,11.6246,11.5885,11.5403,11.4808,11.4537,11.4399,11.4431,11.4417,11.438,11.4372,11.4513,11.4642,11.4705,11.4815,11.4085,11.3392,11.3316,11.1689,10.9566,10.7465,10.6015,10.4384,10.1573,10.0387,9.9538,9.8725,9.7801,9.6766,9.5658,9.496,9.4521,9.4559,9.4522,9.477,9.5566,9.5033,9.4894,9.5437,9.4524,9.3884,9.3943,9.3172,9.3018,9.3672,9.3095,9.3018,9.3672,9.371,9.371,9.371,9.371,9.3787,9.398,9.4672,9.4595,7.0736,7.0731,7.1723,7.35,7.5562,7.791,0.0,8.4156,8.7312,8.8672,9.1389,9.4594,9.7904,10.0433,10.3692,10.898,11.1588,11.4557,11.9253,12.0251,12.1569,12.5089,12.3772,12.366,12.6084,12.6804,12.7381,12.7907,12.798,12.7712,12.7031,12.6663,12.6589,12.6589,12.7451,12.7829,12.7608,12.8843,12.9403,12.9436,12.893,12.8687,12.8696,12.8178,12.7785,12.7619,12.7704,12.7269,12.6582,12.7269,12.6696,12.536,12.536,12.4788,12.3507,12.052,11.8482,11.708,11.7117,11.7042,11.6864,11.6902,11.6902,11.6826,11.6031,11.5803,11.5614,11.4856,11.4801,11.5077,11.5288,11.5397,11.5214,11.4603,11.2693,11.0836,10.9617,10.7192,10.492,10.3803,10.2875,10.2009,10.1181,9.9834,9.8049,9.5845,9.5437,9.5332,9.5254,9.5277,9.5566,9.6346,9.6423,9.6323,9.6267,9.4799,9.4195,9.4789,9.4018,9.3595,9.371,9.3595,9.3595,9.371,9.371,9.371,9.371,9.371,9.4095,9.4864,9.4941,9.4941,7.1286,7.2434,7.4724,7.7126,8.0472,8.3988,8.7247,9.0769,9.3859,9.568,9.8572,10.1534,10.3607,10.6904,11.0093,11.2012,11.5248,11.8216,12.042,12.2233,12.3886,12.532,12.5738,12.6456,12.8017,12.8589,12.8922,12.9104,12.9066,12.8991,12.8574,12.8465,12.8541,12.8541,12.8915,12.9138,12.91,12.9695,13.0016,13.018,12.9837,12.9625,12.9421,12.8978,12.862,12.8185,12.8284,12.8114,12.7808,12.8191,12.7885,12.7197,12.67,12.6013,12.5019,12.2822,12.097,11.9481,11.95,11.8812,11.7993,11.7784,11.7688,11.7574,11.6755,11.6621,11.6354,11.5811,11.5702,11.5828,11.6003,11.6193,11.6093,11.5225,11.3903,11.233,11.0335,10.863,10.6885,10.509,10.401,10.3218,10.2312,10.1294,10.0231,9.9133,9.7775,9.6862,9.6795,9.7654,9.8342,9.8666,9.8649,9.8401,9.7814,9.6705,9.6134,9.6442,9.5672,9.5211,9.5211,9.5211,9.5211,9.5211,9.5211,9.5211,9.5211,9.5211,9.5403,9.5749,9.5749,9.6019,7.2846,7.5023,7.8222,8.1471,8.5801,9.0139,9.3713,9.7093,10.0019,10.1756,10.4587,10.7013,10.8397,11.1595,11.4349,11.4814,11.8069,12.0902,12.1937,12.3823,12.5101,12.5121,12.6023,12.7,12.7793,12.8839,12.9511,12.9815,12.9815,12.9815,12.9815,12.9815,12.9815,12.9815,12.9815,12.9885,13.0016,13.0016,13.0218,13.0579,13.049,13.0236,12.991,12.9788,12.9406,12.8993,12.8993,12.8993,12.8993,12.8993,12.8916,12.8611,12.7999,12.7082,12.6109,12.5196,12.3369,12.1476,12.1501,12.0515,11.9314,11.8997,11.8791,11.8485,11.7795,11.7423,11.7126,11.6509,11.6419,11.6586,11.6707,11.6789,11.6596,11.5314,11.462,11.3493,11.1034,10.971,10.8386,10.6598,10.5403,10.453,10.3791,10.2922,10.2185,10.2185,10.0511,9.9143,9.9143,10.0388,10.1306,10.1224,10.097,10.0404,9.9558,9.8711,9.8096,9.7865,9.7326,9.698,9.698,9.698,9.6865,9.6634,9.6634,9.6519,9.6288,9.6288,9.6403,9.6634,9.6634,9.6942,7.5908,7.9106,8.2827,8.7188,9.1494,9.5679,9.9375,10.2849,10.5495,10.6596,10.8229,11.0132,11.2474,11.3151,11.4474,11.8215,11.9929,12.1754,12.5,12.4994,12.5008,12.5886,12.4622,12.4016,12.4812,12.7086,12.8905,12.9701,12.9815,12.9815,12.9815,12.9815,12.9815,12.9815,12.9815,12.9885,13.0016,13.0016,13.0218,13.0579,13.0579,13.068,13.0789,13.0789,13.0712,13.0712,13.0712,13.0712,13.0712,13.0712,13.0292,12.9604,12.949,12.8496,12.7065,12.7516,12.5365,12.241,12.2697,12.2216,12.1408,12.1408,12.0831,11.9985,11.9312,11.8388,11.7622,11.69,11.6905,11.7094,11.7094,11.7196,11.6909,11.4892,11.4393,11.3893,11.1911,11.0094,10.8902,10.8787,10.7518,10.6326,10.6326,10.4997,10.3884,10.3884,10.3121,10.2625,10.2625,10.3295,10.3788,10.3788,10.302,10.2212,10.1289,10.0481,9.9635,9.8788,9.875,9.8711,9.8711,9.8711,9.8327,9.748,9.7442,9.7096,9.6288,9.6288,9.6711,9.7442,9.7442,9.748,8.1201,8.5254,8.9553,9.4322,9.819,10.156,10.4863,10.7428,10.9166,11.0012,11.0086,11.0159,11.049,11.1767,11.3721,11.6295,11.981,12.3223,12.6236,12.7005,12.6502,12.4622,12.4812,12.4584,12.3295,12.4887,12.6782,12.8791,12.9511,13.0004,13.0611,13.0714,13.0821,13.0821,13.0358,13.0218,13.0387,13.0387,13.0478,13.0728,13.0728,13.0804,13.0789,13.0789,13.0789,13.0789,13.0789,13.0789,13.0789,13.0789,13.0598,13.0292,12.9795,12.8997,12.8115,12.7874,12.6419,12.4595,12.432,12.3281,12.2197,12.2197,12.1617,12.0689,11.9913,11.91,11.8172,11.7394,11.7302,11.7399,11.7399,11.753,11.721,11.5902,11.4994,11.4198,11.2812,11.1532,11.0483,10.9906,10.929,10.8713,10.8213,10.7582,10.7302,10.7302,10.4673,10.3317,10.4873,10.4897,10.4905,10.552,10.4789,10.3712,10.2289,10.1404,10.0481,9.9712,9.9096,9.8788,9.8788,9.825,9.7788,9.7519,9.698,9.6557,9.6288,9.6288,9.6711,9.7519,9.7519,9.8134,8.6794,9.1526,9.5892,9.9708,10.3294,10.6377,10.8307,10.9986,11.1153,11.1225,11.0092,10.903,10.8675,10.921,11.0667,11.399,11.7831,12.1733,12.5497,12.643,12.5987,12.4205,12.4395,12.4205,12.2916,12.3712,12.5494,12.8299,12.9284,13.0194,13.099,13.1434,13.1732,13.1732,13.13,13.1197,13.1431,13.1113,13.0986,13.0789,13.0789,13.0789,13.0789,13.0789,13.0789,13.0789,13.0789,13.0789,13.0789,13.0789,13.0789,13.0674,13.0011,12.9302,12.8624,12.8189,12.712,12.5713,12.5097,12.4004,12.291,12.2595,12.1897,12.1083,12.03,11.937,11.8625,11.8112,11.7986,11.7977,11.7977,11.8111,11.78,11.6383,11.5294,11.4309,11.3237,11.1997,11.0906,11.0291,10.9906,10.9598,10.8983,10.8906,10.8906,10.8906,10.6605,10.5518,10.7095,10.679,10.6713,10.7213,10.6482,10.5482,10.4097,10.3212,10.2212,10.1096,10.0481,9.9981,9.9712,9.8865,9.8288,9.798,9.7134,9.6596,9.6288,9.6596,9.7134,9.798,9.8288,9.9093,9.2716,9.7685,10.1878,10.362,10.6952,10.9847,10.9659,11.0844,11.1609,11.0451,10.8217,10.6529,10.7107,10.5501,10.5982,11.1606,11.4493,11.813,12.3721,12.4113,12.4091,12.4812,12.3599,12.2879,12.3599,12.3712,12.5115,12.8488,12.9398,13.0194,13.1103,13.1975,13.2392,13.2392,13.2491,13.2737,13.2796,13.2193,13.1544,13.0903,13.0903,13.0789,13.0789,13.0789,13.0789,13.0789,13.0789,13.0789,13.0789,13.0789,13.0789,13.0811,13.0312,12.9484,12.8716,12.8509,12.7417,12.591,12.5172,12.4395,12.3617,12.2827,12.1974,12.1192,12.0401,11.95,11.8792,11.9004,11.8993,11.8993,11.8993,11.8993,11.8616,11.6724,11.5371,11.4387,11.3391,11.1573,11.0291,11.0291,10.9598,10.8983,10.8983,10.8983,10.8983,10.8983,10.8983,10.8983,10.8983,10.8983,10.8983,10.8983,10.8213,10.7405,10.6521,10.5597,10.4289,10.2712,10.2597,10.2212,10.1289,10.0481,9.9673,9.8827,9.7942,9.7096,9.6288,9.7096,9.7942,9.8826,9.9711,10.0196,9.9198,10.3549,10.6883,10.8591,11.0727,11.2216,11.2162,11.1914,11.0996,10.8774,10.4943,10.1704,10.12,10.2286,10.5222,11.1139,11.7307,12.3034,12.767,12.8797,12.8488,12.6896,12.6782,12.6586,12.5696,12.6586,12.8406,13.1314,13.1087,13.1472,13.2809,13.3928,13.4296,13.3687,13.3243,13.2993,13.3186,13.3019,13.2485,13.1782,13.1782,13.14,13.0789,13.0789,13.0789,13.0789,13.0789,13.0789,13.0789,13.0789,13.0789,13.0811,13.0312,12.9732,12.9007,12.8607,12.7612,12.617,12.5419,12.4592,12.3877,12.3014,12.2082,12.1383,12.1218,12.0091,11.9082,11.9692,11.9498,11.8993,11.8993,11.9381,11.9614,11.8471,11.6786,11.5389,11.5121,11.3004,11.1214,11.1214,11.1021,11.0791,11.0791,11.0791,11.0791,11.0791,11.0791,11.0598,10.9983,10.9906,10.9906,10.9906,10.9098,10.7982,10.6521,10.5097,10.3712,10.2712,10.202,10.152,10.1289,10.0481,9.9673,9.8827,9.7942,9.7096,9.6288,9.7096,9.8047,9.9112,9.9924,10.0789,10.4561,10.8293,11.086,11.1299,11.2496,11.2931,11.0362,10.9304,10.7591,10.3592,9.9328,9.6389,9.6689,9.8373,10.1995,10.9017,11.5667,12.1994,12.7779,12.9289,12.9701,12.8981,12.9392,12.9499,12.8968,12.9803,13.1321,13.3787,13.2876,13.2914,13.4515,13.5714,13.6083,13.5664,13.5405,13.4992,13.4419,13.4113,13.3502,13.2585,13.2317,13.182,13.14,13.098,13.0789,13.0789,0.0,13.0789,13.0789,13.0789,13.0789,13.0696,13.0089,12.9508,12.9111,12.8425,12.7682,12.6782,12.5601,12.4887,12.4373,12.3227,12.2489,12.1984,12.1596,12.0819,12.0197,12.0585,12.0391,12.0119,12.0119,12.0391,12.0585,11.9692,11.7903,11.6508,11.6998,11.4433,11.1906,11.1598,11.1791,11.2022,11.2022,11.2291,11.2599,11.2599,11.2599,11.2406,11.1906,11.1214,11.0791,11.0791,10.9983,10.8906,10.7598,10.629,10.4905,10.3289,10.2712,10.2097,10.1289,10.0481,9.9865,9.9365,9.8519,9.7865,9.7403,9.8352,9.9165,9.9764,10.0703,10.16,10.889,11.1926,11.375,11.2631,11.3247,11.2636,10.6718,10.5023,10.2851,9.683,9.3047,9.1357,9.3009,9.4611,9.8379,10.6666,11.2834,11.9005,12.6194,12.8304,12.9701,13.1217,13.17,13.2226,13.2805,13.3066,13.4124,13.6218,13.5042,13.4815,13.6142,13.7347,13.7875,13.7799,13.7995,13.7537,13.61,13.5297,13.438,13.3502,13.2814,13.2317,13.2088,13.1285,13.0903,13.0789,13.0789,13.0903,13.098,13.0789,13.0903,13.0947,12.9882,12.9389,12.908,12.8302,12.7812,12.7281,12.5904,12.5205,12.4809,12.3276,12.28,12.2683,12.1906,12.1596,12.1518,12.1596,12.1596,12.1518,12.1518,12.1518,12.1285,12.0585,11.8827,11.7622,11.8608,11.5784,11.2796,11.1983,11.2406,11.2906,11.2906,11.3483,11.3984,11.3984,11.3984,11.3984,11.3984,11.2599,11.1714,11.1714,11.0791,10.979,10.8983,10.8098,10.6482,10.4097,10.3789,10.2981,10.1404,10.0596,10.0212,10.0096,9.9365,9.8942,9.8862,9.9963,10.0518,10.0587,10.1699,10.2319,11.1552,11.3261,11.412,11.3271,11.3149,11.1582,10.5841,10.2717,9.9155,9.2576,8.9179,8.7865,8.9555,9.352,9.9305,10.7799,11.5204,12.1881,12.7471,13.08,13.2695,13.2998,13.4287,13.527,13.5566,13.6101,13.6976,13.8186,13.7996,13.7654,13.7275,13.9076,13.9817,13.913,13.8606,13.7934,13.6902,13.6711,13.5909,13.438,13.4189,13.3387,13.2088,13.1897,13.1515,13.0789,13.0789,0.0,13.182,13.1094,13.1209,13.1767,13.0705,12.9882,12.9331,12.8918,12.7915,12.6694,12.65,12.549,12.4092,12.3111,12.28,12.28,12.2606,12.2101,12.1712,12.2411,12.2101,12.1518,12.1518,12.1518,12.1518,12.1285,11.978,11.8685,11.9609,11.7287,11.4815,11.3796,11.3714,11.3791,11.3791,11.3907,11.3984,11.3984,11.3984,11.3984,11.3984,11.3099,11.2522,11.2522,11.1098,10.979,10.8983,10.7521,10.579,10.3982,10.3212,10.2404,10.1289,10.1212,10.0789,10.0096,9.9942,9.9625,9.9134,10.0083,10.0695,10.1087,10.2008,10.2593,11.3316,11.4632,11.5321,11.4214,11.2382,10.9049,10.2001,9.7881,9.3723,8.7077,8.4786,8.4598,8.6701,9.1301,9.7006,10.3822,10.9572,11.631,12.4668,12.7514,13.013,13.4325,13.5991,13.6974,13.7391,13.7809,13.8606,13.9934,14.0008,13.9702,13.8904,14.0364,14.0906,14.0209,13.9855,13.908,13.7781,13.7284,13.6482,13.5297,13.4801,13.4189,13.3387,13.2508,13.1897,13.1515,13.1515,0.0,13.1515,13.1897,13.1903,13.1582,13.1306,13.0791,13.0198,12.9375,12.8606,12.7713,12.6383,12.5412,12.449,12.3227,12.28,12.28,12.28,12.2489,12.2295,12.2683,12.2489,12.2217,12.2217,12.2217,12.2217,12.2217,12.181,12.0875,11.8788,11.7985,11.6982,11.4494,11.4407,11.4714,11.4714,11.4984,11.5291,11.5291,11.5291,11.5291,11.5291,11.4214,11.3214,11.2714,11.1598,11.0483,10.9713,10.8406,10.7021,10.529,10.3982,10.2904,10.202,10.152,10.1211,10.0882,10.0916,10.0875,10.0711,10.1292,10.1705,10.1904,10.238,10.2803,11.4392,11.5481,11.6114,11.455,11.1431,10.6505,9.8167,9.3528,8.9067,8.242,8.1369,8.2308,8.4636,8.9064,9.4199,9.9535,10.3827,11.03,12.122,12.4081,12.7677,13.4931,13.7088,13.8188,13.8684,13.9099,13.9782,14.0996,14.1487,14.152,14.1026,14.1767,14.2004,14.1487,14.1296,14.0303,13.8392,13.7705,13.6902,13.5909,13.5183,13.4801,13.4495,13.3005,13.2317,13.2088,13.2088,13.1706,0.0,13.2508,13.2384,13.1501,13.179,13.1382,13.0708,12.9791,12.9188,12.8497,12.65,12.5607,12.5003,12.3704,12.3111,12.28,12.28,12.28,12.28,12.28,12.28,12.28,12.28,12.2683,12.2489,12.2489,12.3188,12.2605,11.8295,11.8797,11.8913,11.5187,11.5099,11.5599,11.5599,11.6099,11.6484,11.6484,11.6484,11.6484,11.6484,11.5215,11.3907,11.3099,11.2099,11.1098,11.0291,10.9406,10.8213,10.6521,10.4789,10.3482,10.2597,10.1827,10.1504,10.17,10.1825,10.1915,10.2184,10.262,10.2685,10.2593,10.3001,10.3086,11.4767,11.5673,11.5383,11.3797,11.0151,10.4845,9.651,9.1817,8.7339,8.0693,8.0543,8.212,8.3885,8.7677,9.2486,9.8554,10.3573,10.9963,11.8872,12.4736,12.9815,13.4401,13.766,13.9555,13.9669,14.0389,14.0883,14.1147,14.2273,14.3171,14.3971,14.3492,14.3207,14.3207,14.2481,14.0876,13.8392,13.8278,13.7513,13.5909,13.5794,13.5412,13.461,13.3578,13.2814,13.2088,13.2088,13.2088,0.0,13.2088,13.2307,13.2307,13.1999,13.0991,12.9896,13.0112,12.9305,12.8006,12.7695,12.6607,12.5325,12.5092,12.4004,12.28,12.28,12.28,12.28,12.28,12.28,12.28,12.28,12.2217,12.1596,12.1596,12.2295,12.2286,11.991,12.0108,11.9879,11.6881,11.6292,11.6407,11.6407,11.6484,11.6484,11.6484,11.6484,11.6484,11.6484,11.5676,11.4791,11.3984,11.2483,11.1098,11.0291,10.9406,10.8213,10.6521,10.4789,10.3482,10.2597,10.2031,10.171,10.17,10.1899,10.2201,10.2499,10.329,10.3389,10.2889,10.371,10.3711,11.3109,11.568,11.6688,11.5044,11.0201,10.4071,9.7317,9.1473,8.6063,8.0919,8.0393,8.1219,8.2383,8.5215,8.8759,9.2781,9.5348,10.0608,11.1523,11.5221,12.0716,13.1331,13.459,13.6978,13.9593,14.0579,14.1715,14.2889,14.4015,14.4499,14.4385,14.3827,14.3207,14.271,14.1907,14.0379,13.8392,13.7896,13.6979,13.5909,13.5909,13.5718,13.5412,13.4495,13.3884,13.3616,13.3616,13.3395,0.0,13.3612,13.382,13.3704,13.3068,13.2291,13.1518,13.0716,12.9685,12.8511,12.7501,12.6685,12.5908,12.4898,12.4082,12.3499,12.2994,12.28,12.28,12.28,12.28,12.28,12.28,12.2217,12.1596,12.2217,12.2916,12.2907,12.0294,12.0689,12.0691,11.7189,11.6484,11.6484,11.6484,11.6484,11.6484,11.6484,11.6484,11.6484,11.6484,11.5792,11.5176,11.4791,11.3214,11.1906,11.1098,10.9713,10.8598,10.7905,10.579,10.433,10.3615,10.2887,10.2397,10.2223,10.2304,10.2704,10.35,10.389,10.4212,10.4492,10.4297,10.3984,11.1189,11.4811,11.6718,11.5248,10.9496,10.2821,9.726,9.0685,8.4673,8.0806,8.0393,8.0969,8.1583,8.3965,8.668,8.9187,9.1068,9.5895,10.6409,10.9105,11.4411,12.6259,12.9398,13.2089,13.6068,13.9211,14.1789,14.3913,14.5006,14.5186,14.4385,14.3827,14.2901,14.1793,14.1487,14.0188,13.801,13.7705,13.6979,13.5909,13.5603,13.5718,13.5909,13.4686,13.438,13.461,13.461,13.4297,0.0,13.4398,13.4512,13.4201,13.3216,13.249,13.1814,13.0586,12.9598,12.8588,12.7384,12.6801,12.6413,12.5208,12.4509,12.4004,12.3383,12.2994,12.28,12.28,12.28,12.28,12.28,12.2217,12.1712,12.2606,12.3305,12.2984,12.0294,12.0803,12.0768,11.7189,11.6484,11.6484,11.6484,11.6484,11.6484,11.6484,11.6484,11.6484,11.6484,11.5984,11.5599,11.5291,11.3984,11.2791,11.1906,11.0291,10.9213,10.8906,10.6796,10.5206,10.4304,10.382,10.3413,10.291,10.3218,10.3808,10.4609,10.4804,10.5117,10.5508,10.4883,10.4414,10.9197,11.2711,11.4323,11.3364,10.744,10.0422,9.5403,8.9003,8.3171,7.983,8.043,8.1696,8.1942,8.4569,8.7372,8.9476,9.3894,9.9139,10.5292,10.9689,11.4199,11.9316,12.2121,12.4887,12.8299,13.5642,14.1107,14.3576,14.4896,14.5186,14.4385,14.3827,14.2595,14.099,14.1678,14.0608,13.7093,13.801,13.7513,13.5909,13.4992,13.5106,13.5794,13.4113,13.3807,13.461,13.461,0.0,0.0,13.3785,13.3718,13.3401,13.1788,13.0822,13.0212,12.9491,12.8705,12.7889,12.7889,12.7306,12.6607,12.6607,12.548,12.4082,12.4082,12.3499,12.28,12.28,12.28,12.28,12.28,12.2217,12.1712,12.2606,12.28,12.2208,12.0216,12.0302,11.9995,11.7073,11.6484,11.6484,11.6484,11.6484,11.6484,11.6484,11.6484,11.6484,11.6484,11.6484,11.6176,11.5407,11.4484,11.3599,11.2791,11.1214,10.979,10.8983,10.7594,10.5999,10.4411,10.4789,10.4705,10.3807,10.4909,10.5508,10.5508,10.6289,10.6289,10.5508,10.5508,10.5,9.8332,10.2497,10.5126,10.3403,9.9456,9.5214,9.2194,8.7136,8.266,8.064,8.065,8.1226,8.1934,8.441,8.7409,9.0815,9.3705,9.7446,10.2918,10.7683,11.3279,12.0131,12.9229,13.6071,13.9114,14.1583,14.3596,14.5109,14.563,14.5202,14.3827,14.3484,14.2595,14.099,14.0608,13.9386,13.7093,13.7399,13.6979,13.5909,13.5603,13.5603,13.5909,13.5297,13.5183,13.5488,13.5696,0.0,0.0,13.4513,13.4425,13.4425,13.2179,13.1321,13.0999,12.9693,12.8588,12.7889,12.7889,12.7695,12.7384,12.6801,12.6219,12.5713,12.5092,12.3888,12.28,12.28,12.28,12.28,12.28,12.2217,12.1712,12.2606,12.3321,12.2994,12.0294,12.08,12.0805,11.7194,11.6484,11.6484,11.6484,11.6484,11.6484,11.6484,11.6484,11.6484,11.6484,11.6484,11.6407,11.6099,11.4791,11.3599,11.2791,11.1214,11.0186,11.0102,10.9111,10.7973,10.6598,10.6689,10.6185,10.4991,10.5311,10.5781,10.6289,10.6601,10.6601,10.6289,10.6289,10.5898,9.1567,9.5724,9.8421,9.7247,9.4222,9.1068,8.9252,8.5252,8.1683,8.0472,8.0839,8.1498,8.2119,8.437,8.7137,9.0347,9.3088,9.6082,9.9687,10.5322,11.2104,12.0485,13.0059,13.7395,14.112,14.2529,14.3819,14.5172,14.5325,14.4714,14.3512,14.3092,14.1984,13.9997,13.9691,13.8813,13.7093,13.7093,13.6711,13.5909,13.5603,13.5603,13.5909,13.5603,13.5513,13.5597,0.0,0.0,0.0,13.451,13.4186,13.4112,13.1896,13.0883,13.049,12.9607,12.8899,12.8394,12.8394,12.8394,12.82,12.7384,12.6879,12.6413,12.5597,12.4587,12.3693,12.3693,12.3693,12.3693,12.3693,12.3111,12.2606,12.3188,12.3488,12.2888,12.0294,12.0607,12.0418,11.7117,11.6484,11.6484,11.6484,11.6484,11.6484,11.6484,11.6484,11.6484,11.6484,11.6484,11.6484,11.6484,11.5291,11.4099,11.3291,11.1729,11.0803,11.0608,11.0317,10.9603,10.8089,10.8496,10.8186,10.6992,10.6914,10.7187,10.7695,10.7383,10.6992,10.6719,10.6719,10.6406,0.0,9.1342,9.3296,9.3527,9.0716,8.748,8.6331,8.3263,0.0,7.9773,8.109,8.2444,8.2575,8.4537,8.6729,8.8644,9.2201,9.5128,9.6346,10.3163,11.169,12.1306,12.6815,13.1796,13.6526,13.9809,14.2429,14.4308,14.4244,14.3863,14.3321,14.2595,14.1105,13.866,13.9195,13.8698,13.6979,13.7093,13.6711,13.5909,13.5106,13.5106,13.5909,13.513,13.4816,0.0,0.0,0.0,0.0,13.3918,13.3379,13.2696,13.0988,12.9926,12.9404,12.921,12.9093,12.921,12.9093,12.9093,12.9016,12.82,12.7384,12.649,12.5713,12.5403,12.5286,12.5286,12.5286,12.5286,12.5286,12.4703,12.4198,12.4198,12.3577,12.2509,12.0406,12.0103,11.9414,11.7194,11.6682,11.6721,11.6484,11.6484,11.6484,11.6484,11.6484,11.6484,11.6484,11.6484,11.6484,11.6484,11.5792,11.4984,11.4181,11.2807,11.1608,11.0825,11.1294,11.0793,10.9212,11.0108,11.0312,10.9414,10.9297,10.9297,10.9218,10.8398,10.7617,10.6797,10.6797,10.6797,7.9712,0.0,8.3192,8.2776,8.192,8.1274,0.0,8.1291,8.0725,8.0845,8.2271,8.354,8.3578,8.5056,8.7255,9.0115,9.2455,9.4538,9.6441,10.7082,11.8579,12.9114,13.5235,13.9098,14.051,14.2915,14.4366,14.4423,14.4353,14.3844,14.2519,14.229,14.1705,14.0495,13.9385,13.7984,13.6214,13.6788,13.6711,13.5909,13.5718,13.5718,13.587,13.597,13.5735,0.0,0.0,0.0,13.3999,13.3986,13.3693,13.2921,13.1113,13.0695,13.088,12.8899,12.8588,12.9093,12.8394,12.82,12.82,12.8006,12.7811,12.7578,12.7384,12.6413,12.5286,12.5286,12.5286,12.5286,12.5286,12.5208,12.5014,12.5014,12.5409,12.5319,12.3304,12.3489,12.2993,11.9493,11.8796,11.8329,11.6798,11.6484,11.6484,11.6484,11.6484,11.6484,11.6484,11.6484,11.6484,11.6484,11.5792,11.5272,11.5315,11.3794,11.2592,11.1919,11.2197,11.2088,11.1204,11.1483,11.1211,11.0312,10.9609,10.8984,10.8281,10.8086,10.789,10.7695,10.7695,10.7695,7.7353,7.7907,7.8581,7.8713,7.8777,7.8962,7.9816,8.0234,8.0574,8.1165,8.2437,8.3552,8.3849,8.491,8.6571,8.9052,9.0941,9.4555,10.1484,11.0751,12.087,13.1834,13.7388,14.1065,14.2904,14.3986,14.4483,14.4282,14.3482,14.2821,14.2213,14.1897,14.1184,14.0106,13.9608,13.859,13.7304,13.6921,13.65,13.6117,13.6117,13.6237,13.6296,13.6089,13.5691,0.0,0.0,0.0,13.3498,13.3699,13.3289,13.2488,13.1501,13.119,13.1112,13.0101,13.0023,13.0296,12.9384,12.8579,12.7889,12.7889,12.7889,12.7889,12.7889,12.719,12.649,12.649,12.649,12.649,12.649,12.6219,12.5908,12.5908,12.5992,12.5707,12.4218,12.4393,12.3704,12.0224,11.9532,11.8912,11.6804,11.6484,11.6484,11.6484,11.6484,11.6484,11.6484,11.6484,11.6484,11.6484,11.6203,11.5784,11.5183,11.4499,11.3883,11.31,11.2998,11.2795,11.25,11.25,11.2109,11.1211,11.0312,10.9492,10.8593,10.8203,10.8008,10.8008,10.8008,10.8008,7.7903,7.7657,7.7684,7.8294,7.8544,7.884,7.9519,8.0005,8.0486,8.1474,8.2403,8.3288,8.3963,8.4785,8.5956,8.7733,9.0283,9.6396,10.8798,11.4497,12.1321,13.1795,13.656,14.0311,14.3329,14.3608,14.3725,14.3753,14.2458,14.1791,14.2011,14.149,14.0528,13.9212,13.971,13.9595,13.879,13.7274,13.6526,13.6622,13.643,13.6497,13.6791,13.6184,13.5613,13.5115,0.0,0.0,13.3084,13.3202,13.2682,13.1904,13.1904,13.1514,13.0892,13.1373,13.1606,13.1606,13.0621,12.9179,12.7879,12.7918,12.7918,12.7918,12.7889,12.7889,12.7889,12.7889,12.7889,12.7889,12.7889,12.7384,12.6801,12.683,12.6303,12.563,12.4703,12.4576,12.3704,12.0571,11.9879,11.9183,11.6919,11.6484,11.6484,11.6484,11.6484,11.649,11.6616,11.6577,11.6582,11.6589,11.6898,11.6508,11.5095,11.5208,11.5018,11.4296,11.3584,11.3203,11.3203,11.3203,11.2695,11.1718,11.1015,11.0117,10.9101,10.8398,10.8008,10.8008,10.8008,10.8086,7.8143,7.9149,7.966,7.8773,7.87,7.9091,8.0377,8.0921,8.155,8.3107,8.3659,8.4085,8.4708,8.607,8.7847,9.018,9.5836,10.3724,11.4781,11.8885,12.3793,13.1908,13.6898,13.9745,13.9737,14.1672,14.2654,14.218,14.2185,14.1987,14.1508,14.1393,14.1015,14.0095,13.9481,13.8884,13.8204,13.7658,13.7484,13.7708,13.6977,13.6868,13.7082,13.7405,13.6698,13.5219,0.0,13.4778,13.3314,13.3304,13.2897,13.2117,13.1974,13.1874,13.1601,13.0308,13.0283,13.0711,12.8999,12.8313,12.8093,12.8001,12.7974,12.8013,12.7918,12.7889,12.7889,12.7889,12.7889,12.7889,12.7889,12.7811,12.7724,12.7819,12.7678,12.7715,12.7583,12.7613,12.6494,12.2698,12.2019,12.08,11.7117,11.6484,11.6484,11.6484,11.6484,11.6582,11.69,11.6895,11.6993,11.7193,11.7309,11.7308,11.7413,11.6116,11.5407,11.5503,11.4101,11.3203,11.3203,11.3203,11.2383,11.0781,11.0703,10.9804,10.8203,10.8086,10.8008,10.8008,10.8008,10.8398,7.8372,7.9261,8.0216,8.0981,8.0503,7.9845,7.9679,7.98,8.0528,8.2376,8.2854,8.3475,8.5386,8.8112,9.1685,9.6591,10.2257,10.8363,11.541,11.9884,12.5053,13.1908,13.6063,13.8985,14.0332,14.1398,14.211,14.2004,14.1808,14.1577,14.1415,14.0976,14.0479,13.9803,13.938,13.8896,13.8104,13.8093,13.7899,13.7582,13.7196,13.7318,13.7707,13.7407,13.6711,13.5588,0.0,13.4611,13.3382,13.3424,13.2878,13.2099,13.2117,13.1785,13.1317,13.0517,13.0394,13.0604,12.9281,12.8479,12.8104,12.8118,12.8093,12.8015,12.7989,12.7974,12.7985,12.7985,12.7879,12.7889,12.7889,12.7889,12.7918,12.7974,12.8093,12.8089,12.8175,12.8318,12.7085,12.3187,12.2395,12.1103,11.7194,11.6484,11.6484,11.6484,11.6484,11.6586,11.7007,11.6998,11.7081,11.7396,11.7605,11.7491,11.7193,11.6593,11.5689,11.4492,11.3593,11.3203,11.3203,11.3203,11.2812,11.1992,11.1484,11.0703,10.9414,10.8906,10.8515,10.8008,10.8008,10.8515,7.8591,7.959,8.0868,8.2803,8.2335,8.1484,8.1529,8.1444,8.2097,8.4417,8.4379,8.4616,8.7003,9.1052,9.6204,10.278,10.816,11.3,11.7085,12.1789,12.694,13.2462,13.5556,13.8174,14.0685,14.1105,14.1287,14.1617,14.1194,14.1032,14.1112,14.0498,13.9726,13.8988,13.9094,13.8722,13.7913,13.8223,13.8014,13.7318,13.7209,13.7287,13.7611,13.6911,13.6288,13.5684,13.4983,13.4203,13.3385,13.3385,13.28,13.1787,13.1982,13.1514,13.0618,13.0618,13.0403,13.0088,12.9504,12.8703,12.8113,12.8089,12.8089,12.8089,12.8104,12.8079,12.8015,12.8001,12.8013,12.7908,12.7889,12.7889,12.7918,12.8001,12.7924,12.7895,12.8197,12.8084,12.699,12.348,12.2582,12.1181,11.7514,11.6697,11.6624,11.6624,11.6668,11.6786,11.721,11.72,11.7323,11.7603,11.7806,11.7593,11.6812,11.6708,11.5781,11.3593,11.3281,11.3281,11.3515,11.3281,11.3086,11.289,11.2187,11.1406,11.0312,10.9609,10.8906,10.8008,10.8203,10.8789,7.8954,8.0918,8.2585,8.2925,8.3219,8.458,8.9173,8.9676,9.0115,9.3239,9.1733,9.008,9.065,9.54,10.1009,10.6106,11.2531,11.8597,12.4013,12.6998,13.0071,13.4198,13.61,13.7411,13.8481,13.9601,14.0205,14.0167,14.0498,14.0588,14.0588,13.9781,13.9027,13.8181,13.8382,13.8107,13.7296,13.76,13.7717,13.7717,13.7103,13.66,13.6092,13.6092,13.5585,13.4788,13.471,13.4203,13.3385,13.3385,13.2411,13.1086,13.1787,13.1086,12.9683,12.9683,12.9215,12.8514,12.8397,12.8299,12.8299,12.8197,12.8197,12.8214,12.8089,12.8113,12.8191,12.7989,12.8015,12.8093,12.7879,12.7889,12.7879,12.8118,12.752,12.7194,12.8104,12.7696,12.6526,12.4372,12.3092,12.1482,11.8604,11.748,11.7003,11.7003,11.72,11.7485,11.7807,11.7781,11.7878,11.8198,11.8319,11.789,11.6992,11.621,11.539,11.4492,11.3593,11.3593,11.4414,11.3593,11.2812,11.1992,11.1914,11.1093,10.9414,10.9297,10.8906,10.8008,10.8789,10.9687,7.9139,8.0838,8.2649,8.5107,8.677,8.8291,8.9926,9.0528,9.1579,9.461,9.5196,9.578,9.7696,10.1484,10.5898,11.0702,11.6772,12.2168,12.5856,12.8605,13.1201,13.4289,13.5985,13.7386,13.8452,13.9515,13.9979,13.9632,14.0204,14.0412,13.9796,13.8988,13.8478,13.8382,13.7868,13.7391,13.6671,13.697,13.6598,13.5588,13.638,13.6509,13.5996,13.5996,13.5489,13.471,13.471,13.4203,13.3385,13.28,13.1904,13.0813,12.9995,12.9683,12.9488,12.9021,12.8904,12.9021,12.8514,12.8319,12.8319,12.8299,12.8319,12.8299,12.8319,12.828,12.8202,12.8214,12.8128,12.8118,12.7879,12.7879,12.778,12.7379,12.7077,12.7007,12.7403,12.7286,12.6525,12.452,12.3308,12.1815,11.8878,11.7802,11.7206,11.7206,11.7294,11.7508,11.7911,11.7895,11.7983,11.8281,11.7812,11.7383,11.6992,11.5703,11.5312,11.6015,11.4804,11.4218,11.4492,11.4218,11.3906,11.3515,11.3008,11.2109,11.0898,11.0898,11.0195,10.8789,10.9687,11.0312,7.9109,8.0612,8.2368,8.5874,8.8747,9.1197,9.3162,9.4366,9.6102,9.9443,10.001,10.0577,10.298,10.5501,10.8802,11.3613,11.9291,12.4159,12.7065,12.9358,13.1788,13.4224,13.5909,13.7271,13.808,13.902,13.9307,13.8911,13.9488,13.9412,13.8604,13.768,13.7309,13.7303,13.6773,13.6401,13.6077,13.64,13.5809,13.4408,13.5303,13.5495,13.5216,13.5216,13.4905,13.4281,13.4281,13.4008,13.3307,13.2489,13.1514,13.0307,12.8904,12.8709,12.9099,12.8514,12.8709,12.9099,12.8514,12.828,12.8299,12.8299,12.8414,12.8409,12.8409,12.8387,12.8309,12.828,12.8219,12.8089,12.7989,12.8001,12.7795,12.6976,12.689,12.6778,12.672,12.6889,12.6506,12.4583,12.3711,12.2381,11.9597,11.8512,11.7876,11.7624,11.7599,11.7807,11.7983,11.7992,11.8019,11.789,11.7109,11.6601,11.6601,11.5312,11.5,11.6093,11.5117,11.4609,11.4883,11.4414,11.4101,11.4101,11.3515,11.2812,11.1914,11.1914,11.1093,10.9687,11.0586,11.1015,7.8912,8.0416,8.1817,8.4758,8.8419,9.3188,10.0218,10.2942,10.5078,10.9502,10.7006,10.4516,10.5765,10.7109,10.9519,11.4508,11.9728,12.4291,12.7984,12.9955,13.1773,13.4012,13.5795,13.6796,13.6796,13.7603,13.8104,13.8104,13.8104,13.768,13.6796,13.5988,13.5306,13.4714,13.5007,13.5296,13.5584,13.5908,13.5489,13.471,13.3814,13.3385,13.3385,13.3385,13.3385,13.3385,13.3385,13.3385,13.3307,13.2411,13.1086,12.9488,12.8592,12.8319,12.8319,12.8319,12.8319,12.8319,12.8319,12.8318,12.8393,12.8393,12.8387,12.8417,12.8417,12.8406,12.8498,12.8309,12.8279,12.8182,12.8219,12.8104,12.7821,12.7123,12.6912,12.6682,12.5891,12.6403,12.6503,12.478,12.4306,12.3309,12.0805,11.9584,11.8819,11.7984,11.8107,11.8281,11.8281,11.8281,11.8008,11.7109,11.6289,11.5781,11.5703,11.5,11.4492,11.4492,11.4492,11.4804,11.5703,11.4101,11.3203,11.3203,11.3203,11.2812,11.1914,11.1914,11.1484,11.0586,11.1484,11.1914,7.9961,8.1943,8.4216,8.8381,9.2782,9.7642,10.3605,10.531,10.732,11.3423,11.2527,11.0587,11.089,11.2966,11.5231,11.7115,12.1916,12.6369,12.9205,13.0673,13.1909,13.31,13.432,13.4988,13.4988,13.5795,13.5988,13.5488,13.5988,13.5911,13.5103,13.5008,13.4985,13.5007,13.5296,13.5311,13.4973,13.5001,13.4281,13.2878,13.2606,13.2489,13.2489,13.1904,13.1592,13.1592,13.1592,13.1592,13.1592,13.0696,12.9683,12.8709,12.8397,12.8299,12.8414,12.8414,12.8393,12.8387,12.8387,12.8387,12.8402,12.8402,12.8402,12.8378,12.8484,12.8498,12.851,12.8393,12.8419,12.8315,12.8315,12.8211,12.7817,12.6408,12.5594,12.5205,12.5002,12.5093,12.5312,12.5383,12.4406,12.3117,12.1708,12.0308,11.9101,11.8313,11.82,11.8281,11.8281,11.7812,11.7304,11.6992,11.5703,11.4883,11.4883,11.4101,11.3789,11.4492,11.3906,11.3984,11.4804,11.4414,11.4101,11.4101,11.3515,11.3086,11.2812,11.2812,11.2383,11.1484,11.2383,11.25,8.0953,8.3465,8.6531,9.1269,9.5726,10.0685,10.7376,10.9997,11.2393,11.7326,11.6678,11.563,11.6521,11.7288,11.8376,12.0069,12.3417,12.6682,12.9215,13.0473,13.15,13.273,13.3705,13.4295,13.4295,13.4718,13.4795,13.4295,13.4411,13.4193,13.3495,13.3306,13.3224,13.32,13.3397,13.3396,13.319,13.319,13.2684,13.1592,13.1281,13.1086,13.1086,13.1008,13.0891,13.0891,13.0891,13.0696,13.0307,12.98,12.9099,12.8319,12.8319,12.8299,12.8414,12.8387,12.8378,12.8406,12.8405,12.8388,12.8398,12.8398,12.8407,12.8416,12.8503,12.851,12.851,12.8485,12.8393,12.8299,12.7905,12.7788,12.7409,12.6113,12.5605,12.5293,12.4289,12.4489,12.4892,12.4806,12.4201,12.3398,12.2188,12.1185,12.0088,11.8901,11.8515,11.8281,11.8281,11.7187,11.6484,11.6484,11.5,11.3984,11.3984,11.3515,11.3398,11.3984,11.3515,11.3398,11.3984,11.3984,11.3984,11.3984,11.3515,11.3008,11.2695,11.3008,11.2812,11.1914,11.2812,11.2695,8.2119,8.5242,8.9021,9.3925,9.8424,10.382,11.1816,11.6084,11.8884,12.0599,11.9818,11.9496,12.1785,12.0392,11.9993,12.3086,12.4513,12.6077,12.8615,12.9628,13.0794,13.2526,13.341,13.391,13.391,13.391,13.3795,13.3795,13.3064,13.2416,13.189,13.1203,13.0708,13.0384,13.04,13.0595,13.0891,13.0891,13.0891,13.0813,12.9995,12.9605,12.9488,13.0307,13.0696,13.0696,13.0696,13.019,12.9488,12.9488,12.8982,12.8299,12.8299,12.8318,12.8297,12.8419,12.8416,12.8388,12.8407,12.8387,12.851,12.851,12.8514,12.8515,12.8515,12.8515,12.8515,12.8515,12.8395,12.8114,12.7383,12.7109,12.6717,12.6014,12.6288,12.6211,12.3692,12.4403,12.5009,12.358,12.3792,12.3814,12.2396,12.2082,12.1396,11.9708,11.8591,11.8086,11.8086,11.6601,11.5586,11.5703,11.4218,11.3203,11.3203,11.3203,11.3203,11.3203,11.3203,11.3203,11.3086,11.3203,11.3203,11.3086,11.3086,11.2695,11.1914,11.2695,11.2695,11.1992,11.2812,11.2812,8.4484,8.8331,9.2972,9.9259,10.6594,11.3265,11.7208,11.9211,12.0281,12.0719,12.1962,12.3013,12.2283,12.3298,12.4179,12.4312,12.5688,12.7216,12.8365,12.8969,12.959,13.0718,13.0513,13.0602,13.1295,13.0718,13.0294,13.0294,13.0297,13.0213,13.0117,13.0317,13.0392,13.0412,13.0682,13.0811,13.0891,13.0891,13.0618,0.0,12.9683,12.9215,12.8592,12.8787,12.8904,12.8904,12.8904,12.8787,12.8592,12.8592,12.851,12.8393,12.8393,12.8388,12.8485,12.8496,12.8504,12.851,12.8514,12.8515,12.8515,12.8515,12.8514,12.8513,12.8515,12.8515,12.8514,12.851,12.8003,12.7614,12.8088,12.7183,12.6082,12.589,12.5392,12.4699,12.3508,12.3516,12.3792,12.4198,12.38,12.3412,12.3097,12.2497,12.1317,11.8905,11.7304,11.6289,11.6289,11.539,11.4804,11.4804,11.3789,11.3203,11.3203,11.3203,11.3203,11.3203,11.3203,11.289,11.2187,11.2812,11.289,11.2187,11.2187,11.2109,11.1914,11.2109,11.2383,11.289,11.3086,11.3086,8.5903,9.02,9.5919,10.4821,11.1991,11.7323,11.9097,12.0511,12.1389,12.1275,12.2688,12.3682,12.2916,12.4121,12.5057,12.4713,12.5803,12.6969,12.7923,12.8164,12.8706,12.9513,12.9386,12.941,12.9794,12.9487,12.919,12.9287,12.9087,12.9077,12.9312,12.9196,12.9207,12.9374,12.9603,12.9683,12.9683,12.9683,12.941,12.9021,12.9021,12.8709,12.8319,12.8319,12.8319,12.8319,12.8319,12.8319,12.8319,12.8319,12.8292,12.8393,12.7886,12.8104,12.8391,12.8006,12.8085,12.8514,12.8504,12.8496,12.8496,12.8496,12.85,12.8504,12.85,12.85,12.8387,12.801,12.7893,12.7697,12.6797,12.661,12.6312,12.5399,12.4814,12.4321,12.341,12.319,12.3292,12.3797,12.3488,12.3203,12.3203,12.2599,12.1309,11.9218,11.7811,11.6599,11.5781,11.5,11.4492,11.4492,11.3711,11.3203,11.3203,11.3203,11.3203,11.3203,11.3203,11.2812,11.1914,11.2695,11.2617,11.1289,11.1718,11.1484,11.0703,11.1484,11.1914,11.1992,11.2812,11.3008,8.6738,9.2326,9.9619,10.9604,11.5337,11.8677,11.9288,12.0702,12.181,12.181,12.2688,12.3491,12.33,12.4102,12.4733,12.4693,12.5382,12.628,12.7097,12.7281,12.7694,12.8706,12.8694,12.8783,12.8986,12.8717,12.8584,12.8824,12.8066,12.7921,12.8394,12.778,12.7622,12.7813,12.7891,12.7891,12.7891,12.8007,12.8007,12.7891,12.7891,12.7891,12.7891,12.7891,12.7891,12.8085,12.8085,12.8007,12.7891,12.7891,12.7902,12.7898,12.7195,12.7292,12.7885,12.7184,12.7489,12.8305,12.8299,12.8398,12.8515,12.8515,12.8515,12.8515,12.8515,12.8398,12.8203,12.7617,12.7617,12.7412,12.5478,12.5675,12.6116,12.4783,12.4494,12.4321,12.3623,12.3292,12.3175,12.3212,12.3204,12.3186,12.3214,12.2415,12.1208,11.9608,11.8508,11.7213,11.5507,11.4687,11.4297,11.4297,11.3593,11.3203,11.3203,11.3203,11.3203,11.3203,11.3203,11.2812,11.1914,11.2695,11.2383,11.0586,11.1289,11.1015,10.9804,11.1015,11.1484,11.1093,11.25,11.2812,8.6996,9.6658,10.6884,11.1794,11.6231,11.9403,11.9479,12.0281,12.1007,12.1007,12.2803,12.4102,12.3414,12.4599,12.5401,12.4675,12.5306,12.5937,12.6165,12.6221,12.6599,12.7694,12.717,12.7067,12.8025,12.6794,12.6013,12.6328,12.5717,12.5425,12.5797,12.5886,12.5977,12.602,12.602,12.602,12.602,12.6799,12.6799,12.602,12.602,12.602,12.602,12.602,12.6488,12.7189,12.7189,12.6683,12.602,12.602,12.6086,12.6095,12.6011,12.6091,12.6313,12.6206,12.6698,12.7401,12.7392,12.7891,12.8515,12.8515,12.8515,12.8515,12.8515,12.8008,12.75,12.8086,12.6797,12.5509,12.6602,12.531,12.3892,12.4516,12.4494,12.4383,12.4306,12.3682,12.3212,12.3204,12.3309,12.3391,12.3398,12.1985,12.0415,11.871,11.7102,11.5416,11.371,11.3398,11.3398,11.3398,11.3281,11.3203,11.3203,11.3203,11.3203,11.3203,11.3203,11.2812,11.1914,11.2695,11.2383,11.0586,11.0703,11.1015,11.1601,11.1015,11.1484,11.289,11.3086,11.3086,8.8929,9.7527,10.5817,11.0587,11.4283,11.6881,11.7912,11.8791,11.9517,12.0014,12.1313,12.2306,12.2001,12.288,12.3491,12.3185,12.4217,12.5057,12.521,12.5667,12.6292,12.6836,12.6287,12.6014,12.6524,12.5409,12.4788,12.5176,12.5015,12.5011,12.5419,12.5588,12.5689,12.5708,12.5202,12.5202,12.5708,12.5591,12.5591,12.5708,12.5202,12.5007,12.5007,12.45,12.5007,12.6293,12.6291,12.6096,12.5802,12.5789,12.5801,12.5796,12.5307,12.5503,12.5887,12.5518,12.5782,12.6485,12.6485,12.6797,12.7188,12.7617,12.7812,12.7891,12.8398,12.7891,12.7188,12.711,12.629,12.5392,12.508,12.4608,12.4087,12.4516,12.4221,12.3896,12.4409,12.419,12.3802,12.3296,12.3313,12.3396,12.3398,12.2685,12.1293,11.8583,11.7589,11.6183,11.3515,11.3203,11.3203,11.3203,11.3203,11.3203,11.3203,11.3203,11.3203,11.3203,11.3203,11.2812,11.1914,11.2695,11.2617,11.1406,11.1289,11.1289,11.1211,11.1289,11.1718,11.25,11.3008,11.3203,8.9551,9.5942,10.171,10.6692,11.0587,11.358,11.5113,11.6771,11.8294,11.9288,12.0014,12.0511,12.0816,12.1619,12.2306,12.2306,12.3605,12.4484,12.4618,12.5285,12.5924,12.59,12.5415,12.4976,12.5101,12.4293,12.403,12.4511,12.4422,12.449,12.5004,12.4988,12.5007,12.4695,12.4111,12.3994,12.4383,12.3799,12.3916,12.4695,12.3916,12.3409,12.3409,12.2783,12.319,12.4516,12.4906,12.5,12.4799,12.4803,12.4801,12.48,12.4217,12.4395,12.502,12.4494,12.4885,12.5704,12.5704,12.5782,12.6095,12.668,12.6915,12.6993,12.7695,12.7305,12.6485,12.6095,12.5704,12.5119,12.3987,12.3983,12.4282,12.4321,12.3909,12.3602,12.4114,12.4211,12.3987,12.3397,12.3397,12.3396,12.3393,12.3317,12.2298,11.9295,11.8499,11.7094,11.4214,11.3515,11.3203,11.3203,11.3203,11.3203,11.3203,11.3203,11.3203,11.3203,11.3203,11.289,11.2304,11.289,11.289,11.2187,11.2187,11.1914,11.1289,11.1718,11.1992,11.2187,11.289,11.3203,8.7072,9.1511,9.602,9.9395,10.4987,11.0015,11.1121,11.4298,11.7492,11.9211,11.9517,11.9785,12.0587,12.2115,12.3185,12.3185,12.3911,12.4618,12.477,12.4787,12.4897,12.5199,12.452,12.3993,12.4216,12.3408,12.3225,12.3574,12.2982,12.281,12.3312,12.3292,12.2981,12.2084,12.2084,12.1695,12.0915,12.0798,12.1188,12.2084,12.1188,12.0798,12.0798,12.081,12.0888,12.1005,12.2605,12.2911,12.211,12.211,12.2091,12.2183,12.2186,12.2216,12.2398,12.3184,12.3987,12.4806,12.4806,12.5314,12.6017,12.6017,12.6095,12.6095,12.6095,12.5509,12.5002,12.5782,12.4806,12.3713,12.4416,12.3983,12.3385,12.3385,12.3909,12.4108,12.3412,12.3301,12.3398,12.3296,12.3391,12.3396,12.3309,12.3203,12.258,12.0822,11.9205,11.7506,11.5702,11.4095,11.3203,11.3203,11.3203,11.3203,11.3203,11.3203,11.3203,11.3203,11.3203,11.3203,11.3086,11.3203,11.3203,11.3086,11.3086,11.3086,11.3086,11.2304,11.2304,11.3086,11.3203,11.3203,8.6926,8.9657,9.2527,9.6153,10.0101,10.3779,10.6183,10.9709,11.3099,11.5795,11.711,11.8294,11.9708,12.0893,12.1695,12.1695,12.2383,12.288,12.2974,12.3064,12.3494,12.4174,12.3225,12.2707,12.3293,12.22,12.1576,12.2019,12.1294,12.1093,12.1481,12.15,12.1383,12.111,12.0487,12.0097,11.9785,12.0292,12.0817,12.1124,12.0193,11.9815,11.9783,11.9288,11.9019,11.9092,12.0278,12.1193,12.189,12.1401,12.1484,12.1987,12.1422,12.1599,12.2099,12.2512,12.3089,12.3909,12.3909,12.4104,12.4416,12.5002,12.5197,12.5314,12.5782,12.5392,12.4806,12.5119,12.4299,12.3518,12.3791,12.3593,12.3293,12.3207,12.3516,12.3596,12.3309,12.3281,12.3413,12.3281,12.3398,12.3393,12.3323,12.3178,12.2307,11.9506,11.859,11.7211,11.4404,11.3592,11.3203,11.3203,11.3203,11.3203,11.3203,11.3203,11.3203,11.3203,11.3203,11.3203,11.3203,11.3203,11.3203,11.3203,11.3203,11.3203,11.3203,11.289,11.289,11.3203,11.3203,11.3515,8.5994,8.7285,8.8911,9.2703,9.5391,9.8072,10.1877,10.5521,10.9024,11.2511,11.4779,11.669,11.8409,11.9403,12.009,12.0702,12.1007,12.1275,12.1598,12.1587,12.1783,12.2371,12.1496,12.0985,12.16,12.0786,12.0305,12.0585,12.0296,0.0,12.0604,12.0604,12.0487,12.0214,11.9318,11.8889,11.8889,11.9396,11.9686,11.9799,11.9191,11.8899,11.8902,11.8382,11.8102,11.8198,11.8788,11.9804,12.1093,12.0894,12.1114,12.1605,12.099,12.1215,12.1683,12.1683,12.2191,12.3011,12.3011,12.3206,12.3401,12.3713,12.3987,12.4299,12.4611,12.4494,12.4299,12.4299,12.3791,12.3401,12.3401,12.3398,12.3293,12.3194,12.3217,12.3317,12.3317,12.3281,12.3408,12.328,12.3315,12.3291,12.3217,12.32,12.2404,12.0094,11.8898,11.7389,11.509,11.3902,11.3203,11.3203,11.3515,11.3515,11.3203,11.3515,11.3515,11.3203,11.3203,11.3203,11.3203,11.3203,11.3203,11.3203,11.3203,11.3203,11.3203,11.3203,11.3203,11.3203,11.3203,11.3788,0.0,0.0,0.0,8.8737,9.0638,9.2983,9.8211,10.1903,10.5418,10.9583,11.2601,11.4894,11.6613,11.7607,11.8677,12.0396,12.0014,11.9802,12.0806,12.0299,11.9916,12.0026,11.9468,11.91,11.91,11.9291,11.9491,11.9693,11.9975,12.0205,12.0487,12.0487,12.0097,11.9279,11.8383,11.7993,11.7993,11.7993,11.7993,11.7993,11.808,11.809,11.8101,11.82,11.8198,11.8196,11.8319,11.8709,11.9485,12.0386,12.0797,12.0785,12.0707,12.0785,12.0785,12.0785,12.1293,12.2113,12.2113,12.2581,12.3206,12.2386,12.2698,12.3206,12.2308,12.2698,12.3401,12.3401,12.3401,12.3401,12.3401,12.332,12.32,12.3077,12.3083,12.3086,12.3086,12.3184,12.3203,12.3306,12.3215,12.3204,12.3194,12.3098,12.2996,12.2913,12.0188,11.7989,11.791,11.5084,11.3203,11.3203,11.3984,11.4101,11.3281,11.3984,11.4101,11.3281,11.3203,11.3203,11.3203,11.3203,11.3203,11.3203,11.3203,11.3203,11.3203,11.3203,11.3203,11.3203,11.3281,11.4006,8.513,0.0,0.0,0.0,0.0,0.0,9.1369,9.5838,10.0507,10.5216,10.9086,11.2601,11.5505,11.5811,11.6308,11.86,11.8791,11.8677,11.8999,11.838,11.8192,11.8995,11.848,11.8315,11.9023,11.8795,11.8675,0.0,11.8709,11.8303,11.7915,11.7291,11.7408,11.8305,11.7603,11.7408,11.7993,11.7993,11.8021,11.809,11.809,11.8194,11.8203,11.82,11.8189,11.8311,11.8296,11.8413,11.8702,11.8897,11.9709,12.0707,11.9497,11.9692,12.0707,12.0083,12.0395,12.1215,12.1918,12.18,12.1605,12.1996,12.18,12.1488,12.1215,12.18,12.2503,12.2503,12.2894,12.3323,12.26,12.1916,12.139,12.1397,12.1396,12.1407,12.1407,12.141,12.1584,12.2191,12.2288,12.2307,12.2298,12.2202,12.1714,12.0487,11.9105,11.7388,11.5593,11.4088,11.3203,11.3203,11.3984,11.4101,11.3281,11.3984,11.4101,11.3281,11.3203,11.3203,11.3203,11.3203,11.3203,11.3203,11.3203,11.3203,11.3203,11.3203,11.3203,11.3203,11.4414,11.4993,8.5772,8.4893,8.4164,8.5317,0.0,0.0,8.7824,9.1895,9.6153,10.0087,10.3719,10.7392,11.1289,11.1183,11.1511,11.4626,11.5391,11.6193,11.7607,11.7194,11.6813,11.7105,11.7098,11.7085,11.7023,11.76,11.7695,11.7012,11.7192,11.7118,11.6317,11.5811,11.5889,11.6902,11.6512,11.6512,11.7019,11.7019,11.7218,11.7604,11.7584,11.7794,11.831,11.8185,11.8286,11.8287,11.8287,11.8287,11.8287,11.8287,11.9107,12.02,11.9614,11.9692,12.02,11.9692,11.981,12.0317,12.0785,12.0903,12.0785,12.102,12.0903,12.0707,12.0395,12.1098,12.2113,12.2113,12.2503,12.2689,12.2176,12.1396,12.0688,12.0695,12.0688,12.0679,12.0679,12.0679,12.081,12.129,12.1409,12.1406,12.1401,12.1286,12.1011,12.041,11.9002,11.7701,11.6923,11.5593,11.4704,11.4716,11.5501,11.5581,11.4297,11.4687,11.4687,11.3789,11.3398,11.3008,11.2695,11.3008,11.289,11.2109,11.25,11.2695,11.2695,11.3008,11.3398,11.3789,11.499,11.5515,8.6286,8.5642,8.519,8.6688,8.5235,0.0,8.6561,8.9439,9.2355,9.5105,9.7579,10.0735,10.5216,10.5116,10.549,10.9188,11.0691,11.2678,11.6117,11.6098,11.5483,11.4804,11.5609,11.5593,11.4099,11.5781,11.6399,11.4771,11.5801,11.62,11.5499,11.5304,11.5304,11.5499,11.5382,11.5382,11.5499,11.5499,11.5892,11.6813,11.6919,11.7419,11.8196,11.8311,11.8287,11.8287,11.8287,11.8287,11.8287,11.8287,11.8795,11.9614,12.0317,12.0083,11.9497,11.9419,11.9419,11.9419,11.9497,11.9888,12.0395,11.9692,12.0005,12.0395,11.9692,12.059,12.1996,12.2113,12.2113,12.2015,12.1812,12.1084,12.0509,12.0405,12.0292,12.0292,12.0292,12.0292,12.0288,12.0291,12.0416,12.0487,12.0409,12.0271,12.0516,12.1271,11.9315,11.8402,11.9882,11.8106,11.6779,11.6906,11.7694,11.7516,11.5898,11.5781,11.539,11.4414,11.3515,11.2695,11.1797,11.2617,11.2304,11.0585,11.1402,11.1792,11.1792,11.2695,11.3593,11.4296,11.5016,11.5487,8.7491,8.7055,8.5906,8.6184,8.5343,0.0,8.5015,8.7121,8.9684,9.2279,9.4752,9.7341,10.0298,10.1206,10.1884,10.3488,10.6213,10.9377,11.3404,11.38,11.3789,11.3797,11.4009,11.4103,11.4022,11.4703,11.4994,11.4629,11.4626,11.4917,11.5499,11.4213,11.4096,11.5499,11.4798,11.4798,11.5499,11.5494,11.5986,11.6886,11.6904,11.7381,11.8304,11.8296,11.8287,11.8287,11.8287,11.8287,11.8287,11.8287,11.8795,11.9497,11.899,11.9107,11.9419,11.8795,11.8482,11.8599,11.9302,11.9185,11.8912,11.9302,11.9185,11.8912,11.9419,12.02,12.1215,12.1918,12.2093,12.1809,12.0393,11.9796,11.9519,11.8801,11.8495,11.8499,11.8499,11.8499,11.8305,11.7716,11.8595,11.9494,11.9494,11.9393,11.9403,11.9511,11.8515,11.7896,11.8285,11.7404,11.6779,11.6906,11.7694,11.7516,11.5898,11.5703,11.5117,11.3515,11.2617,11.1797,11.0898,11.1718,11.1595,11.0284,11.0915,11.129,11.129,11.259,11.3115,11.3095,11.4589,11.5091,0.0,0.0,0.0,8.6795,0.0,0.0,0.0,8.6011,8.8079,8.9439,9.0689,9.2481,9.5668,9.5646,9.5981,9.8516,10.182,10.4997,10.7896,11.0596,11.2494,11.302,11.3105,11.3004,11.2829,11.3816,11.4414,11.4193,11.37,11.3496,11.359,11.3083,11.3083,11.3512,11.359,11.3818,11.4191,11.4283,11.4891,11.6288,11.6289,11.6982,11.8287,11.8287,11.8287,11.8287,11.8287,11.8287,11.8287,11.8287,11.8482,11.8912,11.8912,11.8912,11.8912,11.8912,11.8599,11.8404,11.8795,11.8404,11.7701,11.8092,11.8014,11.7701,11.8092,11.9107,12.0395,12.1683,12.1518,12.0599,11.9718,11.9094,11.8583,11.82,11.8011,11.7993,11.7993,11.7993,11.7798,11.7019,11.7507,11.7917,11.741,11.7191,11.7396,11.8281,11.7683,11.7722,11.9318,11.92,11.9099,11.9514,11.9714,11.9183,11.7616,11.6402,11.5,11.3281,11.2383,11.1289,11.0,11.0781,11.0889,11.0207,11.0416,11.0593,11.1099,11.2202,11.2904,11.3194,11.3886,11.4512,0.0,0.0,0.0,0.0,0.0,8.6415,0.0,0.0,0.0,8.7142,8.7128,8.8009,9.1128,9.034,9.0212,9.3166,9.6733,0.0,0.0,10.5431,0.0,11.1307,11.1627,11.1478,11.0791,11.2388,11.3396,11.3071,11.2619,11.2016,11.1407,11.1992,11.2187,11.1602,11.2304,11.2781,11.2994,11.3017,11.3789,11.5311,11.5386,11.6188,11.778,11.8014,11.8014,11.8092,11.8209,11.8287,11.8287,11.8287,11.8287,11.8404,11.899,11.8912,11.8404,11.899,11.8912,11.8287,11.8287,11.7701,11.6999,11.6999,11.7116,11.7311,11.7389,11.8482,12.0005,12.1293,12.0707,11.9683,11.9315,11.8782,11.83,11.8106,11.7993,11.7993,11.7993,11.7993,11.772,11.6707,11.6514,11.6183,11.5482,11.5279,11.5715,11.7284,11.6999,11.7694,12.0611,12.1205,12.1587,12.2225,12.1699,12.0717,11.9198,11.6896,11.4804,11.3086,11.2109,11.0898,10.9101,10.9603,10.9987,10.999,10.9793,10.998,11.0796,11.1689,11.2517,11.3304,11.3203,11.3872,0.0,0.0,0.0,0.0,8.9556,0.0,8.7372,0.0,8.6998,8.631,0.0,8.6125,8.6545,0.0,0.0,8.6118,9.0069,9.3102,9.2638,9.5819,10.0595,10.7274,10.8119,10.8086,10.8098,10.9294,11.0207,11.0595,11.0517,11.0497,11.0394,11.0511,11.0901,11.1602,11.168,11.2109,11.2905,11.3006,11.3509,11.4404,11.4489,11.5006,11.5984,11.6804,11.7116,11.7194,11.8014,11.8287,11.8287,11.8287,11.8287,11.8287,11.8404,11.8404,11.8287,11.8404,11.8404,11.8287,11.8287,11.7701,11.6999,11.6999,11.7506,11.8287,11.899,11.9888,12.0512,12.0005,12.02,12.0308,11.8715,11.8808,11.908,11.8294,11.7989,11.7993,11.7993,11.7993,11.7486,11.6006,11.5502,11.5401,11.5301,11.5217,11.5496,11.6416,11.6996,11.7996,11.9803,12.1327,12.2218,12.2303,12.1115,12.0016,11.9198,11.6384,11.3906,11.2187,11.1211,11.0,10.8203,10.7794,10.8177,10.948,10.9216,10.9417,11.0303,11.1188,11.1807,11.2104,11.2925,11.3078,0.0,0.0,0.0,0.0,0.0,0.0,8.8909,0.0,8.7286,0.0,0.0,0.0,0.0,0.0,0.0,0.0,8.9734,9.1914,0.0,0.0,9.6983,10.1903,0.0,0.0,10.3174,10.4774,10.5923,10.6173,10.8297,10.929,10.8913,10.981,11.0511,11.0784,11.129,11.1978,11.292,11.2994,11.3509,11.4404,11.4381,11.4907,11.571,11.6608,11.6999,11.6999,11.7897,11.8287,11.8287,11.8287,11.8287,11.8287,11.8287,11.8287,11.8287,11.8287,11.8287,11.8287,11.8287,11.7389,11.6218,11.6218,11.6491,11.7116,11.8912,11.9419,11.938,11.9497,11.9419,11.9215,11.8414,11.8418,11.8612,11.8193,11.7989,11.7993,11.7993,11.7993,11.772,11.6512,11.5697,11.5107,11.4595,11.3994,11.3994,11.5403,11.6172,11.7368,11.9407,12.1501,12.301,12.3277,12.3027,12.1883,11.9689,11.7611,11.4899,11.1406,10.9883,10.8708,10.782,10.7387,10.7931,10.9291,10.9109,10.9598,11.0983,11.1291,11.1609,11.1693,11.2002,11.2385,9.1598,0.0,0.0,0.0,0.0,0.0,0.0,0.0,0.0,0.0,0.0,0.0,0.0,0.0,0.0,8.8123,0.0,9.0865,9.0869,9.1631,9.3601,9.7427,0.0,0.0,0.0,10.0673,10.1789,10.242,10.5223,10.7009,10.7082,10.8485,10.9498,11.0005,11.0784,11.1708,11.2584,11.2908,11.3398,11.4016,11.4001,11.4383,11.5008,11.5906,11.6413,11.6686,11.7584,11.8092,11.8287,11.8287,11.8287,11.8287,11.8287,11.8287,11.8287,11.8287,11.8287,11.8287,11.8287,11.7311,11.6101,11.6101,11.6101,11.6413,11.8482,11.8795,11.8404,11.899,11.8795,11.8287,11.819,11.8196,11.8105,11.8091,11.7989,11.7993,11.7993,11.7798,11.7408,11.6611,11.5599,11.4696,11.4004,11.3295,11.329,11.4697,11.6004,11.7506,11.9609,12.2001,12.3803,12.4418,12.4281,12.3099,12.0108,11.8418,11.5515,11.0898,10.8904,10.782,10.7496,10.7208,10.7585,10.8784,10.8916,10.9598,11.1098,11.1406,11.1522,11.1522,11.1522,11.1906,0.0,0.0,0.0,9.2673,0.0,0.0,0.0,0.0,8.8875,0.0,0.0,0.0,0.0,0.0,0.0,0.0,0.0,0.0,0.0,8.6472,8.9159,9.4906,9.5659,0.0,0.0,9.7359,9.818,10.0091,10.112,10.2718,10.5212,10.6108,10.7394,10.9108,10.9888,11.0808,11.1701,11.2617,11.3003,11.3118,11.3086,11.3212,11.3212,11.411,11.4891,11.5789,11.6686,11.7506,11.8287,11.8287,11.8287,11.8287,11.8287,11.8287,11.8287,11.8287,11.8287,11.8287,11.8287,11.7701,11.6999,11.6999,11.6999,11.7116,11.8092,11.8287,11.8287,11.8287,11.8287,11.8287,11.8287,11.8207,11.8119,11.8119,11.8021,11.7993,11.7993,11.7408,11.6611,11.5599,11.4722,11.4012,11.3813,11.3695,11.3883,11.4832,11.6887,11.8911,12.0497,12.2801,12.4511,12.5293,12.4127,12.2406,12.0108,11.7794,11.4813,11.0898,10.8712,10.7496,10.7189,10.7003,10.7083,10.7716,10.8482,10.929,11.0214,11.1098,11.1522,11.1522,11.1522,11.1906,0.0,0.0,9.1472,9.2469,0.0,0.0,0.0,0.0,0.0,0.0,0.0,0.0,0.0,0.0,0.0,0.0,0.0,0.0,0.0,8.7611,8.7789,8.976,8.9831,9.009,0.0,0.0,9.2286,9.3071,9.4996,9.7535,10.0788,10.2421,10.5007,10.8991,10.9905,11.1094,11.2613,11.289,11.3081,11.3086,11.3103,11.3095,11.3095,11.3993,11.4891,11.571,11.6608,11.7506,11.8287,11.8287,11.8287,11.8287,11.8287,11.8287,11.8287,11.8287,11.8287,11.8209,11.7584,11.7194,11.6999,11.6999,11.6999,11.7194,11.8014,11.8287,11.8287,11.8287,11.8287,11.8287,11.8287,11.8207,11.8119,11.8119,11.8021,11.7915,11.7291,11.7019,11.6494,11.558,11.5107,11.482,11.4588,11.4879,11.5216,11.5493,11.7094,11.8913,12.0409,12.2791,12.4588,12.5293,12.552,12.3977,12.0199,11.5414,11.1982,11.0703,10.8712,10.7483,10.7207,10.6898,10.7088,10.7675,10.7982,10.879,11.0214,11.0483,11.0906,11.1522,11.2022,11.2406,9.5007,9.3676,0.0,9.3456,9.2332,0.0,9.2178,0.0,0.0,0.0,0.0,0.0,0.0,0.0,0.0,0.0,0.0,0.0,0.0,8.8391,8.7456,8.6845,8.6856,8.7001,8.7273,8.8069,8.8795,8.9196,9.1041,9.3716,9.727,0.0,10.2999,10.7192,10.9304,11.1089,11.2613,11.2886,11.3108,11.3095,11.3095,11.3095,11.3095,11.368,11.4617,11.571,11.6296,11.7194,11.8287,11.8287,11.8287,11.8287,11.8287,11.8287,11.8287,11.8287,11.8287,11.8209,11.7701,11.7506,11.7506,11.7506,11.7506,11.7584,11.8092,11.8092,11.8014,11.8912,11.8287,11.7584,11.8482,11.8012,11.7183,11.7183,11.7203,11.7019,11.6395,11.6083,11.5793,11.5383,11.4984,11.4901,11.5298,11.588,11.6282,11.632,11.76,11.9294,12.1166,12.3086,12.4619,12.5678,12.6283,12.4773,12.0212,11.4208,11.0586,11.0586,10.8597,10.741,10.7207,10.6873,10.7293,10.8598,10.829,10.9098,11.1098,11.0791,11.0983,11.1522,11.2022,11.2599]}]]